<?xml version="1.0" encoding="UTF-8" standalone="no" ?>
<gpx xmlns="http://www.topografix.com/GPX/1/1" xmlns:xsi="http://www.w3.org/2001/XMLSchema-instance" xsi:schemaLocation="http://www.topografix.com/GPX/1/1 http://www.topografix.com/GPX/1/1/gpx.xsd" version="1.1" creator="VisuGPX - https://www.visugpx.com">
  <metadata>
    <name>VTT - Venelles Trévaresse</name>
    <desc><![CDATA[Terrain gras et collant mais avec de belles descentes et de beaux sentiers.
Retour Puyricard Venelles par la route.]]></desc>
  </metadata>
  <trk>
    <name><![CDATA[VTT - Venelles Trévaresse]]></name>
    <desc><![CDATA[Terrain gras et collant mais avec de belles descentes et de beaux sentiers.]]></desc>
    <trkseg>
      <trkpt lat="43.60046" lon="5.48698">
        <ele>364</ele>
        <time>2013-02-14T13:03:22.000Z</time>
      </trkpt>
      <trkpt lat="43.60046" lon="5.48698">
        <ele>364</ele>
        <time>2013-02-14T13:03:29.000Z</time>
      </trkpt>
      <trkpt lat="43.60046" lon="5.48698">
        <ele>364</ele>
        <time>2013-02-14T13:03:30.000Z</time>
      </trkpt>
      <trkpt lat="43.60046" lon="5.48698">
        <ele>364</ele>
        <time>2013-02-14T13:03:32.000Z</time>
      </trkpt>
      <trkpt lat="43.60046" lon="5.48698">
        <ele>364</ele>
        <time>2013-02-14T13:03:33.000Z</time>
      </trkpt>
      <trkpt lat="43.60046" lon="5.48699">
        <ele>364</ele>
        <time>2013-02-14T13:03:53.000Z</time>
      </trkpt>
      <trkpt lat="43.60046" lon="5.487">
        <ele>364</ele>
        <time>2013-02-14T13:04:14.000Z</time>
      </trkpt>
      <trkpt lat="43.60047" lon="5.487">
        <ele>364</ele>
        <time>2013-02-14T13:04:28.000Z</time>
      </trkpt>
      <trkpt lat="43.60046" lon="5.487">
        <ele>364</ele>
        <time>2013-02-14T13:04:43.000Z</time>
      </trkpt>
      <trkpt lat="43.60047" lon="5.48701">
        <ele>364</ele>
        <time>2013-02-14T13:04:57.000Z</time>
      </trkpt>
      <trkpt lat="43.60047" lon="5.487">
        <ele>364</ele>
        <time>2013-02-14T13:05:21.000Z</time>
      </trkpt>
      <trkpt lat="43.60047" lon="5.48701">
        <ele>364</ele>
        <time>2013-02-14T13:05:37.000Z</time>
      </trkpt>
      <trkpt lat="43.60042" lon="5.48697">
        <ele>364</ele>
        <time>2013-02-14T13:05:42.000Z</time>
      </trkpt>
      <trkpt lat="43.6004" lon="5.48694">
        <ele>364</ele>
        <time>2013-02-14T13:05:43.000Z</time>
      </trkpt>
      <trkpt lat="43.60039" lon="5.48692">
        <ele>364</ele>
        <time>2013-02-14T13:05:44.000Z</time>
      </trkpt>
      <trkpt lat="43.60037" lon="5.48689">
        <ele>364</ele>
        <time>2013-02-14T13:05:45.000Z</time>
      </trkpt>
      <trkpt lat="43.60036" lon="5.48686">
        <ele>364</ele>
        <time>2013-02-14T13:05:46.000Z</time>
      </trkpt>
      <trkpt lat="43.60034" lon="5.48683">
        <ele>364</ele>
        <time>2013-02-14T13:05:47.000Z</time>
      </trkpt>
      <trkpt lat="43.60033" lon="5.48678">
        <ele>364</ele>
        <time>2013-02-14T13:05:49.000Z</time>
      </trkpt>
      <trkpt lat="43.60034" lon="5.48675">
        <ele>364</ele>
        <time>2013-02-14T13:05:50.000Z</time>
      </trkpt>
      <trkpt lat="43.60035" lon="5.48672">
        <ele>364</ele>
        <time>2013-02-14T13:05:52.000Z</time>
      </trkpt>
      <trkpt lat="43.60037" lon="5.48664">
        <ele>363.79998779297</ele>
        <time>2013-02-14T13:05:56.000Z</time>
      </trkpt>
      <trkpt lat="43.60023" lon="5.48633">
        <ele>362.79998779297</ele>
        <time>2013-02-14T13:06:06.000Z</time>
      </trkpt>
      <trkpt lat="43.60023" lon="5.48629">
        <ele>362.79998779297</ele>
        <time>2013-02-14T13:06:07.000Z</time>
      </trkpt>
      <trkpt lat="43.60024" lon="5.48626">
        <ele>362.60000610352</ele>
        <time>2013-02-14T13:06:08.000Z</time>
      </trkpt>
      <trkpt lat="43.60026" lon="5.48624">
        <ele>362.60000610352</ele>
        <time>2013-02-14T13:06:09.000Z</time>
      </trkpt>
      <trkpt lat="43.60028" lon="5.48622">
        <ele>362.39999389648</ele>
        <time>2013-02-14T13:06:11.000Z</time>
      </trkpt>
      <trkpt lat="43.60029" lon="5.48622">
        <ele>362.39999389648</ele>
        <time>2013-02-14T13:06:12.000Z</time>
      </trkpt>
      <trkpt lat="43.60031" lon="5.48622">
        <ele>362.39999389648</ele>
        <time>2013-02-14T13:06:13.000Z</time>
      </trkpt>
      <trkpt lat="43.60033" lon="5.48622">
        <ele>362.39999389648</ele>
        <time>2013-02-14T13:06:14.000Z</time>
      </trkpt>
      <trkpt lat="43.60035" lon="5.48622">
        <ele>362.39999389648</ele>
        <time>2013-02-14T13:06:15.000Z</time>
      </trkpt>
      <trkpt lat="43.60038" lon="5.48622">
        <ele>362.39999389648</ele>
        <time>2013-02-14T13:06:16.000Z</time>
      </trkpt>
      <trkpt lat="43.6004" lon="5.48622">
        <ele>362.20001220703</ele>
        <time>2013-02-14T13:06:17.000Z</time>
      </trkpt>
      <trkpt lat="43.60076" lon="5.48613">
        <ele>361.39999389648</ele>
        <time>2013-02-14T13:06:28.000Z</time>
      </trkpt>
      <trkpt lat="43.60085" lon="5.48611">
        <ele>361</ele>
        <time>2013-02-14T13:06:31.000Z</time>
      </trkpt>
      <trkpt lat="43.60087" lon="5.48608">
        <ele>360.79998779297</ele>
        <time>2013-02-14T13:06:32.000Z</time>
      </trkpt>
      <trkpt lat="43.60088" lon="5.48605">
        <ele>360.60000610352</ele>
        <time>2013-02-14T13:06:33.000Z</time>
      </trkpt>
      <trkpt lat="43.60087" lon="5.48601">
        <ele>360.39999389648</ele>
        <time>2013-02-14T13:06:34.000Z</time>
      </trkpt>
      <trkpt lat="43.60085" lon="5.48596">
        <ele>360.39999389648</ele>
        <time>2013-02-14T13:06:35.000Z</time>
      </trkpt>
      <trkpt lat="43.60082" lon="5.48586">
        <ele>360</ele>
        <time>2013-02-14T13:06:37.000Z</time>
      </trkpt>
      <trkpt lat="43.60069" lon="5.48556">
        <ele>360</ele>
        <time>2013-02-14T13:06:42.000Z</time>
      </trkpt>
      <trkpt lat="43.60066" lon="5.48549">
        <ele>360</ele>
        <time>2013-02-14T13:06:43.000Z</time>
      </trkpt>
      <trkpt lat="43.60063" lon="5.48543">
        <ele>360</ele>
        <time>2013-02-14T13:06:44.000Z</time>
      </trkpt>
      <trkpt lat="43.60057" lon="5.4853">
        <ele>360.20001220703</ele>
        <time>2013-02-14T13:06:47.000Z</time>
      </trkpt>
      <trkpt lat="43.60056" lon="5.48527">
        <ele>360</ele>
        <time>2013-02-14T13:06:48.000Z</time>
      </trkpt>
      <trkpt lat="43.60058" lon="5.48524">
        <ele>360</ele>
        <time>2013-02-14T13:06:49.000Z</time>
      </trkpt>
      <trkpt lat="43.60061" lon="5.48521">
        <ele>359.79998779297</ele>
        <time>2013-02-14T13:06:50.000Z</time>
      </trkpt>
      <trkpt lat="43.60068" lon="5.48515">
        <ele>359.60000610352</ele>
        <time>2013-02-14T13:06:52.000Z</time>
      </trkpt>
      <trkpt lat="43.60072" lon="5.48511">
        <ele>359.39999389648</ele>
        <time>2013-02-14T13:06:53.000Z</time>
      </trkpt>
      <trkpt lat="43.60083" lon="5.485">
        <ele>359</ele>
        <time>2013-02-14T13:06:56.000Z</time>
      </trkpt>
      <trkpt lat="43.60099" lon="5.48489">
        <ele>358.20001220703</ele>
        <time>2013-02-14T13:07:00.000Z</time>
      </trkpt>
      <trkpt lat="43.60103" lon="5.48486">
        <ele>358</ele>
        <time>2013-02-14T13:07:01.000Z</time>
      </trkpt>
      <trkpt lat="43.60114" lon="5.48478">
        <ele>357.79998779297</ele>
        <time>2013-02-14T13:07:04.000Z</time>
      </trkpt>
      <trkpt lat="43.60169" lon="5.48448">
        <ele>357.39999389648</ele>
        <time>2013-02-14T13:07:19.000Z</time>
      </trkpt>
      <trkpt lat="43.60203" lon="5.48407">
        <ele>358</ele>
        <time>2013-02-14T13:07:30.000Z</time>
      </trkpt>
      <trkpt lat="43.60205" lon="5.48402">
        <ele>358.20001220703</ele>
        <time>2013-02-14T13:07:31.000Z</time>
      </trkpt>
      <trkpt lat="43.60208" lon="5.48398">
        <ele>358.39999389648</ele>
        <time>2013-02-14T13:07:32.000Z</time>
      </trkpt>
      <trkpt lat="43.60229" lon="5.4835">
        <ele>361.20001220703</ele>
        <time>2013-02-14T13:07:43.000Z</time>
      </trkpt>
      <trkpt lat="43.60238" lon="5.48307">
        <ele>364</ele>
        <time>2013-02-14T13:07:54.000Z</time>
      </trkpt>
      <trkpt lat="43.60238" lon="5.48273">
        <ele>367</ele>
        <time>2013-02-14T13:08:03.000Z</time>
      </trkpt>
      <trkpt lat="43.60237" lon="5.48248">
        <ele>369.20001220703</ele>
        <time>2013-02-14T13:08:10.000Z</time>
      </trkpt>
      <trkpt lat="43.60233" lon="5.48212">
        <ele>371.79998779297</ele>
        <time>2013-02-14T13:08:20.000Z</time>
      </trkpt>
      <trkpt lat="43.60241" lon="5.48174">
        <ele>372.39999389648</ele>
        <time>2013-02-14T13:08:30.000Z</time>
      </trkpt>
      <trkpt lat="43.60247" lon="5.48117">
        <ele>373.20001220703</ele>
        <time>2013-02-14T13:08:43.000Z</time>
      </trkpt>
      <trkpt lat="43.60248" lon="5.48055">
        <ele>375.60000610352</ele>
        <time>2013-02-14T13:08:57.000Z</time>
      </trkpt>
      <trkpt lat="43.6025" lon="5.48006">
        <ele>377.60000610352</ele>
        <time>2013-02-14T13:09:08.000Z</time>
      </trkpt>
      <trkpt lat="43.60252" lon="5.47951">
        <ele>379.39999389648</ele>
        <time>2013-02-14T13:09:20.000Z</time>
      </trkpt>
      <trkpt lat="43.60266" lon="5.47915">
        <ele>380.39999389648</ele>
        <time>2013-02-14T13:09:30.000Z</time>
      </trkpt>
      <trkpt lat="43.6029" lon="5.47881">
        <ele>382.39999389648</ele>
        <time>2013-02-14T13:09:41.000Z</time>
      </trkpt>
      <trkpt lat="43.60311" lon="5.4785">
        <ele>386.20001220703</ele>
        <time>2013-02-14T13:09:52.000Z</time>
      </trkpt>
      <trkpt lat="43.60324" lon="5.47829">
        <ele>389.20001220703</ele>
        <time>2013-02-14T13:10:01.000Z</time>
      </trkpt>
      <trkpt lat="43.60338" lon="5.47804">
        <ele>391.79998779297</ele>
        <time>2013-02-14T13:10:11.000Z</time>
      </trkpt>
      <trkpt lat="43.60347" lon="5.47784">
        <ele>394.60000610352</ele>
        <time>2013-02-14T13:10:19.000Z</time>
      </trkpt>
      <trkpt lat="43.60351" lon="5.47774">
        <ele>395.79998779297</ele>
        <time>2013-02-14T13:10:23.000Z</time>
      </trkpt>
      <trkpt lat="43.60357" lon="5.47757">
        <ele>398</ele>
        <time>2013-02-14T13:10:31.000Z</time>
      </trkpt>
      <trkpt lat="43.60358" lon="5.47755">
        <ele>398.20001220703</ele>
        <time>2013-02-14T13:10:32.000Z</time>
      </trkpt>
      <trkpt lat="43.60361" lon="5.47747">
        <ele>399.20001220703</ele>
        <time>2013-02-14T13:10:36.000Z</time>
      </trkpt>
      <trkpt lat="43.60365" lon="5.47739">
        <ele>399.79998779297</ele>
        <time>2013-02-14T13:10:40.000Z</time>
      </trkpt>
      <trkpt lat="43.60367" lon="5.47735">
        <ele>400.20001220703</ele>
        <time>2013-02-14T13:10:43.000Z</time>
      </trkpt>
      <trkpt lat="43.60368" lon="5.47734">
        <ele>400.39999389648</ele>
        <time>2013-02-14T13:10:44.000Z</time>
      </trkpt>
      <trkpt lat="43.60369" lon="5.47731">
        <ele>400.39999389648</ele>
        <time>2013-02-14T13:10:45.000Z</time>
      </trkpt>
      <trkpt lat="43.60369" lon="5.4773">
        <ele>400.39999389648</ele>
        <time>2013-02-14T13:10:46.000Z</time>
      </trkpt>
      <trkpt lat="43.6037" lon="5.47728">
        <ele>400.60000610352</ele>
        <time>2013-02-14T13:10:47.000Z</time>
      </trkpt>
      <trkpt lat="43.60371" lon="5.47727">
        <ele>400.79998779297</ele>
        <time>2013-02-14T13:10:48.000Z</time>
      </trkpt>
      <trkpt lat="43.60385" lon="5.47709">
        <ele>402.79998779297</ele>
        <time>2013-02-14T13:10:58.000Z</time>
      </trkpt>
      <trkpt lat="43.60403" lon="5.4769">
        <ele>404.79998779297</ele>
        <time>2013-02-14T13:11:09.000Z</time>
      </trkpt>
      <trkpt lat="43.60429" lon="5.47667">
        <ele>406</ele>
        <time>2013-02-14T13:11:22.000Z</time>
      </trkpt>
      <trkpt lat="43.60455" lon="5.47658">
        <ele>407.79998779297</ele>
        <time>2013-02-14T13:11:33.000Z</time>
      </trkpt>
      <trkpt lat="43.60482" lon="5.47653">
        <ele>409.60000610352</ele>
        <time>2013-02-14T13:11:45.000Z</time>
      </trkpt>
      <trkpt lat="43.60499" lon="5.47653">
        <ele>411</ele>
        <time>2013-02-14T13:11:53.000Z</time>
      </trkpt>
      <trkpt lat="43.6052" lon="5.47648">
        <ele>410.79998779297</ele>
        <time>2013-02-14T13:12:02.000Z</time>
      </trkpt>
      <trkpt lat="43.6055" lon="5.47638">
        <ele>410.39999389648</ele>
        <time>2013-02-14T13:12:14.000Z</time>
      </trkpt>
      <trkpt lat="43.60579" lon="5.47626">
        <ele>410</ele>
        <time>2013-02-14T13:12:25.000Z</time>
      </trkpt>
      <trkpt lat="43.60609" lon="5.47617">
        <ele>410.79998779297</ele>
        <time>2013-02-14T13:12:36.000Z</time>
      </trkpt>
      <trkpt lat="43.60625" lon="5.47619">
        <ele>411.60000610352</ele>
        <time>2013-02-14T13:12:42.000Z</time>
      </trkpt>
      <trkpt lat="43.60627" lon="5.47618">
        <ele>411.79998779297</ele>
        <time>2013-02-14T13:12:43.000Z</time>
      </trkpt>
      <trkpt lat="43.60629" lon="5.47616">
        <ele>411.79998779297</ele>
        <time>2013-02-14T13:12:44.000Z</time>
      </trkpt>
      <trkpt lat="43.60631" lon="5.47615">
        <ele>411.79998779297</ele>
        <time>2013-02-14T13:12:45.000Z</time>
      </trkpt>
      <trkpt lat="43.60634" lon="5.47614">
        <ele>412</ele>
        <time>2013-02-14T13:12:46.000Z</time>
      </trkpt>
      <trkpt lat="43.60636" lon="5.47612">
        <ele>412</ele>
        <time>2013-02-14T13:12:47.000Z</time>
      </trkpt>
      <trkpt lat="43.6065" lon="5.47602">
        <ele>412.39999389648</ele>
        <time>2013-02-14T13:12:54.000Z</time>
      </trkpt>
      <trkpt lat="43.60652" lon="5.47603">
        <ele>412.60000610352</ele>
        <time>2013-02-14T13:12:55.000Z</time>
      </trkpt>
      <trkpt lat="43.60654" lon="5.47605">
        <ele>412.79998779297</ele>
        <time>2013-02-14T13:12:56.000Z</time>
      </trkpt>
      <trkpt lat="43.60656" lon="5.47607">
        <ele>413</ele>
        <time>2013-02-14T13:12:57.000Z</time>
      </trkpt>
      <trkpt lat="43.60657" lon="5.4761">
        <ele>413</ele>
        <time>2013-02-14T13:12:58.000Z</time>
      </trkpt>
      <trkpt lat="43.60671" lon="5.47635">
        <ele>414.20001220703</ele>
        <time>2013-02-14T13:13:08.000Z</time>
      </trkpt>
      <trkpt lat="43.60688" lon="5.47656">
        <ele>415.20001220703</ele>
        <time>2013-02-14T13:13:18.000Z</time>
      </trkpt>
      <trkpt lat="43.60706" lon="5.47681">
        <ele>415.79998779297</ele>
        <time>2013-02-14T13:13:29.000Z</time>
      </trkpt>
      <trkpt lat="43.60717" lon="5.47701">
        <ele>416</ele>
        <time>2013-02-14T13:13:38.000Z</time>
      </trkpt>
      <trkpt lat="43.60741" lon="5.47726">
        <ele>415.60000610352</ele>
        <time>2013-02-14T13:13:51.000Z</time>
      </trkpt>
      <trkpt lat="43.60764" lon="5.47711">
        <ele>413</ele>
        <time>2013-02-14T13:14:01.000Z</time>
      </trkpt>
      <trkpt lat="43.60785" lon="5.47684">
        <ele>411.20001220703</ele>
        <time>2013-02-14T13:14:11.000Z</time>
      </trkpt>
      <trkpt lat="43.608" lon="5.47645">
        <ele>412</ele>
        <time>2013-02-14T13:14:21.000Z</time>
      </trkpt>
      <trkpt lat="43.60816" lon="5.47597">
        <ele>414</ele>
        <time>2013-02-14T13:14:33.000Z</time>
      </trkpt>
      <trkpt lat="43.60832" lon="5.47555">
        <ele>416.20001220703</ele>
        <time>2013-02-14T13:14:45.000Z</time>
      </trkpt>
      <trkpt lat="43.60839" lon="5.47541">
        <ele>415.79998779297</ele>
        <time>2013-02-14T13:14:48.000Z</time>
      </trkpt>
      <trkpt lat="43.60846" lon="5.47524">
        <ele>415.60000610352</ele>
        <time>2013-02-14T13:14:51.000Z</time>
      </trkpt>
      <trkpt lat="43.6085" lon="5.4752">
        <ele>415.39999389648</ele>
        <time>2013-02-14T13:14:52.000Z</time>
      </trkpt>
      <trkpt lat="43.60853" lon="5.47516">
        <ele>415.20001220703</ele>
        <time>2013-02-14T13:14:53.000Z</time>
      </trkpt>
      <trkpt lat="43.60855" lon="5.47511">
        <ele>415.20001220703</ele>
        <time>2013-02-14T13:14:54.000Z</time>
      </trkpt>
      <trkpt lat="43.60857" lon="5.47507">
        <ele>415.39999389648</ele>
        <time>2013-02-14T13:14:55.000Z</time>
      </trkpt>
      <trkpt lat="43.60858" lon="5.47502">
        <ele>415.60000610352</ele>
        <time>2013-02-14T13:14:56.000Z</time>
      </trkpt>
      <trkpt lat="43.60859" lon="5.47499">
        <ele>416</ele>
        <time>2013-02-14T13:14:57.000Z</time>
      </trkpt>
      <trkpt lat="43.6086" lon="5.47487">
        <ele>417</ele>
        <time>2013-02-14T13:15:01.000Z</time>
      </trkpt>
      <trkpt lat="43.60873" lon="5.47468">
        <ele>417.60000610352</ele>
        <time>2013-02-14T13:15:11.000Z</time>
      </trkpt>
      <trkpt lat="43.60878" lon="5.47462">
        <ele>417.79998779297</ele>
        <time>2013-02-14T13:15:14.000Z</time>
      </trkpt>
      <trkpt lat="43.60879" lon="5.4746">
        <ele>417.79998779297</ele>
        <time>2013-02-14T13:15:15.000Z</time>
      </trkpt>
      <trkpt lat="43.60887" lon="5.47458">
        <ele>417.39999389648</ele>
        <time>2013-02-14T13:15:20.000Z</time>
      </trkpt>
      <trkpt lat="43.6089" lon="5.47454">
        <ele>417.60000610352</ele>
        <time>2013-02-14T13:15:31.000Z</time>
      </trkpt>
      <trkpt lat="43.60888" lon="5.47454">
        <ele>417.79998779297</ele>
        <time>2013-02-14T13:15:48.000Z</time>
      </trkpt>
      <trkpt lat="43.6089" lon="5.47452">
        <ele>417.79998779297</ele>
        <time>2013-02-14T13:16:09.000Z</time>
      </trkpt>
      <trkpt lat="43.60892" lon="5.47454">
        <ele>417.39999389648</ele>
        <time>2013-02-14T13:16:20.000Z</time>
      </trkpt>
      <trkpt lat="43.60907" lon="5.47444">
        <ele>417.60000610352</ele>
        <time>2013-02-14T13:16:29.000Z</time>
      </trkpt>
      <trkpt lat="43.60923" lon="5.47429">
        <ele>417.60000610352</ele>
        <time>2013-02-14T13:16:39.000Z</time>
      </trkpt>
      <trkpt lat="43.60944" lon="5.47408">
        <ele>416.39999389648</ele>
        <time>2013-02-14T13:16:50.000Z</time>
      </trkpt>
      <trkpt lat="43.60962" lon="5.47383">
        <ele>417.20001220703</ele>
        <time>2013-02-14T13:17:00.000Z</time>
      </trkpt>
      <trkpt lat="43.60968" lon="5.47371">
        <ele>418.39999389648</ele>
        <time>2013-02-14T13:17:05.000Z</time>
      </trkpt>
      <trkpt lat="43.60968" lon="5.47369">
        <ele>418.60000610352</ele>
        <time>2013-02-14T13:17:06.000Z</time>
      </trkpt>
      <trkpt lat="43.60968" lon="5.47367">
        <ele>419</ele>
        <time>2013-02-14T13:17:07.000Z</time>
      </trkpt>
      <trkpt lat="43.60962" lon="5.47365">
        <ele>420.60000610352</ele>
        <time>2013-02-14T13:17:12.000Z</time>
      </trkpt>
      <trkpt lat="43.6096" lon="5.47365">
        <ele>420.79998779297</ele>
        <time>2013-02-14T13:17:13.000Z</time>
      </trkpt>
      <trkpt lat="43.60957" lon="5.47366">
        <ele>421.20001220703</ele>
        <time>2013-02-14T13:17:14.000Z</time>
      </trkpt>
      <trkpt lat="43.60938" lon="5.47385">
        <ele>421.60000610352</ele>
        <time>2013-02-14T13:17:24.000Z</time>
      </trkpt>
      <trkpt lat="43.60922" lon="5.47404">
        <ele>421.79998779297</ele>
        <time>2013-02-14T13:17:33.000Z</time>
      </trkpt>
      <trkpt lat="43.60897" lon="5.4743">
        <ele>420</ele>
        <time>2013-02-14T13:17:45.000Z</time>
      </trkpt>
      <trkpt lat="43.60892" lon="5.47435">
        <ele>419.79998779297</ele>
        <time>2013-02-14T13:17:48.000Z</time>
      </trkpt>
      <trkpt lat="43.60891" lon="5.47435">
        <ele>420</ele>
        <time>2013-02-14T13:17:49.000Z</time>
      </trkpt>
      <trkpt lat="43.60889" lon="5.47434">
        <ele>420.20001220703</ele>
        <time>2013-02-14T13:17:50.000Z</time>
      </trkpt>
      <trkpt lat="43.60888" lon="5.47433">
        <ele>420.39999389648</ele>
        <time>2013-02-14T13:17:51.000Z</time>
      </trkpt>
      <trkpt lat="43.60886" lon="5.47433">
        <ele>420.39999389648</ele>
        <time>2013-02-14T13:17:53.000Z</time>
      </trkpt>
      <trkpt lat="43.60881" lon="5.47432">
        <ele>421</ele>
        <time>2013-02-14T13:17:59.000Z</time>
      </trkpt>
      <trkpt lat="43.60879" lon="5.47433">
        <ele>420.79998779297</ele>
        <time>2013-02-14T13:18:01.000Z</time>
      </trkpt>
      <trkpt lat="43.60878" lon="5.47434">
        <ele>420.79998779297</ele>
        <time>2013-02-14T13:18:02.000Z</time>
      </trkpt>
      <trkpt lat="43.60877" lon="5.47434">
        <ele>420.79998779297</ele>
        <time>2013-02-14T13:18:03.000Z</time>
      </trkpt>
      <trkpt lat="43.60876" lon="5.47434">
        <ele>421</ele>
        <time>2013-02-14T13:18:04.000Z</time>
      </trkpt>
      <trkpt lat="43.60875" lon="5.47434">
        <ele>421</ele>
        <time>2013-02-14T13:18:05.000Z</time>
      </trkpt>
      <trkpt lat="43.60873" lon="5.47434">
        <ele>421.20001220703</ele>
        <time>2013-02-14T13:18:06.000Z</time>
      </trkpt>
      <trkpt lat="43.6085" lon="5.47427">
        <ele>423.20001220703</ele>
        <time>2013-02-14T13:18:18.000Z</time>
      </trkpt>
      <trkpt lat="43.6084" lon="5.47413">
        <ele>424.79998779297</ele>
        <time>2013-02-14T13:18:28.000Z</time>
      </trkpt>
      <trkpt lat="43.6084" lon="5.4741">
        <ele>425.20001220703</ele>
        <time>2013-02-14T13:18:35.000Z</time>
      </trkpt>
      <trkpt lat="43.60845" lon="5.47402">
        <ele>425.60000610352</ele>
        <time>2013-02-14T13:18:47.000Z</time>
      </trkpt>
      <trkpt lat="43.60845" lon="5.47401">
        <ele>425.60000610352</ele>
        <time>2013-02-14T13:18:49.000Z</time>
      </trkpt>
      <trkpt lat="43.60854" lon="5.47391">
        <ele>426.39999389648</ele>
        <time>2013-02-14T13:19:00.000Z</time>
      </trkpt>
      <trkpt lat="43.60857" lon="5.47383">
        <ele>427</ele>
        <time>2013-02-14T13:19:06.000Z</time>
      </trkpt>
      <trkpt lat="43.60857" lon="5.47375">
        <ele>427.79998779297</ele>
        <time>2013-02-14T13:19:10.000Z</time>
      </trkpt>
      <trkpt lat="43.60857" lon="5.47351">
        <ele>430</ele>
        <time>2013-02-14T13:19:18.000Z</time>
      </trkpt>
      <trkpt lat="43.60848" lon="5.47331">
        <ele>431.60000610352</ele>
        <time>2013-02-14T13:19:27.000Z</time>
      </trkpt>
      <trkpt lat="43.60836" lon="5.47315">
        <ele>432.39999389648</ele>
        <time>2013-02-14T13:19:32.000Z</time>
      </trkpt>
      <trkpt lat="43.60834" lon="5.47314">
        <ele>432.20001220703</ele>
        <time>2013-02-14T13:19:33.000Z</time>
      </trkpt>
      <trkpt lat="43.60832" lon="5.47314">
        <ele>432.20001220703</ele>
        <time>2013-02-14T13:19:34.000Z</time>
      </trkpt>
      <trkpt lat="43.60831" lon="5.47315">
        <ele>432.20001220703</ele>
        <time>2013-02-14T13:19:35.000Z</time>
      </trkpt>
      <trkpt lat="43.60829" lon="5.47316">
        <ele>432</ele>
        <time>2013-02-14T13:19:36.000Z</time>
      </trkpt>
      <trkpt lat="43.60825" lon="5.47318">
        <ele>431.79998779297</ele>
        <time>2013-02-14T13:19:39.000Z</time>
      </trkpt>
      <trkpt lat="43.60823" lon="5.47318">
        <ele>431.79998779297</ele>
        <time>2013-02-14T13:19:40.000Z</time>
      </trkpt>
      <trkpt lat="43.60821" lon="5.47318">
        <ele>431.60000610352</ele>
        <time>2013-02-14T13:19:41.000Z</time>
      </trkpt>
      <trkpt lat="43.60796" lon="5.47313">
        <ele>431.39999389648</ele>
        <time>2013-02-14T13:19:53.000Z</time>
      </trkpt>
      <trkpt lat="43.60786" lon="5.47307">
        <ele>431.79998779297</ele>
        <time>2013-02-14T13:19:59.000Z</time>
      </trkpt>
      <trkpt lat="43.60785" lon="5.47305">
        <ele>432</ele>
        <time>2013-02-14T13:20:00.000Z</time>
      </trkpt>
      <trkpt lat="43.6077" lon="5.47304">
        <ele>431.79998779297</ele>
        <time>2013-02-14T13:20:09.000Z</time>
      </trkpt>
      <trkpt lat="43.60757" lon="5.47308">
        <ele>431</ele>
        <time>2013-02-14T13:20:18.000Z</time>
      </trkpt>
      <trkpt lat="43.60755" lon="5.47308">
        <ele>431</ele>
        <time>2013-02-14T13:20:24.000Z</time>
      </trkpt>
      <trkpt lat="43.60756" lon="5.47312">
        <ele>430.60000610352</ele>
        <time>2013-02-14T13:20:43.000Z</time>
      </trkpt>
      <trkpt lat="43.60756" lon="5.47313">
        <ele>430.60000610352</ele>
        <time>2013-02-14T13:21:03.000Z</time>
      </trkpt>
      <trkpt lat="43.60753" lon="5.47312">
        <ele>430.60000610352</ele>
        <time>2013-02-14T13:21:15.000Z</time>
      </trkpt>
      <trkpt lat="43.60751" lon="5.47312">
        <ele>430.60000610352</ele>
        <time>2013-02-14T13:21:16.000Z</time>
      </trkpt>
      <trkpt lat="43.60743" lon="5.47308">
        <ele>431</ele>
        <time>2013-02-14T13:21:24.000Z</time>
      </trkpt>
      <trkpt lat="43.60741" lon="5.47309">
        <ele>430.79998779297</ele>
        <time>2013-02-14T13:21:33.000Z</time>
      </trkpt>
      <trkpt lat="43.60735" lon="5.47311">
        <ele>430.79998779297</ele>
        <time>2013-02-14T13:21:51.000Z</time>
      </trkpt>
      <trkpt lat="43.60733" lon="5.47309">
        <ele>431</ele>
        <time>2013-02-14T13:22:01.000Z</time>
      </trkpt>
      <trkpt lat="43.60729" lon="5.4731">
        <ele>430.79998779297</ele>
        <time>2013-02-14T13:22:14.000Z</time>
      </trkpt>
      <trkpt lat="43.60728" lon="5.47312">
        <ele>430.60000610352</ele>
        <time>2013-02-14T13:22:30.000Z</time>
      </trkpt>
      <trkpt lat="43.60725" lon="5.47312">
        <ele>430.60000610352</ele>
        <time>2013-02-14T13:22:41.000Z</time>
      </trkpt>
      <trkpt lat="43.60723" lon="5.47312">
        <ele>430.60000610352</ele>
        <time>2013-02-14T13:22:42.000Z</time>
      </trkpt>
      <trkpt lat="43.607" lon="5.47314">
        <ele>430.60000610352</ele>
        <time>2013-02-14T13:22:53.000Z</time>
      </trkpt>
      <trkpt lat="43.60679" lon="5.47312">
        <ele>431</ele>
        <time>2013-02-14T13:23:03.000Z</time>
      </trkpt>
      <trkpt lat="43.60656" lon="5.4731">
        <ele>430.60000610352</ele>
        <time>2013-02-14T13:23:14.000Z</time>
      </trkpt>
      <trkpt lat="43.60631" lon="5.47304">
        <ele>429.79998779297</ele>
        <time>2013-02-14T13:23:25.000Z</time>
      </trkpt>
      <trkpt lat="43.60614" lon="5.47295">
        <ele>429.39999389648</ele>
        <time>2013-02-14T13:23:33.000Z</time>
      </trkpt>
      <trkpt lat="43.60591" lon="5.4728">
        <ele>428</ele>
        <time>2013-02-14T13:23:45.000Z</time>
      </trkpt>
      <trkpt lat="43.60583" lon="5.47274">
        <ele>427.60000610352</ele>
        <time>2013-02-14T13:23:49.000Z</time>
      </trkpt>
      <trkpt lat="43.60584" lon="5.47269">
        <ele>427.60000610352</ele>
        <time>2013-02-14T13:23:52.000Z</time>
      </trkpt>
      <trkpt lat="43.60585" lon="5.47268">
        <ele>427.79998779297</ele>
        <time>2013-02-14T13:23:53.000Z</time>
      </trkpt>
      <trkpt lat="43.60586" lon="5.47267">
        <ele>428</ele>
        <time>2013-02-14T13:23:54.000Z</time>
      </trkpt>
      <trkpt lat="43.60587" lon="5.47267">
        <ele>428</ele>
        <time>2013-02-14T13:23:55.000Z</time>
      </trkpt>
      <trkpt lat="43.60589" lon="5.47267">
        <ele>428.20001220703</ele>
        <time>2013-02-14T13:23:56.000Z</time>
      </trkpt>
      <trkpt lat="43.6059" lon="5.47267">
        <ele>428.39999389648</ele>
        <time>2013-02-14T13:23:57.000Z</time>
      </trkpt>
      <trkpt lat="43.60592" lon="5.47267">
        <ele>428.39999389648</ele>
        <time>2013-02-14T13:23:58.000Z</time>
      </trkpt>
      <trkpt lat="43.60609" lon="5.47269">
        <ele>430</ele>
        <time>2013-02-14T13:24:06.000Z</time>
      </trkpt>
      <trkpt lat="43.60619" lon="5.47267">
        <ele>430.79998779297</ele>
        <time>2013-02-14T13:24:16.000Z</time>
      </trkpt>
      <trkpt lat="43.60618" lon="5.47263">
        <ele>431</ele>
        <time>2013-02-14T13:24:25.000Z</time>
      </trkpt>
      <trkpt lat="43.60619" lon="5.47262">
        <ele>431.20001220703</ele>
        <time>2013-02-14T13:24:36.000Z</time>
      </trkpt>
      <trkpt lat="43.60619" lon="5.47262">
        <ele>431.20001220703</ele>
        <time>2013-02-14T13:24:53.000Z</time>
      </trkpt>
      <trkpt lat="43.60618" lon="5.47262">
        <ele>431</ele>
        <time>2013-02-14T13:25:08.000Z</time>
      </trkpt>
      <trkpt lat="43.60619" lon="5.47261">
        <ele>431.20001220703</ele>
        <time>2013-02-14T13:25:19.000Z</time>
      </trkpt>
      <trkpt lat="43.60619" lon="5.47263">
        <ele>431</ele>
        <time>2013-02-14T13:25:33.000Z</time>
      </trkpt>
      <trkpt lat="43.60619" lon="5.47262">
        <ele>431.20001220703</ele>
        <time>2013-02-14T13:25:57.000Z</time>
      </trkpt>
      <trkpt lat="43.60618" lon="5.47265">
        <ele>430.79998779297</ele>
        <time>2013-02-14T13:26:19.000Z</time>
      </trkpt>
      <trkpt lat="43.60617" lon="5.47264">
        <ele>431</ele>
        <time>2013-02-14T13:26:53.000Z</time>
      </trkpt>
      <trkpt lat="43.60619" lon="5.47264">
        <ele>431.20001220703</ele>
        <time>2013-02-14T13:27:20.000Z</time>
      </trkpt>
      <trkpt lat="43.60621" lon="5.47264">
        <ele>431.20001220703</ele>
        <time>2013-02-14T13:27:21.000Z</time>
      </trkpt>
      <trkpt lat="43.60622" lon="5.47264">
        <ele>431.39999389648</ele>
        <time>2013-02-14T13:27:22.000Z</time>
      </trkpt>
      <trkpt lat="43.60623" lon="5.47264">
        <ele>431.39999389648</ele>
        <time>2013-02-14T13:27:23.000Z</time>
      </trkpt>
      <trkpt lat="43.60625" lon="5.47265">
        <ele>431.60000610352</ele>
        <time>2013-02-14T13:27:24.000Z</time>
      </trkpt>
      <trkpt lat="43.60626" lon="5.47265">
        <ele>431.79998779297</ele>
        <time>2013-02-14T13:27:25.000Z</time>
      </trkpt>
      <trkpt lat="43.60651" lon="5.47263">
        <ele>434.20001220703</ele>
        <time>2013-02-14T13:27:38.000Z</time>
      </trkpt>
      <trkpt lat="43.60676" lon="5.47258">
        <ele>436.20001220703</ele>
        <time>2013-02-14T13:27:50.000Z</time>
      </trkpt>
      <trkpt lat="43.60701" lon="5.47254">
        <ele>437</ele>
        <time>2013-02-14T13:28:01.000Z</time>
      </trkpt>
      <trkpt lat="43.60734" lon="5.47247">
        <ele>437.79998779297</ele>
        <time>2013-02-14T13:28:15.000Z</time>
      </trkpt>
      <trkpt lat="43.60752" lon="5.4724">
        <ele>438.39999389648</ele>
        <time>2013-02-14T13:28:24.000Z</time>
      </trkpt>
      <trkpt lat="43.60759" lon="5.47238">
        <ele>438.60000610352</ele>
        <time>2013-02-14T13:28:29.000Z</time>
      </trkpt>
      <trkpt lat="43.60761" lon="5.47238">
        <ele>438.60000610352</ele>
        <time>2013-02-14T13:28:39.000Z</time>
      </trkpt>
      <trkpt lat="43.60763" lon="5.47239">
        <ele>438.39999389648</ele>
        <time>2013-02-14T13:28:47.000Z</time>
      </trkpt>
      <trkpt lat="43.60764" lon="5.47239">
        <ele>438.39999389648</ele>
        <time>2013-02-14T13:28:48.000Z</time>
      </trkpt>
      <trkpt lat="43.60766" lon="5.47239">
        <ele>438.39999389648</ele>
        <time>2013-02-14T13:28:49.000Z</time>
      </trkpt>
      <trkpt lat="43.60788" lon="5.47231">
        <ele>438.79998779297</ele>
        <time>2013-02-14T13:29:01.000Z</time>
      </trkpt>
      <trkpt lat="43.60807" lon="5.47226">
        <ele>439</ele>
        <time>2013-02-14T13:29:11.000Z</time>
      </trkpt>
      <trkpt lat="43.60814" lon="5.47223">
        <ele>439.20001220703</ele>
        <time>2013-02-14T13:29:14.000Z</time>
      </trkpt>
      <trkpt lat="43.60816" lon="5.47223">
        <ele>439.20001220703</ele>
        <time>2013-02-14T13:29:15.000Z</time>
      </trkpt>
      <trkpt lat="43.60831" lon="5.47219">
        <ele>439.60000610352</ele>
        <time>2013-02-14T13:29:23.000Z</time>
      </trkpt>
      <trkpt lat="43.60832" lon="5.47218">
        <ele>439.60000610352</ele>
        <time>2013-02-14T13:29:24.000Z</time>
      </trkpt>
      <trkpt lat="43.60834" lon="5.47217">
        <ele>439.79998779297</ele>
        <time>2013-02-14T13:29:25.000Z</time>
      </trkpt>
      <trkpt lat="43.60836" lon="5.47216">
        <ele>439.79998779297</ele>
        <time>2013-02-14T13:29:26.000Z</time>
      </trkpt>
      <trkpt lat="43.60838" lon="5.47215">
        <ele>440</ele>
        <time>2013-02-14T13:29:27.000Z</time>
      </trkpt>
      <trkpt lat="43.60857" lon="5.47213">
        <ele>441.20001220703</ele>
        <time>2013-02-14T13:29:37.000Z</time>
      </trkpt>
      <trkpt lat="43.60883" lon="5.47203">
        <ele>443.20001220703</ele>
        <time>2013-02-14T13:29:51.000Z</time>
      </trkpt>
      <trkpt lat="43.60904" lon="5.47198">
        <ele>444.39999389648</ele>
        <time>2013-02-14T13:30:02.000Z</time>
      </trkpt>
      <trkpt lat="43.60926" lon="5.47198">
        <ele>444.60000610352</ele>
        <time>2013-02-14T13:30:13.000Z</time>
      </trkpt>
      <trkpt lat="43.60954" lon="5.47196">
        <ele>443.60000610352</ele>
        <time>2013-02-14T13:30:26.000Z</time>
      </trkpt>
      <trkpt lat="43.60973" lon="5.47182">
        <ele>444.20001220703</ele>
        <time>2013-02-14T13:30:36.000Z</time>
      </trkpt>
      <trkpt lat="43.60992" lon="5.47162">
        <ele>445</ele>
        <time>2013-02-14T13:30:45.000Z</time>
      </trkpt>
      <trkpt lat="43.60998" lon="5.47155">
        <ele>445</ele>
        <time>2013-02-14T13:30:47.000Z</time>
      </trkpt>
      <trkpt lat="43.61008" lon="5.47141">
        <ele>442.79998779297</ele>
        <time>2013-02-14T13:30:50.000Z</time>
      </trkpt>
      <trkpt lat="43.61027" lon="5.47116">
        <ele>438.20001220703</ele>
        <time>2013-02-14T13:30:55.000Z</time>
      </trkpt>
      <trkpt lat="43.61035" lon="5.47103">
        <ele>436.79998779297</ele>
        <time>2013-02-14T13:30:57.000Z</time>
      </trkpt>
      <trkpt lat="43.6105" lon="5.47077">
        <ele>434.60000610352</ele>
        <time>2013-02-14T13:31:00.000Z</time>
      </trkpt>
      <trkpt lat="43.61069" lon="5.47043">
        <ele>430.79998779297</ele>
        <time>2013-02-14T13:31:03.000Z</time>
      </trkpt>
      <trkpt lat="43.61088" lon="5.47005">
        <ele>428</ele>
        <time>2013-02-14T13:31:06.000Z</time>
      </trkpt>
      <trkpt lat="43.61105" lon="5.46966">
        <ele>424.20001220703</ele>
        <time>2013-02-14T13:31:09.000Z</time>
      </trkpt>
      <trkpt lat="43.61128" lon="5.46916">
        <ele>421.60000610352</ele>
        <time>2013-02-14T13:31:13.000Z</time>
      </trkpt>
      <trkpt lat="43.61142" lon="5.46885">
        <ele>419.39999389648</ele>
        <time>2013-02-14T13:31:16.000Z</time>
      </trkpt>
      <trkpt lat="43.61147" lon="5.46867">
        <ele>418.60000610352</ele>
        <time>2013-02-14T13:31:19.000Z</time>
      </trkpt>
      <trkpt lat="43.61146" lon="5.46863">
        <ele>418.60000610352</ele>
        <time>2013-02-14T13:31:20.000Z</time>
      </trkpt>
      <trkpt lat="43.61144" lon="5.46859">
        <ele>418.60000610352</ele>
        <time>2013-02-14T13:31:21.000Z</time>
      </trkpt>
      <trkpt lat="43.61142" lon="5.46856">
        <ele>418.60000610352</ele>
        <time>2013-02-14T13:31:22.000Z</time>
      </trkpt>
      <trkpt lat="43.6114" lon="5.46854">
        <ele>418.60000610352</ele>
        <time>2013-02-14T13:31:23.000Z</time>
      </trkpt>
      <trkpt lat="43.61138" lon="5.46853">
        <ele>418.60000610352</ele>
        <time>2013-02-14T13:31:24.000Z</time>
      </trkpt>
      <trkpt lat="43.61135" lon="5.46848">
        <ele>418.39999389648</ele>
        <time>2013-02-14T13:31:32.000Z</time>
      </trkpt>
      <trkpt lat="43.61135" lon="5.46849">
        <ele>418.39999389648</ele>
        <time>2013-02-14T13:31:48.000Z</time>
      </trkpt>
      <trkpt lat="43.61135" lon="5.46845">
        <ele>418.39999389648</ele>
        <time>2013-02-14T13:31:58.000Z</time>
      </trkpt>
      <trkpt lat="43.61133" lon="5.46845">
        <ele>418.39999389648</ele>
        <time>2013-02-14T13:31:59.000Z</time>
      </trkpt>
      <trkpt lat="43.61131" lon="5.46843">
        <ele>418.39999389648</ele>
        <time>2013-02-14T13:32:00.000Z</time>
      </trkpt>
      <trkpt lat="43.61129" lon="5.46841">
        <ele>418.20001220703</ele>
        <time>2013-02-14T13:32:01.000Z</time>
      </trkpt>
      <trkpt lat="43.61128" lon="5.46839">
        <ele>418.20001220703</ele>
        <time>2013-02-14T13:32:02.000Z</time>
      </trkpt>
      <trkpt lat="43.61126" lon="5.46835">
        <ele>418</ele>
        <time>2013-02-14T13:32:03.000Z</time>
      </trkpt>
      <trkpt lat="43.61119" lon="5.46807">
        <ele>418.39999389648</ele>
        <time>2013-02-14T13:32:10.000Z</time>
      </trkpt>
      <trkpt lat="43.6112" lon="5.46805">
        <ele>418.60000610352</ele>
        <time>2013-02-14T13:32:11.000Z</time>
      </trkpt>
      <trkpt lat="43.61122" lon="5.46806">
        <ele>418.60000610352</ele>
        <time>2013-02-14T13:32:19.000Z</time>
      </trkpt>
      <trkpt lat="43.61126" lon="5.46808">
        <ele>418.60000610352</ele>
        <time>2013-02-14T13:32:35.000Z</time>
      </trkpt>
      <trkpt lat="43.61127" lon="5.46808">
        <ele>418.60000610352</ele>
        <time>2013-02-14T13:32:36.000Z</time>
      </trkpt>
      <trkpt lat="43.61141" lon="5.46817">
        <ele>418.39999389648</ele>
        <time>2013-02-14T13:32:46.000Z</time>
      </trkpt>
      <trkpt lat="43.61143" lon="5.46817">
        <ele>418.39999389648</ele>
        <time>2013-02-14T13:32:47.000Z</time>
      </trkpt>
      <trkpt lat="43.61144" lon="5.46818">
        <ele>418.39999389648</ele>
        <time>2013-02-14T13:32:48.000Z</time>
      </trkpt>
      <trkpt lat="43.61146" lon="5.46819">
        <ele>418.39999389648</ele>
        <time>2013-02-14T13:32:49.000Z</time>
      </trkpt>
      <trkpt lat="43.61166" lon="5.46818">
        <ele>418.39999389648</ele>
        <time>2013-02-14T13:32:58.000Z</time>
      </trkpt>
      <trkpt lat="43.6118" lon="5.46798">
        <ele>417.20001220703</ele>
        <time>2013-02-14T13:33:07.000Z</time>
      </trkpt>
      <trkpt lat="43.61198" lon="5.46776">
        <ele>416.20001220703</ele>
        <time>2013-02-14T13:33:17.000Z</time>
      </trkpt>
      <trkpt lat="43.61216" lon="5.46746">
        <ele>417.20001220703</ele>
        <time>2013-02-14T13:33:28.000Z</time>
      </trkpt>
      <trkpt lat="43.6123" lon="5.4672">
        <ele>418.79998779297</ele>
        <time>2013-02-14T13:33:37.000Z</time>
      </trkpt>
      <trkpt lat="43.61244" lon="5.46679">
        <ele>423.39999389648</ele>
        <time>2013-02-14T13:33:50.000Z</time>
      </trkpt>
      <trkpt lat="43.61257" lon="5.46637">
        <ele>425.39999389648</ele>
        <time>2013-02-14T13:34:00.000Z</time>
      </trkpt>
      <trkpt lat="43.61272" lon="5.46597">
        <ele>426.20001220703</ele>
        <time>2013-02-14T13:34:09.000Z</time>
      </trkpt>
      <trkpt lat="43.61282" lon="5.46563">
        <ele>428</ele>
        <time>2013-02-14T13:34:19.000Z</time>
      </trkpt>
      <trkpt lat="43.61293" lon="5.46537">
        <ele>429.79998779297</ele>
        <time>2013-02-14T13:34:27.000Z</time>
      </trkpt>
      <trkpt lat="43.61318" lon="5.46489">
        <ele>434.39999389648</ele>
        <time>2013-02-14T13:34:41.000Z</time>
      </trkpt>
      <trkpt lat="43.61339" lon="5.46458">
        <ele>435.79998779297</ele>
        <time>2013-02-14T13:34:52.000Z</time>
      </trkpt>
      <trkpt lat="43.61348" lon="5.4644">
        <ele>435.79998779297</ele>
        <time>2013-02-14T13:34:58.000Z</time>
      </trkpt>
      <trkpt lat="43.61348" lon="5.46437">
        <ele>436.20001220703</ele>
        <time>2013-02-14T13:34:59.000Z</time>
      </trkpt>
      <trkpt lat="43.61347" lon="5.46434">
        <ele>436.79998779297</ele>
        <time>2013-02-14T13:35:00.000Z</time>
      </trkpt>
      <trkpt lat="43.61346" lon="5.46431">
        <ele>437.20001220703</ele>
        <time>2013-02-14T13:35:01.000Z</time>
      </trkpt>
      <trkpt lat="43.61346" lon="5.46429">
        <ele>437.39999389648</ele>
        <time>2013-02-14T13:35:02.000Z</time>
      </trkpt>
      <trkpt lat="43.6135" lon="5.46414">
        <ele>438.39999389648</ele>
        <time>2013-02-14T13:35:06.000Z</time>
      </trkpt>
      <trkpt lat="43.61366" lon="5.46385">
        <ele>438</ele>
        <time>2013-02-14T13:35:16.000Z</time>
      </trkpt>
      <trkpt lat="43.61379" lon="5.46359">
        <ele>438.60000610352</ele>
        <time>2013-02-14T13:35:25.000Z</time>
      </trkpt>
      <trkpt lat="43.614" lon="5.46324">
        <ele>439.79998779297</ele>
        <time>2013-02-14T13:35:37.000Z</time>
      </trkpt>
      <trkpt lat="43.61414" lon="5.46304">
        <ele>440.79998779297</ele>
        <time>2013-02-14T13:35:46.000Z</time>
      </trkpt>
      <trkpt lat="43.61425" lon="5.46287">
        <ele>441.39999389648</ele>
        <time>2013-02-14T13:35:53.000Z</time>
      </trkpt>
      <trkpt lat="43.61447" lon="5.4626">
        <ele>442.20001220703</ele>
        <time>2013-02-14T13:36:06.000Z</time>
      </trkpt>
      <trkpt lat="43.6146" lon="5.46236">
        <ele>444.20001220703</ele>
        <time>2013-02-14T13:36:17.000Z</time>
      </trkpt>
      <trkpt lat="43.61461" lon="5.46235">
        <ele>444.39999389648</ele>
        <time>2013-02-14T13:36:18.000Z</time>
      </trkpt>
      <trkpt lat="43.61479" lon="5.46205">
        <ele>447.79998779297</ele>
        <time>2013-02-14T13:36:31.000Z</time>
      </trkpt>
      <trkpt lat="43.61494" lon="5.46184">
        <ele>451</ele>
        <time>2013-02-14T13:36:40.000Z</time>
      </trkpt>
      <trkpt lat="43.61516" lon="5.46157">
        <ele>453</ele>
        <time>2013-02-14T13:36:52.000Z</time>
      </trkpt>
      <trkpt lat="43.61543" lon="5.46135">
        <ele>453.20001220703</ele>
        <time>2013-02-14T13:37:05.000Z</time>
      </trkpt>
      <trkpt lat="43.61568" lon="5.46111">
        <ele>456</ele>
        <time>2013-02-14T13:37:18.000Z</time>
      </trkpt>
      <trkpt lat="43.61589" lon="5.46095">
        <ele>458</ele>
        <time>2013-02-14T13:37:28.000Z</time>
      </trkpt>
      <trkpt lat="43.61611" lon="5.46072">
        <ele>458.20001220703</ele>
        <time>2013-02-14T13:37:38.000Z</time>
      </trkpt>
      <trkpt lat="43.6163" lon="5.46053">
        <ele>458</ele>
        <time>2013-02-14T13:37:48.000Z</time>
      </trkpt>
      <trkpt lat="43.61647" lon="5.46031">
        <ele>459.39999389648</ele>
        <time>2013-02-14T13:37:59.000Z</time>
      </trkpt>
      <trkpt lat="43.61666" lon="5.46003">
        <ele>462.39999389648</ele>
        <time>2013-02-14T13:38:11.000Z</time>
      </trkpt>
      <trkpt lat="43.6168" lon="5.45972">
        <ele>463</ele>
        <time>2013-02-14T13:38:22.000Z</time>
      </trkpt>
      <trkpt lat="43.61694" lon="5.45944">
        <ele>464.39999389648</ele>
        <time>2013-02-14T13:38:32.000Z</time>
      </trkpt>
      <trkpt lat="43.61697" lon="5.45934">
        <ele>465.20001220703</ele>
        <time>2013-02-14T13:38:36.000Z</time>
      </trkpt>
      <trkpt lat="43.61697" lon="5.45932">
        <ele>465.20001220703</ele>
        <time>2013-02-14T13:38:37.000Z</time>
      </trkpt>
      <trkpt lat="43.61697" lon="5.4593">
        <ele>465.39999389648</ele>
        <time>2013-02-14T13:38:38.000Z</time>
      </trkpt>
      <trkpt lat="43.61697" lon="5.45927">
        <ele>465.60000610352</ele>
        <time>2013-02-14T13:38:39.000Z</time>
      </trkpt>
      <trkpt lat="43.61698" lon="5.45923">
        <ele>466</ele>
        <time>2013-02-14T13:38:40.000Z</time>
      </trkpt>
      <trkpt lat="43.61698" lon="5.45919">
        <ele>466.20001220703</ele>
        <time>2013-02-14T13:38:41.000Z</time>
      </trkpt>
      <trkpt lat="43.61703" lon="5.45894">
        <ele>468</ele>
        <time>2013-02-14T13:38:50.000Z</time>
      </trkpt>
      <trkpt lat="43.61708" lon="5.45861">
        <ele>470.20001220703</ele>
        <time>2013-02-14T13:39:00.000Z</time>
      </trkpt>
      <trkpt lat="43.61709" lon="5.45855">
        <ele>470.60000610352</ele>
        <time>2013-02-14T13:39:02.000Z</time>
      </trkpt>
      <trkpt lat="43.61709" lon="5.45852">
        <ele>470.79998779297</ele>
        <time>2013-02-14T13:39:03.000Z</time>
      </trkpt>
      <trkpt lat="43.61709" lon="5.45849">
        <ele>471</ele>
        <time>2013-02-14T13:39:04.000Z</time>
      </trkpt>
      <trkpt lat="43.61709" lon="5.45822">
        <ele>473</ele>
        <time>2013-02-14T13:39:14.000Z</time>
      </trkpt>
      <trkpt lat="43.61706" lon="5.45808">
        <ele>474</ele>
        <time>2013-02-14T13:39:19.000Z</time>
      </trkpt>
      <trkpt lat="43.61705" lon="5.45806">
        <ele>474.20001220703</ele>
        <time>2013-02-14T13:39:20.000Z</time>
      </trkpt>
      <trkpt lat="43.61702" lon="5.45798">
        <ele>474.79998779297</ele>
        <time>2013-02-14T13:39:24.000Z</time>
      </trkpt>
      <trkpt lat="43.61701" lon="5.45796">
        <ele>475</ele>
        <time>2013-02-14T13:39:25.000Z</time>
      </trkpt>
      <trkpt lat="43.617" lon="5.45794">
        <ele>475</ele>
        <time>2013-02-14T13:39:26.000Z</time>
      </trkpt>
      <trkpt lat="43.61699" lon="5.45792">
        <ele>475.20001220703</ele>
        <time>2013-02-14T13:39:27.000Z</time>
      </trkpt>
      <trkpt lat="43.61698" lon="5.4579">
        <ele>475.39999389648</ele>
        <time>2013-02-14T13:39:28.000Z</time>
      </trkpt>
      <trkpt lat="43.61697" lon="5.45788">
        <ele>475.60000610352</ele>
        <time>2013-02-14T13:39:29.000Z</time>
      </trkpt>
      <trkpt lat="43.61697" lon="5.45786">
        <ele>475.79998779297</ele>
        <time>2013-02-14T13:39:30.000Z</time>
      </trkpt>
      <trkpt lat="43.61696" lon="5.45783">
        <ele>475.79998779297</ele>
        <time>2013-02-14T13:39:31.000Z</time>
      </trkpt>
      <trkpt lat="43.61696" lon="5.45781">
        <ele>476</ele>
        <time>2013-02-14T13:39:32.000Z</time>
      </trkpt>
      <trkpt lat="43.61695" lon="5.45779">
        <ele>476.20001220703</ele>
        <time>2013-02-14T13:39:33.000Z</time>
      </trkpt>
      <trkpt lat="43.61688" lon="5.45762">
        <ele>477.60000610352</ele>
        <time>2013-02-14T13:39:44.000Z</time>
      </trkpt>
      <trkpt lat="43.61685" lon="5.45752">
        <ele>478.39999389648</ele>
        <time>2013-02-14T13:39:54.000Z</time>
      </trkpt>
      <trkpt lat="43.61684" lon="5.45747">
        <ele>478.79998779297</ele>
        <time>2013-02-14T13:39:58.000Z</time>
      </trkpt>
      <trkpt lat="43.61684" lon="5.45745">
        <ele>478.79998779297</ele>
        <time>2013-02-14T13:39:59.000Z</time>
      </trkpt>
      <trkpt lat="43.61683" lon="5.45739">
        <ele>479</ele>
        <time>2013-02-14T13:40:02.000Z</time>
      </trkpt>
      <trkpt lat="43.61682" lon="5.45736">
        <ele>479.20001220703</ele>
        <time>2013-02-14T13:40:03.000Z</time>
      </trkpt>
      <trkpt lat="43.61681" lon="5.45734">
        <ele>479.39999389648</ele>
        <time>2013-02-14T13:40:04.000Z</time>
      </trkpt>
      <trkpt lat="43.61681" lon="5.45731">
        <ele>479.39999389648</ele>
        <time>2013-02-14T13:40:05.000Z</time>
      </trkpt>
      <trkpt lat="43.6168" lon="5.45729">
        <ele>479.60000610352</ele>
        <time>2013-02-14T13:40:06.000Z</time>
      </trkpt>
      <trkpt lat="43.6168" lon="5.45726">
        <ele>479.60000610352</ele>
        <time>2013-02-14T13:40:07.000Z</time>
      </trkpt>
      <trkpt lat="43.61679" lon="5.45718">
        <ele>480</ele>
        <time>2013-02-14T13:40:10.000Z</time>
      </trkpt>
      <trkpt lat="43.61678" lon="5.45716">
        <ele>480.20001220703</ele>
        <time>2013-02-14T13:40:11.000Z</time>
      </trkpt>
      <trkpt lat="43.61678" lon="5.45715">
        <ele>480.20001220703</ele>
        <time>2013-02-14T13:40:12.000Z</time>
      </trkpt>
      <trkpt lat="43.61673" lon="5.45698">
        <ele>481.20001220703</ele>
        <time>2013-02-14T13:40:21.000Z</time>
      </trkpt>
      <trkpt lat="43.6167" lon="5.45685">
        <ele>481.79998779297</ele>
        <time>2013-02-14T13:40:27.000Z</time>
      </trkpt>
      <trkpt lat="43.6167" lon="5.45683">
        <ele>482</ele>
        <time>2013-02-14T13:40:28.000Z</time>
      </trkpt>
      <trkpt lat="43.61669" lon="5.45681">
        <ele>482</ele>
        <time>2013-02-14T13:40:29.000Z</time>
      </trkpt>
      <trkpt lat="43.61658" lon="5.4566">
        <ele>482</ele>
        <time>2013-02-14T13:40:40.000Z</time>
      </trkpt>
      <trkpt lat="43.61655" lon="5.45652">
        <ele>481.79998779297</ele>
        <time>2013-02-14T13:40:48.000Z</time>
      </trkpt>
      <trkpt lat="43.61654" lon="5.4565">
        <ele>481.79998779297</ele>
        <time>2013-02-14T13:40:59.000Z</time>
      </trkpt>
      <trkpt lat="43.61652" lon="5.45646">
        <ele>481.79998779297</ele>
        <time>2013-02-14T13:41:03.000Z</time>
      </trkpt>
      <trkpt lat="43.61642" lon="5.45628">
        <ele>481.20001220703</ele>
        <time>2013-02-14T13:41:12.000Z</time>
      </trkpt>
      <trkpt lat="43.61627" lon="5.45621">
        <ele>479.60000610352</ele>
        <time>2013-02-14T13:41:18.000Z</time>
      </trkpt>
      <trkpt lat="43.61625" lon="5.45619">
        <ele>479.39999389648</ele>
        <time>2013-02-14T13:41:19.000Z</time>
      </trkpt>
      <trkpt lat="43.61615" lon="5.45611">
        <ele>478.79998779297</ele>
        <time>2013-02-14T13:41:28.000Z</time>
      </trkpt>
      <trkpt lat="43.61609" lon="5.45604">
        <ele>478.39999389648</ele>
        <time>2013-02-14T13:41:37.000Z</time>
      </trkpt>
      <trkpt lat="43.61608" lon="5.45602">
        <ele>478.39999389648</ele>
        <time>2013-02-14T13:41:38.000Z</time>
      </trkpt>
      <trkpt lat="43.61608" lon="5.45599">
        <ele>478.60000610352</ele>
        <time>2013-02-14T13:41:39.000Z</time>
      </trkpt>
      <trkpt lat="43.61608" lon="5.45596">
        <ele>478.79998779297</ele>
        <time>2013-02-14T13:41:40.000Z</time>
      </trkpt>
      <trkpt lat="43.61608" lon="5.45594">
        <ele>479</ele>
        <time>2013-02-14T13:41:41.000Z</time>
      </trkpt>
      <trkpt lat="43.61605" lon="5.45577">
        <ele>479.39999389648</ele>
        <time>2013-02-14T13:41:45.000Z</time>
      </trkpt>
      <trkpt lat="43.61605" lon="5.45574">
        <ele>479.20001220703</ele>
        <time>2013-02-14T13:41:46.000Z</time>
      </trkpt>
      <trkpt lat="43.61605" lon="5.45558">
        <ele>479.39999389648</ele>
        <time>2013-02-14T13:41:52.000Z</time>
      </trkpt>
      <trkpt lat="43.61605" lon="5.45556">
        <ele>479.20001220703</ele>
        <time>2013-02-14T13:41:53.000Z</time>
      </trkpt>
      <trkpt lat="43.61604" lon="5.45553">
        <ele>479.20001220703</ele>
        <time>2013-02-14T13:41:54.000Z</time>
      </trkpt>
      <trkpt lat="43.61603" lon="5.45551">
        <ele>479.20001220703</ele>
        <time>2013-02-14T13:41:55.000Z</time>
      </trkpt>
      <trkpt lat="43.61603" lon="5.45548">
        <ele>479.20001220703</ele>
        <time>2013-02-14T13:41:56.000Z</time>
      </trkpt>
      <trkpt lat="43.61612" lon="5.45521">
        <ele>480</ele>
        <time>2013-02-14T13:42:05.000Z</time>
      </trkpt>
      <trkpt lat="43.61613" lon="5.45493">
        <ele>480</ele>
        <time>2013-02-14T13:42:11.000Z</time>
      </trkpt>
      <trkpt lat="43.61611" lon="5.45488">
        <ele>480</ele>
        <time>2013-02-14T13:42:12.000Z</time>
      </trkpt>
      <trkpt lat="43.61611" lon="5.45484">
        <ele>480</ele>
        <time>2013-02-14T13:42:13.000Z</time>
      </trkpt>
      <trkpt lat="43.6161" lon="5.45447">
        <ele>480.39999389648</ele>
        <time>2013-02-14T13:42:20.000Z</time>
      </trkpt>
      <trkpt lat="43.61609" lon="5.45416">
        <ele>480.60000610352</ele>
        <time>2013-02-14T13:42:25.000Z</time>
      </trkpt>
      <trkpt lat="43.61609" lon="5.45409">
        <ele>480.39999389648</ele>
        <time>2013-02-14T13:42:26.000Z</time>
      </trkpt>
      <trkpt lat="43.61608" lon="5.45397">
        <ele>480.20001220703</ele>
        <time>2013-02-14T13:42:28.000Z</time>
      </trkpt>
      <trkpt lat="43.61608" lon="5.45391">
        <ele>480.20001220703</ele>
        <time>2013-02-14T13:42:29.000Z</time>
      </trkpt>
      <trkpt lat="43.61607" lon="5.45372">
        <ele>479.79998779297</ele>
        <time>2013-02-14T13:42:32.000Z</time>
      </trkpt>
      <trkpt lat="43.61606" lon="5.45359">
        <ele>479.60000610352</ele>
        <time>2013-02-14T13:42:34.000Z</time>
      </trkpt>
      <trkpt lat="43.61607" lon="5.45345">
        <ele>479.39999389648</ele>
        <time>2013-02-14T13:42:36.000Z</time>
      </trkpt>
      <trkpt lat="43.61608" lon="5.45332">
        <ele>479.20001220703</ele>
        <time>2013-02-14T13:42:38.000Z</time>
      </trkpt>
      <trkpt lat="43.61608" lon="5.45325">
        <ele>479.20001220703</ele>
        <time>2013-02-14T13:42:39.000Z</time>
      </trkpt>
      <trkpt lat="43.61609" lon="5.45319">
        <ele>479.39999389648</ele>
        <time>2013-02-14T13:42:40.000Z</time>
      </trkpt>
      <trkpt lat="43.61611" lon="5.45305">
        <ele>479.60000610352</ele>
        <time>2013-02-14T13:42:42.000Z</time>
      </trkpt>
      <trkpt lat="43.61614" lon="5.45293">
        <ele>479.79998779297</ele>
        <time>2013-02-14T13:42:44.000Z</time>
      </trkpt>
      <trkpt lat="43.61614" lon="5.45286">
        <ele>479.79998779297</ele>
        <time>2013-02-14T13:42:45.000Z</time>
      </trkpt>
      <trkpt lat="43.61616" lon="5.4528">
        <ele>480</ele>
        <time>2013-02-14T13:42:46.000Z</time>
      </trkpt>
      <trkpt lat="43.61617" lon="5.45274">
        <ele>480</ele>
        <time>2013-02-14T13:42:47.000Z</time>
      </trkpt>
      <trkpt lat="43.61618" lon="5.45268">
        <ele>480.20001220703</ele>
        <time>2013-02-14T13:42:48.000Z</time>
      </trkpt>
      <trkpt lat="43.6162" lon="5.45262">
        <ele>480.20001220703</ele>
        <time>2013-02-14T13:42:49.000Z</time>
      </trkpt>
      <trkpt lat="43.61623" lon="5.45257">
        <ele>480.20001220703</ele>
        <time>2013-02-14T13:42:50.000Z</time>
      </trkpt>
      <trkpt lat="43.61642" lon="5.45216">
        <ele>480.60000610352</ele>
        <time>2013-02-14T13:42:57.000Z</time>
      </trkpt>
      <trkpt lat="43.61656" lon="5.45186">
        <ele>481.20001220703</ele>
        <time>2013-02-14T13:43:03.000Z</time>
      </trkpt>
      <trkpt lat="43.61658" lon="5.45186">
        <ele>481.20001220703</ele>
        <time>2013-02-14T13:43:04.000Z</time>
      </trkpt>
      <trkpt lat="43.61668" lon="5.45191">
        <ele>480.79998779297</ele>
        <time>2013-02-14T13:43:07.000Z</time>
      </trkpt>
      <trkpt lat="43.61671" lon="5.45191">
        <ele>480.39999389648</ele>
        <time>2013-02-14T13:43:08.000Z</time>
      </trkpt>
      <trkpt lat="43.61673" lon="5.45192">
        <ele>480</ele>
        <time>2013-02-14T13:43:09.000Z</time>
      </trkpt>
      <trkpt lat="43.61679" lon="5.45195">
        <ele>479.20001220703</ele>
        <time>2013-02-14T13:43:12.000Z</time>
      </trkpt>
      <trkpt lat="43.6168" lon="5.45194">
        <ele>479</ele>
        <time>2013-02-14T13:43:13.000Z</time>
      </trkpt>
      <trkpt lat="43.61697" lon="5.45179">
        <ele>477.60000610352</ele>
        <time>2013-02-14T13:43:21.000Z</time>
      </trkpt>
      <trkpt lat="43.61725" lon="5.45151">
        <ele>475.79998779297</ele>
        <time>2013-02-14T13:43:33.000Z</time>
      </trkpt>
      <trkpt lat="43.61739" lon="5.45141">
        <ele>475.39999389648</ele>
        <time>2013-02-14T13:43:40.000Z</time>
      </trkpt>
      <trkpt lat="43.61758" lon="5.45134">
        <ele>474.60000610352</ele>
        <time>2013-02-14T13:43:48.000Z</time>
      </trkpt>
      <trkpt lat="43.61783" lon="5.45116">
        <ele>474.79998779297</ele>
        <time>2013-02-14T13:43:59.000Z</time>
      </trkpt>
      <trkpt lat="43.61807" lon="5.45101">
        <ele>475.60000610352</ele>
        <time>2013-02-14T13:44:08.000Z</time>
      </trkpt>
      <trkpt lat="43.61832" lon="5.45088">
        <ele>476.79998779297</ele>
        <time>2013-02-14T13:44:18.000Z</time>
      </trkpt>
      <trkpt lat="43.61859" lon="5.45075">
        <ele>477.20001220703</ele>
        <time>2013-02-14T13:44:28.000Z</time>
      </trkpt>
      <trkpt lat="43.61887" lon="5.4506">
        <ele>477.60000610352</ele>
        <time>2013-02-14T13:44:39.000Z</time>
      </trkpt>
      <trkpt lat="43.61915" lon="5.45043">
        <ele>479.20001220703</ele>
        <time>2013-02-14T13:44:51.000Z</time>
      </trkpt>
      <trkpt lat="43.61937" lon="5.45032">
        <ele>479.60000610352</ele>
        <time>2013-02-14T13:45:01.000Z</time>
      </trkpt>
      <trkpt lat="43.61938" lon="5.45029">
        <ele>480.20001220703</ele>
        <time>2013-02-14T13:45:02.000Z</time>
      </trkpt>
      <trkpt lat="43.61941" lon="5.45018">
        <ele>482</ele>
        <time>2013-02-14T13:45:06.000Z</time>
      </trkpt>
      <trkpt lat="43.61943" lon="5.45018">
        <ele>481.79998779297</ele>
        <time>2013-02-14T13:45:07.000Z</time>
      </trkpt>
      <trkpt lat="43.61945" lon="5.45018">
        <ele>481.79998779297</ele>
        <time>2013-02-14T13:45:08.000Z</time>
      </trkpt>
      <trkpt lat="43.61947" lon="5.45018">
        <ele>481.79998779297</ele>
        <time>2013-02-14T13:45:09.000Z</time>
      </trkpt>
      <trkpt lat="43.61949" lon="5.45017">
        <ele>481.79998779297</ele>
        <time>2013-02-14T13:45:10.000Z</time>
      </trkpt>
      <trkpt lat="43.61951" lon="5.45016">
        <ele>482</ele>
        <time>2013-02-14T13:45:11.000Z</time>
      </trkpt>
      <trkpt lat="43.61953" lon="5.45014">
        <ele>482.20001220703</ele>
        <time>2013-02-14T13:45:12.000Z</time>
      </trkpt>
      <trkpt lat="43.61955" lon="5.45013">
        <ele>482.39999389648</ele>
        <time>2013-02-14T13:45:13.000Z</time>
      </trkpt>
      <trkpt lat="43.61958" lon="5.45012">
        <ele>482.39999389648</ele>
        <time>2013-02-14T13:45:14.000Z</time>
      </trkpt>
      <trkpt lat="43.6196" lon="5.45012">
        <ele>482.39999389648</ele>
        <time>2013-02-14T13:45:15.000Z</time>
      </trkpt>
      <trkpt lat="43.61962" lon="5.45012">
        <ele>482.39999389648</ele>
        <time>2013-02-14T13:45:16.000Z</time>
      </trkpt>
      <trkpt lat="43.6198" lon="5.44999">
        <ele>484.39999389648</ele>
        <time>2013-02-14T13:45:25.000Z</time>
      </trkpt>
      <trkpt lat="43.62004" lon="5.44982">
        <ele>484.60000610352</ele>
        <time>2013-02-14T13:45:36.000Z</time>
      </trkpt>
      <trkpt lat="43.62027" lon="5.44966">
        <ele>483.79998779297</ele>
        <time>2013-02-14T13:45:47.000Z</time>
      </trkpt>
      <trkpt lat="43.62044" lon="5.4495">
        <ele>484.79998779297</ele>
        <time>2013-02-14T13:45:57.000Z</time>
      </trkpt>
      <trkpt lat="43.6205" lon="5.44944">
        <ele>485.39999389648</ele>
        <time>2013-02-14T13:46:03.000Z</time>
      </trkpt>
      <trkpt lat="43.62051" lon="5.44943">
        <ele>485.39999389648</ele>
        <time>2013-02-14T13:46:04.000Z</time>
      </trkpt>
      <trkpt lat="43.62053" lon="5.44943">
        <ele>485.39999389648</ele>
        <time>2013-02-14T13:46:05.000Z</time>
      </trkpt>
      <trkpt lat="43.62054" lon="5.44942">
        <ele>485.39999389648</ele>
        <time>2013-02-14T13:46:06.000Z</time>
      </trkpt>
      <trkpt lat="43.62055" lon="5.44941">
        <ele>485.60000610352</ele>
        <time>2013-02-14T13:46:07.000Z</time>
      </trkpt>
      <trkpt lat="43.62056" lon="5.4494">
        <ele>485.60000610352</ele>
        <time>2013-02-14T13:46:08.000Z</time>
      </trkpt>
      <trkpt lat="43.62061" lon="5.44941">
        <ele>485.39999389648</ele>
        <time>2013-02-14T13:46:17.000Z</time>
      </trkpt>
      <trkpt lat="43.62063" lon="5.44942">
        <ele>485</ele>
        <time>2013-02-14T13:46:33.000Z</time>
      </trkpt>
      <trkpt lat="43.62065" lon="5.44941">
        <ele>485.20001220703</ele>
        <time>2013-02-14T13:46:45.000Z</time>
      </trkpt>
      <trkpt lat="43.62064" lon="5.44941">
        <ele>485.39999389648</ele>
        <time>2013-02-14T13:47:07.000Z</time>
      </trkpt>
      <trkpt lat="43.62074" lon="5.44935">
        <ele>486.20001220703</ele>
        <time>2013-02-14T13:47:19.000Z</time>
      </trkpt>
      <trkpt lat="43.62096" lon="5.44915">
        <ele>489.39999389648</ele>
        <time>2013-02-14T13:47:29.000Z</time>
      </trkpt>
      <trkpt lat="43.6212" lon="5.44906">
        <ele>488.79998779297</ele>
        <time>2013-02-14T13:47:38.000Z</time>
      </trkpt>
      <trkpt lat="43.62153" lon="5.44887">
        <ele>488</ele>
        <time>2013-02-14T13:47:49.000Z</time>
      </trkpt>
      <trkpt lat="43.62179" lon="5.44888">
        <ele>486.60000610352</ele>
        <time>2013-02-14T13:47:58.000Z</time>
      </trkpt>
      <trkpt lat="43.62185" lon="5.44905">
        <ele>485.60000610352</ele>
        <time>2013-02-14T13:48:03.000Z</time>
      </trkpt>
      <trkpt lat="43.62187" lon="5.44907">
        <ele>485.20001220703</ele>
        <time>2013-02-14T13:48:04.000Z</time>
      </trkpt>
      <trkpt lat="43.62189" lon="5.44909">
        <ele>485</ele>
        <time>2013-02-14T13:48:05.000Z</time>
      </trkpt>
      <trkpt lat="43.62192" lon="5.4491">
        <ele>484.79998779297</ele>
        <time>2013-02-14T13:48:06.000Z</time>
      </trkpt>
      <trkpt lat="43.62195" lon="5.44911">
        <ele>484.39999389648</ele>
        <time>2013-02-14T13:48:07.000Z</time>
      </trkpt>
      <trkpt lat="43.62203" lon="5.44913">
        <ele>483.60000610352</ele>
        <time>2013-02-14T13:48:09.000Z</time>
      </trkpt>
      <trkpt lat="43.62221" lon="5.4492">
        <ele>480.60000610352</ele>
        <time>2013-02-14T13:48:13.000Z</time>
      </trkpt>
      <trkpt lat="43.62236" lon="5.44921">
        <ele>479</ele>
        <time>2013-02-14T13:48:16.000Z</time>
      </trkpt>
      <trkpt lat="43.62279" lon="5.44909">
        <ele>473.79998779297</ele>
        <time>2013-02-14T13:48:27.000Z</time>
      </trkpt>
      <trkpt lat="43.6229" lon="5.44897">
        <ele>473.39999389648</ele>
        <time>2013-02-14T13:48:33.000Z</time>
      </trkpt>
      <trkpt lat="43.62292" lon="5.44892">
        <ele>473.79998779297</ele>
        <time>2013-02-14T13:48:37.000Z</time>
      </trkpt>
      <trkpt lat="43.62292" lon="5.44889">
        <ele>474</ele>
        <time>2013-02-14T13:48:38.000Z</time>
      </trkpt>
      <trkpt lat="43.62292" lon="5.44887">
        <ele>474.39999389648</ele>
        <time>2013-02-14T13:48:39.000Z</time>
      </trkpt>
      <trkpt lat="43.62291" lon="5.44884">
        <ele>475</ele>
        <time>2013-02-14T13:48:40.000Z</time>
      </trkpt>
      <trkpt lat="43.62291" lon="5.44881">
        <ele>475.60000610352</ele>
        <time>2013-02-14T13:48:41.000Z</time>
      </trkpt>
      <trkpt lat="43.6229" lon="5.44877">
        <ele>476</ele>
        <time>2013-02-14T13:48:42.000Z</time>
      </trkpt>
      <trkpt lat="43.6229" lon="5.44874">
        <ele>476.60000610352</ele>
        <time>2013-02-14T13:48:43.000Z</time>
      </trkpt>
      <trkpt lat="43.62289" lon="5.44871">
        <ele>477.20001220703</ele>
        <time>2013-02-14T13:48:44.000Z</time>
      </trkpt>
      <trkpt lat="43.62283" lon="5.44838">
        <ele>482</ele>
        <time>2013-02-14T13:48:53.000Z</time>
      </trkpt>
      <trkpt lat="43.62277" lon="5.44803">
        <ele>482.79998779297</ele>
        <time>2013-02-14T13:49:02.000Z</time>
      </trkpt>
      <trkpt lat="43.6227" lon="5.44757">
        <ele>482.79998779297</ele>
        <time>2013-02-14T13:49:13.000Z</time>
      </trkpt>
      <trkpt lat="43.6226" lon="5.44707">
        <ele>483.39999389648</ele>
        <time>2013-02-14T13:49:24.000Z</time>
      </trkpt>
      <trkpt lat="43.62254" lon="5.4466">
        <ele>483.39999389648</ele>
        <time>2013-02-14T13:49:33.000Z</time>
      </trkpt>
      <trkpt lat="43.62247" lon="5.44626">
        <ele>482.39999389648</ele>
        <time>2013-02-14T13:49:39.000Z</time>
      </trkpt>
      <trkpt lat="43.62246" lon="5.4462">
        <ele>482.20001220703</ele>
        <time>2013-02-14T13:49:40.000Z</time>
      </trkpt>
      <trkpt lat="43.62244" lon="5.44615">
        <ele>482</ele>
        <time>2013-02-14T13:49:41.000Z</time>
      </trkpt>
      <trkpt lat="43.62242" lon="5.44609">
        <ele>481.60000610352</ele>
        <time>2013-02-14T13:49:42.000Z</time>
      </trkpt>
      <trkpt lat="43.6224" lon="5.44604">
        <ele>481.39999389648</ele>
        <time>2013-02-14T13:49:43.000Z</time>
      </trkpt>
      <trkpt lat="43.62238" lon="5.446">
        <ele>481.20001220703</ele>
        <time>2013-02-14T13:49:44.000Z</time>
      </trkpt>
      <trkpt lat="43.62237" lon="5.44597">
        <ele>481</ele>
        <time>2013-02-14T13:49:45.000Z</time>
      </trkpt>
      <trkpt lat="43.62238" lon="5.44593">
        <ele>481</ele>
        <time>2013-02-14T13:49:46.000Z</time>
      </trkpt>
      <trkpt lat="43.62239" lon="5.44578">
        <ele>480.39999389648</ele>
        <time>2013-02-14T13:49:50.000Z</time>
      </trkpt>
      <trkpt lat="43.62237" lon="5.44572">
        <ele>480.20001220703</ele>
        <time>2013-02-14T13:49:54.000Z</time>
      </trkpt>
      <trkpt lat="43.62237" lon="5.44569">
        <ele>480.20001220703</ele>
        <time>2013-02-14T13:49:55.000Z</time>
      </trkpt>
      <trkpt lat="43.62237" lon="5.44567">
        <ele>480</ele>
        <time>2013-02-14T13:49:56.000Z</time>
      </trkpt>
      <trkpt lat="43.62237" lon="5.44565">
        <ele>480</ele>
        <time>2013-02-14T13:49:57.000Z</time>
      </trkpt>
      <trkpt lat="43.62236" lon="5.44562">
        <ele>479.79998779297</ele>
        <time>2013-02-14T13:49:58.000Z</time>
      </trkpt>
      <trkpt lat="43.62236" lon="5.4456">
        <ele>479.79998779297</ele>
        <time>2013-02-14T13:49:59.000Z</time>
      </trkpt>
      <trkpt lat="43.62236" lon="5.44557">
        <ele>479.60000610352</ele>
        <time>2013-02-14T13:50:00.000Z</time>
      </trkpt>
      <trkpt lat="43.62235" lon="5.44554">
        <ele>479.60000610352</ele>
        <time>2013-02-14T13:50:01.000Z</time>
      </trkpt>
      <trkpt lat="43.62228" lon="5.44524">
        <ele>478.39999389648</ele>
        <time>2013-02-14T13:50:07.000Z</time>
      </trkpt>
      <trkpt lat="43.62226" lon="5.44518">
        <ele>478.20001220703</ele>
        <time>2013-02-14T13:50:08.000Z</time>
      </trkpt>
      <trkpt lat="43.62222" lon="5.44505">
        <ele>477.79998779297</ele>
        <time>2013-02-14T13:50:10.000Z</time>
      </trkpt>
      <trkpt lat="43.62219" lon="5.4449">
        <ele>476.79998779297</ele>
        <time>2013-02-14T13:50:12.000Z</time>
      </trkpt>
      <trkpt lat="43.62218" lon="5.44484">
        <ele>476.20001220703</ele>
        <time>2013-02-14T13:50:13.000Z</time>
      </trkpt>
      <trkpt lat="43.62216" lon="5.44477">
        <ele>475.79998779297</ele>
        <time>2013-02-14T13:50:14.000Z</time>
      </trkpt>
      <trkpt lat="43.62214" lon="5.4447">
        <ele>475.20001220703</ele>
        <time>2013-02-14T13:50:15.000Z</time>
      </trkpt>
      <trkpt lat="43.62213" lon="5.44462">
        <ele>474.60000610352</ele>
        <time>2013-02-14T13:50:16.000Z</time>
      </trkpt>
      <trkpt lat="43.62212" lon="5.44454">
        <ele>474</ele>
        <time>2013-02-14T13:50:17.000Z</time>
      </trkpt>
      <trkpt lat="43.62206" lon="5.44428">
        <ele>472.20001220703</ele>
        <time>2013-02-14T13:50:21.000Z</time>
      </trkpt>
      <trkpt lat="43.62203" lon="5.44424">
        <ele>472</ele>
        <time>2013-02-14T13:50:22.000Z</time>
      </trkpt>
      <trkpt lat="43.62197" lon="5.44412">
        <ele>471.20001220703</ele>
        <time>2013-02-14T13:50:27.000Z</time>
      </trkpt>
      <trkpt lat="43.62193" lon="5.44384">
        <ele>469.39999389648</ele>
        <time>2013-02-14T13:50:35.000Z</time>
      </trkpt>
      <trkpt lat="43.62188" lon="5.44368">
        <ele>468.39999389648</ele>
        <time>2013-02-14T13:50:42.000Z</time>
      </trkpt>
      <trkpt lat="43.62185" lon="5.44356">
        <ele>467.79998779297</ele>
        <time>2013-02-14T13:50:45.000Z</time>
      </trkpt>
      <trkpt lat="43.62181" lon="5.44347">
        <ele>467.20001220703</ele>
        <time>2013-02-14T13:50:48.000Z</time>
      </trkpt>
      <trkpt lat="43.62173" lon="5.44323">
        <ele>466</ele>
        <time>2013-02-14T13:50:57.000Z</time>
      </trkpt>
      <trkpt lat="43.62169" lon="5.44307">
        <ele>464.79998779297</ele>
        <time>2013-02-14T13:51:02.000Z</time>
      </trkpt>
      <trkpt lat="43.62169" lon="5.44297">
        <ele>464.20001220703</ele>
        <time>2013-02-14T13:51:05.000Z</time>
      </trkpt>
      <trkpt lat="43.6217" lon="5.44288">
        <ele>463.60000610352</ele>
        <time>2013-02-14T13:51:07.000Z</time>
      </trkpt>
      <trkpt lat="43.62167" lon="5.44275">
        <ele>462.60000610352</ele>
        <time>2013-02-14T13:51:10.000Z</time>
      </trkpt>
      <trkpt lat="43.62176" lon="5.44252">
        <ele>460.60000610352</ele>
        <time>2013-02-14T13:51:15.000Z</time>
      </trkpt>
      <trkpt lat="43.62177" lon="5.44214">
        <ele>458.39999389648</ele>
        <time>2013-02-14T13:51:23.000Z</time>
      </trkpt>
      <trkpt lat="43.62161" lon="5.44181">
        <ele>456.79998779297</ele>
        <time>2013-02-14T13:51:31.000Z</time>
      </trkpt>
      <trkpt lat="43.62149" lon="5.44182">
        <ele>457</ele>
        <time>2013-02-14T13:51:36.000Z</time>
      </trkpt>
      <trkpt lat="43.62132" lon="5.44185">
        <ele>457.39999389648</ele>
        <time>2013-02-14T13:51:45.000Z</time>
      </trkpt>
      <trkpt lat="43.62131" lon="5.44184">
        <ele>457.39999389648</ele>
        <time>2013-02-14T13:52:02.000Z</time>
      </trkpt>
      <trkpt lat="43.62128" lon="5.44184">
        <ele>457.39999389648</ele>
        <time>2013-02-14T13:52:06.000Z</time>
      </trkpt>
      <trkpt lat="43.62118" lon="5.4419">
        <ele>457.79998779297</ele>
        <time>2013-02-14T13:52:14.000Z</time>
      </trkpt>
      <trkpt lat="43.62106" lon="5.44185">
        <ele>457.79998779297</ele>
        <time>2013-02-14T13:52:25.000Z</time>
      </trkpt>
      <trkpt lat="43.62097" lon="5.44184">
        <ele>458</ele>
        <time>2013-02-14T13:52:35.000Z</time>
      </trkpt>
      <trkpt lat="43.62094" lon="5.44185">
        <ele>458</ele>
        <time>2013-02-14T13:52:37.000Z</time>
      </trkpt>
      <trkpt lat="43.6209" lon="5.44187">
        <ele>458</ele>
        <time>2013-02-14T13:52:41.000Z</time>
      </trkpt>
      <trkpt lat="43.62076" lon="5.44179">
        <ele>458.39999389648</ele>
        <time>2013-02-14T13:52:53.000Z</time>
      </trkpt>
      <trkpt lat="43.62072" lon="5.44174">
        <ele>458.60000610352</ele>
        <time>2013-02-14T13:53:00.000Z</time>
      </trkpt>
      <trkpt lat="43.62058" lon="5.4416">
        <ele>459</ele>
        <time>2013-02-14T13:53:07.000Z</time>
      </trkpt>
      <trkpt lat="43.62046" lon="5.44138">
        <ele>459.39999389648</ele>
        <time>2013-02-14T13:53:16.000Z</time>
      </trkpt>
      <trkpt lat="43.62041" lon="5.44123">
        <ele>459.39999389648</ele>
        <time>2013-02-14T13:53:21.000Z</time>
      </trkpt>
      <trkpt lat="43.62037" lon="5.44098">
        <ele>459.39999389648</ele>
        <time>2013-02-14T13:53:29.000Z</time>
      </trkpt>
      <trkpt lat="43.62037" lon="5.44069">
        <ele>459</ele>
        <time>2013-02-14T13:53:38.000Z</time>
      </trkpt>
      <trkpt lat="43.62037" lon="5.44065">
        <ele>458.79998779297</ele>
        <time>2013-02-14T13:53:40.000Z</time>
      </trkpt>
      <trkpt lat="43.62038" lon="5.44063">
        <ele>458.79998779297</ele>
        <time>2013-02-14T13:53:41.000Z</time>
      </trkpt>
      <trkpt lat="43.62038" lon="5.44061">
        <ele>458.79998779297</ele>
        <time>2013-02-14T13:53:42.000Z</time>
      </trkpt>
      <trkpt lat="43.62038" lon="5.44058">
        <ele>458.79998779297</ele>
        <time>2013-02-14T13:53:43.000Z</time>
      </trkpt>
      <trkpt lat="43.62039" lon="5.44055">
        <ele>458.60000610352</ele>
        <time>2013-02-14T13:53:44.000Z</time>
      </trkpt>
      <trkpt lat="43.62039" lon="5.44052">
        <ele>458.60000610352</ele>
        <time>2013-02-14T13:53:45.000Z</time>
      </trkpt>
      <trkpt lat="43.62043" lon="5.44003">
        <ele>458</ele>
        <time>2013-02-14T13:53:57.000Z</time>
      </trkpt>
      <trkpt lat="43.62047" lon="5.43943">
        <ele>457.60000610352</ele>
        <time>2013-02-14T13:54:09.000Z</time>
      </trkpt>
      <trkpt lat="43.62051" lon="5.43885">
        <ele>456.60000610352</ele>
        <time>2013-02-14T13:54:20.000Z</time>
      </trkpt>
      <trkpt lat="43.62058" lon="5.43787">
        <ele>454</ele>
        <time>2013-02-14T13:54:34.000Z</time>
      </trkpt>
      <trkpt lat="43.62061" lon="5.43744">
        <ele>452.79998779297</ele>
        <time>2013-02-14T13:54:40.000Z</time>
      </trkpt>
      <trkpt lat="43.62062" lon="5.43737">
        <ele>452.60000610352</ele>
        <time>2013-02-14T13:54:41.000Z</time>
      </trkpt>
      <trkpt lat="43.62065" lon="5.43649">
        <ele>451</ele>
        <time>2013-02-14T13:54:53.000Z</time>
      </trkpt>
      <trkpt lat="43.62065" lon="5.43641">
        <ele>451</ele>
        <time>2013-02-14T13:54:54.000Z</time>
      </trkpt>
      <trkpt lat="43.62065" lon="5.43634">
        <ele>451</ele>
        <time>2013-02-14T13:54:55.000Z</time>
      </trkpt>
      <trkpt lat="43.62066" lon="5.43626">
        <ele>451.20001220703</ele>
        <time>2013-02-14T13:54:56.000Z</time>
      </trkpt>
      <trkpt lat="43.62079" lon="5.43559">
        <ele>451.39999389648</ele>
        <time>2013-02-14T13:55:05.000Z</time>
      </trkpt>
      <trkpt lat="43.62081" lon="5.43517">
        <ele>451.79998779297</ele>
        <time>2013-02-14T13:55:11.000Z</time>
      </trkpt>
      <trkpt lat="43.62068" lon="5.43435">
        <ele>449.79998779297</ele>
        <time>2013-02-14T13:55:22.000Z</time>
      </trkpt>
      <trkpt lat="43.62065" lon="5.4342">
        <ele>449.20001220703</ele>
        <time>2013-02-14T13:55:24.000Z</time>
      </trkpt>
      <trkpt lat="43.62057" lon="5.43372">
        <ele>446.60000610352</ele>
        <time>2013-02-14T13:55:30.000Z</time>
      </trkpt>
      <trkpt lat="43.62043" lon="5.4329">
        <ele>442.60000610352</ele>
        <time>2013-02-14T13:55:40.000Z</time>
      </trkpt>
      <trkpt lat="43.62036" lon="5.4325">
        <ele>441.39999389648</ele>
        <time>2013-02-14T13:55:45.000Z</time>
      </trkpt>
      <trkpt lat="43.62027" lon="5.4319">
        <ele>442.39999389648</ele>
        <time>2013-02-14T13:55:54.000Z</time>
      </trkpt>
      <trkpt lat="43.62028" lon="5.43155">
        <ele>443.20001220703</ele>
        <time>2013-02-14T13:56:02.000Z</time>
      </trkpt>
      <trkpt lat="43.62029" lon="5.43152">
        <ele>443.39999389648</ele>
        <time>2013-02-14T13:56:03.000Z</time>
      </trkpt>
      <trkpt lat="43.62031" lon="5.4315">
        <ele>443.39999389648</ele>
        <time>2013-02-14T13:56:04.000Z</time>
      </trkpt>
      <trkpt lat="43.62032" lon="5.43148">
        <ele>443.39999389648</ele>
        <time>2013-02-14T13:56:05.000Z</time>
      </trkpt>
      <trkpt lat="43.62034" lon="5.43147">
        <ele>443.60000610352</ele>
        <time>2013-02-14T13:56:06.000Z</time>
      </trkpt>
      <trkpt lat="43.62036" lon="5.43146">
        <ele>443.60000610352</ele>
        <time>2013-02-14T13:56:07.000Z</time>
      </trkpt>
      <trkpt lat="43.62037" lon="5.43145">
        <ele>443.60000610352</ele>
        <time>2013-02-14T13:56:08.000Z</time>
      </trkpt>
      <trkpt lat="43.62039" lon="5.43144">
        <ele>443.60000610352</ele>
        <time>2013-02-14T13:56:09.000Z</time>
      </trkpt>
      <trkpt lat="43.62049" lon="5.43136">
        <ele>443.79998779297</ele>
        <time>2013-02-14T13:56:15.000Z</time>
      </trkpt>
      <trkpt lat="43.6205" lon="5.43134">
        <ele>443.79998779297</ele>
        <time>2013-02-14T13:56:16.000Z</time>
      </trkpt>
      <trkpt lat="43.62049" lon="5.43118">
        <ele>444.39999389648</ele>
        <time>2013-02-14T13:56:21.000Z</time>
      </trkpt>
      <trkpt lat="43.62049" lon="5.43114">
        <ele>444.39999389648</ele>
        <time>2013-02-14T13:56:22.000Z</time>
      </trkpt>
      <trkpt lat="43.6205" lon="5.4311">
        <ele>444.60000610352</ele>
        <time>2013-02-14T13:56:23.000Z</time>
      </trkpt>
      <trkpt lat="43.62051" lon="5.43106">
        <ele>444.60000610352</ele>
        <time>2013-02-14T13:56:24.000Z</time>
      </trkpt>
      <trkpt lat="43.62061" lon="5.43052">
        <ele>445.39999389648</ele>
        <time>2013-02-14T13:56:36.000Z</time>
      </trkpt>
      <trkpt lat="43.62071" lon="5.43012">
        <ele>445.79998779297</ele>
        <time>2013-02-14T13:56:45.000Z</time>
      </trkpt>
      <trkpt lat="43.6208" lon="5.42982">
        <ele>446.20001220703</ele>
        <time>2013-02-14T13:56:53.000Z</time>
      </trkpt>
      <trkpt lat="43.62082" lon="5.42971">
        <ele>446.20001220703</ele>
        <time>2013-02-14T13:56:55.000Z</time>
      </trkpt>
      <trkpt lat="43.62081" lon="5.42967">
        <ele>446.20001220703</ele>
        <time>2013-02-14T13:56:56.000Z</time>
      </trkpt>
      <trkpt lat="43.6208" lon="5.42962">
        <ele>446.39999389648</ele>
        <time>2013-02-14T13:56:57.000Z</time>
      </trkpt>
      <trkpt lat="43.6208" lon="5.42958">
        <ele>446.39999389648</ele>
        <time>2013-02-14T13:56:58.000Z</time>
      </trkpt>
      <trkpt lat="43.6208" lon="5.42948">
        <ele>446.39999389648</ele>
        <time>2013-02-14T13:57:00.000Z</time>
      </trkpt>
      <trkpt lat="43.62089" lon="5.429">
        <ele>446.20001220703</ele>
        <time>2013-02-14T13:57:10.000Z</time>
      </trkpt>
      <trkpt lat="43.62104" lon="5.42864">
        <ele>444.39999389648</ele>
        <time>2013-02-14T13:57:19.000Z</time>
      </trkpt>
      <trkpt lat="43.62118" lon="5.42829">
        <ele>443.79998779297</ele>
        <time>2013-02-14T13:57:28.000Z</time>
      </trkpt>
      <trkpt lat="43.62124" lon="5.4281">
        <ele>443.79998779297</ele>
        <time>2013-02-14T13:57:36.000Z</time>
      </trkpt>
      <trkpt lat="43.62126" lon="5.428">
        <ele>444</ele>
        <time>2013-02-14T13:57:46.000Z</time>
      </trkpt>
      <trkpt lat="43.62127" lon="5.42793">
        <ele>444.39999389648</ele>
        <time>2013-02-14T13:57:57.000Z</time>
      </trkpt>
      <trkpt lat="43.62127" lon="5.42786">
        <ele>444.79998779297</ele>
        <time>2013-02-14T13:58:08.000Z</time>
      </trkpt>
      <trkpt lat="43.62131" lon="5.42776">
        <ele>444.60000610352</ele>
        <time>2013-02-14T13:58:18.000Z</time>
      </trkpt>
      <trkpt lat="43.62136" lon="5.42766">
        <ele>444.60000610352</ele>
        <time>2013-02-14T13:58:21.000Z</time>
      </trkpt>
      <trkpt lat="43.62147" lon="5.4274">
        <ele>445.60000610352</ele>
        <time>2013-02-14T13:58:30.000Z</time>
      </trkpt>
      <trkpt lat="43.62149" lon="5.42715">
        <ele>448.39999389648</ele>
        <time>2013-02-14T13:58:39.000Z</time>
      </trkpt>
      <trkpt lat="43.6216" lon="5.4269">
        <ele>450</ele>
        <time>2013-02-14T13:58:48.000Z</time>
      </trkpt>
      <trkpt lat="43.62175" lon="5.42659">
        <ele>451.20001220703</ele>
        <time>2013-02-14T13:58:59.000Z</time>
      </trkpt>
      <trkpt lat="43.62192" lon="5.42635">
        <ele>451.39999389648</ele>
        <time>2013-02-14T13:59:08.000Z</time>
      </trkpt>
      <trkpt lat="43.62214" lon="5.42599">
        <ele>452</ele>
        <time>2013-02-14T13:59:21.000Z</time>
      </trkpt>
      <trkpt lat="43.62226" lon="5.42574">
        <ele>453</ele>
        <time>2013-02-14T13:59:31.000Z</time>
      </trkpt>
      <trkpt lat="43.62243" lon="5.42551">
        <ele>452.60000610352</ele>
        <time>2013-02-14T13:59:41.000Z</time>
      </trkpt>
      <trkpt lat="43.62271" lon="5.42512">
        <ele>453.79998779297</ele>
        <time>2013-02-14T13:59:54.000Z</time>
      </trkpt>
      <trkpt lat="43.62293" lon="5.42483">
        <ele>454</ele>
        <time>2013-02-14T14:00:06.000Z</time>
      </trkpt>
      <trkpt lat="43.62312" lon="5.42462">
        <ele>453.60000610352</ele>
        <time>2013-02-14T14:00:17.000Z</time>
      </trkpt>
      <trkpt lat="43.62332" lon="5.42435">
        <ele>454.79998779297</ele>
        <time>2013-02-14T14:00:28.000Z</time>
      </trkpt>
      <trkpt lat="43.62345" lon="5.42408">
        <ele>456</ele>
        <time>2013-02-14T14:00:38.000Z</time>
      </trkpt>
      <trkpt lat="43.62351" lon="5.42395">
        <ele>454.79998779297</ele>
        <time>2013-02-14T14:00:43.000Z</time>
      </trkpt>
      <trkpt lat="43.62357" lon="5.42383">
        <ele>454</ele>
        <time>2013-02-14T14:00:48.000Z</time>
      </trkpt>
      <trkpt lat="43.62368" lon="5.42377">
        <ele>452.39999389648</ele>
        <time>2013-02-14T14:00:54.000Z</time>
      </trkpt>
      <trkpt lat="43.62374" lon="5.42365">
        <ele>451.60000610352</ele>
        <time>2013-02-14T14:01:00.000Z</time>
      </trkpt>
      <trkpt lat="43.62368" lon="5.42343">
        <ele>452.79998779297</ele>
        <time>2013-02-14T14:01:09.000Z</time>
      </trkpt>
      <trkpt lat="43.62362" lon="5.4234">
        <ele>453.39999389648</ele>
        <time>2013-02-14T14:01:17.000Z</time>
      </trkpt>
      <trkpt lat="43.62358" lon="5.42336">
        <ele>453.79998779297</ele>
        <time>2013-02-14T14:01:24.000Z</time>
      </trkpt>
      <trkpt lat="43.62347" lon="5.42339">
        <ele>455.20001220703</ele>
        <time>2013-02-14T14:01:32.000Z</time>
      </trkpt>
      <trkpt lat="43.62343" lon="5.4234">
        <ele>455.79998779297</ele>
        <time>2013-02-14T14:01:40.000Z</time>
      </trkpt>
      <trkpt lat="43.62343" lon="5.42339">
        <ele>455.79998779297</ele>
        <time>2013-02-14T14:01:53.000Z</time>
      </trkpt>
      <trkpt lat="43.62337" lon="5.42337">
        <ele>456.39999389648</ele>
        <time>2013-02-14T14:02:06.000Z</time>
      </trkpt>
      <trkpt lat="43.62332" lon="5.42334">
        <ele>457</ele>
        <time>2013-02-14T14:02:12.000Z</time>
      </trkpt>
      <trkpt lat="43.62331" lon="5.42319">
        <ele>454.20001220703</ele>
        <time>2013-02-14T14:02:22.000Z</time>
      </trkpt>
      <trkpt lat="43.62332" lon="5.42309">
        <ele>452.20001220703</ele>
        <time>2013-02-14T14:02:27.000Z</time>
      </trkpt>
      <trkpt lat="43.62328" lon="5.423">
        <ele>451</ele>
        <time>2013-02-14T14:02:31.000Z</time>
      </trkpt>
      <trkpt lat="43.62321" lon="5.4229">
        <ele>450</ele>
        <time>2013-02-14T14:02:39.000Z</time>
      </trkpt>
      <trkpt lat="43.62322" lon="5.42288">
        <ele>449.39999389648</ele>
        <time>2013-02-14T14:02:41.000Z</time>
      </trkpt>
      <trkpt lat="43.62323" lon="5.42278">
        <ele>447.60000610352</ele>
        <time>2013-02-14T14:02:48.000Z</time>
      </trkpt>
      <trkpt lat="43.62321" lon="5.42274">
        <ele>447</ele>
        <time>2013-02-14T14:02:50.000Z</time>
      </trkpt>
      <trkpt lat="43.62326" lon="5.42259">
        <ele>443.60000610352</ele>
        <time>2013-02-14T14:02:57.000Z</time>
      </trkpt>
      <trkpt lat="43.62329" lon="5.42254">
        <ele>442.20001220703</ele>
        <time>2013-02-14T14:03:00.000Z</time>
      </trkpt>
      <trkpt lat="43.6233" lon="5.42247">
        <ele>440.79998779297</ele>
        <time>2013-02-14T14:03:05.000Z</time>
      </trkpt>
      <trkpt lat="43.6233" lon="5.42246">
        <ele>440.60000610352</ele>
        <time>2013-02-14T14:03:06.000Z</time>
      </trkpt>
      <trkpt lat="43.62338" lon="5.42241">
        <ele>438.39999389648</ele>
        <time>2013-02-14T14:03:10.000Z</time>
      </trkpt>
      <trkpt lat="43.62343" lon="5.42235">
        <ele>436.39999389648</ele>
        <time>2013-02-14T14:03:12.000Z</time>
      </trkpt>
      <trkpt lat="43.62349" lon="5.42219">
        <ele>432.39999389648</ele>
        <time>2013-02-14T14:03:16.000Z</time>
      </trkpt>
      <trkpt lat="43.6235" lon="5.4221">
        <ele>430.60000610352</ele>
        <time>2013-02-14T14:03:23.000Z</time>
      </trkpt>
      <trkpt lat="43.62348" lon="5.4221">
        <ele>430.79998779297</ele>
        <time>2013-02-14T14:03:40.000Z</time>
      </trkpt>
      <trkpt lat="43.62345" lon="5.42205">
        <ele>430.39999389648</ele>
        <time>2013-02-14T14:03:56.000Z</time>
      </trkpt>
      <trkpt lat="43.62342" lon="5.42202">
        <ele>430</ele>
        <time>2013-02-14T14:04:04.000Z</time>
      </trkpt>
      <trkpt lat="43.62339" lon="5.42201">
        <ele>430.20001220703</ele>
        <time>2013-02-14T14:04:16.000Z</time>
      </trkpt>
      <trkpt lat="43.62329" lon="5.4219">
        <ele>429.20001220703</ele>
        <time>2013-02-14T14:04:25.000Z</time>
      </trkpt>
      <trkpt lat="43.62328" lon="5.42186">
        <ele>428.39999389648</ele>
        <time>2013-02-14T14:04:36.000Z</time>
      </trkpt>
      <trkpt lat="43.62326" lon="5.42186">
        <ele>428.60000610352</ele>
        <time>2013-02-14T14:04:49.000Z</time>
      </trkpt>
      <trkpt lat="43.62308" lon="5.42183">
        <ele>430.39999389648</ele>
        <time>2013-02-14T14:05:00.000Z</time>
      </trkpt>
      <trkpt lat="43.62291" lon="5.42184">
        <ele>432.79998779297</ele>
        <time>2013-02-14T14:05:11.000Z</time>
      </trkpt>
      <trkpt lat="43.62273" lon="5.42181">
        <ele>434.39999389648</ele>
        <time>2013-02-14T14:05:22.000Z</time>
      </trkpt>
      <trkpt lat="43.62263" lon="5.42179">
        <ele>435.20001220703</ele>
        <time>2013-02-14T14:05:30.000Z</time>
      </trkpt>
      <trkpt lat="43.62244" lon="5.42176">
        <ele>436.79998779297</ele>
        <time>2013-02-14T14:05:41.000Z</time>
      </trkpt>
      <trkpt lat="43.62229" lon="5.42167">
        <ele>437.39999389648</ele>
        <time>2013-02-14T14:05:51.000Z</time>
      </trkpt>
      <trkpt lat="43.62228" lon="5.42165">
        <ele>437.60000610352</ele>
        <time>2013-02-14T14:05:56.000Z</time>
      </trkpt>
      <trkpt lat="43.62221" lon="5.42159">
        <ele>438.79998779297</ele>
        <time>2013-02-14T14:06:01.000Z</time>
      </trkpt>
      <trkpt lat="43.62202" lon="5.42141">
        <ele>441.20001220703</ele>
        <time>2013-02-14T14:06:13.000Z</time>
      </trkpt>
      <trkpt lat="43.62182" lon="5.4213">
        <ele>443.39999389648</ele>
        <time>2013-02-14T14:06:24.000Z</time>
      </trkpt>
      <trkpt lat="43.62179" lon="5.42127">
        <ele>443.60000610352</ele>
        <time>2013-02-14T14:06:26.000Z</time>
      </trkpt>
      <trkpt lat="43.62156" lon="5.42116">
        <ele>444.60000610352</ele>
        <time>2013-02-14T14:06:38.000Z</time>
      </trkpt>
      <trkpt lat="43.62132" lon="5.42117">
        <ele>445.60000610352</ele>
        <time>2013-02-14T14:06:49.000Z</time>
      </trkpt>
      <trkpt lat="43.62106" lon="5.42127">
        <ele>447.20001220703</ele>
        <time>2013-02-14T14:07:02.000Z</time>
      </trkpt>
      <trkpt lat="43.62083" lon="5.42136">
        <ele>448.39999389648</ele>
        <time>2013-02-14T14:07:15.000Z</time>
      </trkpt>
      <trkpt lat="43.62064" lon="5.42135">
        <ele>448.79998779297</ele>
        <time>2013-02-14T14:07:24.000Z</time>
      </trkpt>
      <trkpt lat="43.62039" lon="5.42131">
        <ele>449.39999389648</ele>
        <time>2013-02-14T14:07:34.000Z</time>
      </trkpt>
      <trkpt lat="43.62014" lon="5.42139">
        <ele>450</ele>
        <time>2013-02-14T14:07:43.000Z</time>
      </trkpt>
      <trkpt lat="43.61996" lon="5.4214">
        <ele>450.39999389648</ele>
        <time>2013-02-14T14:07:50.000Z</time>
      </trkpt>
      <trkpt lat="43.61986" lon="5.4214">
        <ele>451</ele>
        <time>2013-02-14T14:07:54.000Z</time>
      </trkpt>
      <trkpt lat="43.61985" lon="5.42138">
        <ele>451</ele>
        <time>2013-02-14T14:07:55.000Z</time>
      </trkpt>
      <trkpt lat="43.6198" lon="5.42129">
        <ele>451.60000610352</ele>
        <time>2013-02-14T14:08:00.000Z</time>
      </trkpt>
      <trkpt lat="43.6198" lon="5.42127">
        <ele>451.60000610352</ele>
        <time>2013-02-14T14:08:01.000Z</time>
      </trkpt>
      <trkpt lat="43.61981" lon="5.42101">
        <ele>452</ele>
        <time>2013-02-14T14:08:13.000Z</time>
      </trkpt>
      <trkpt lat="43.6198" lon="5.421">
        <ele>452.20001220703</ele>
        <time>2013-02-14T14:08:14.000Z</time>
      </trkpt>
      <trkpt lat="43.61979" lon="5.42087">
        <ele>452.60000610352</ele>
        <time>2013-02-14T14:08:21.000Z</time>
      </trkpt>
      <trkpt lat="43.6198" lon="5.42082">
        <ele>452.60000610352</ele>
        <time>2013-02-14T14:08:24.000Z</time>
      </trkpt>
      <trkpt lat="43.6198" lon="5.4208">
        <ele>452.60000610352</ele>
        <time>2013-02-14T14:08:25.000Z</time>
      </trkpt>
      <trkpt lat="43.61981" lon="5.42077">
        <ele>452.60000610352</ele>
        <time>2013-02-14T14:08:26.000Z</time>
      </trkpt>
      <trkpt lat="43.61985" lon="5.42046">
        <ele>453.20001220703</ele>
        <time>2013-02-14T14:08:38.000Z</time>
      </trkpt>
      <trkpt lat="43.6199" lon="5.42011">
        <ele>453.60000610352</ele>
        <time>2013-02-14T14:08:49.000Z</time>
      </trkpt>
      <trkpt lat="43.61989" lon="5.41978">
        <ele>454.79998779297</ele>
        <time>2013-02-14T14:09:00.000Z</time>
      </trkpt>
      <trkpt lat="43.61988" lon="5.41975">
        <ele>455</ele>
        <time>2013-02-14T14:09:01.000Z</time>
      </trkpt>
      <trkpt lat="43.61987" lon="5.41972">
        <ele>455.20001220703</ele>
        <time>2013-02-14T14:09:02.000Z</time>
      </trkpt>
      <trkpt lat="43.61986" lon="5.4197">
        <ele>455.39999389648</ele>
        <time>2013-02-14T14:09:03.000Z</time>
      </trkpt>
      <trkpt lat="43.61984" lon="5.41968">
        <ele>455.60000610352</ele>
        <time>2013-02-14T14:09:04.000Z</time>
      </trkpt>
      <trkpt lat="43.61982" lon="5.41966">
        <ele>455.79998779297</ele>
        <time>2013-02-14T14:09:05.000Z</time>
      </trkpt>
      <trkpt lat="43.6198" lon="5.41964">
        <ele>456.20001220703</ele>
        <time>2013-02-14T14:09:06.000Z</time>
      </trkpt>
      <trkpt lat="43.61978" lon="5.41961">
        <ele>456.39999389648</ele>
        <time>2013-02-14T14:09:07.000Z</time>
      </trkpt>
      <trkpt lat="43.61977" lon="5.41959">
        <ele>456.60000610352</ele>
        <time>2013-02-14T14:09:08.000Z</time>
      </trkpt>
      <trkpt lat="43.61955" lon="5.41929">
        <ele>459.39999389648</ele>
        <time>2013-02-14T14:09:19.000Z</time>
      </trkpt>
      <trkpt lat="43.61946" lon="5.4192">
        <ele>460.39999389648</ele>
        <time>2013-02-14T14:09:23.000Z</time>
      </trkpt>
      <trkpt lat="43.61934" lon="5.41894">
        <ele>462.39999389648</ele>
        <time>2013-02-14T14:09:32.000Z</time>
      </trkpt>
      <trkpt lat="43.61927" lon="5.41883">
        <ele>463.20001220703</ele>
        <time>2013-02-14T14:09:37.000Z</time>
      </trkpt>
      <trkpt lat="43.6193" lon="5.41856">
        <ele>464</ele>
        <time>2013-02-14T14:09:47.000Z</time>
      </trkpt>
      <trkpt lat="43.6194" lon="5.41842">
        <ele>464.20001220703</ele>
        <time>2013-02-14T14:09:57.000Z</time>
      </trkpt>
      <trkpt lat="43.61956" lon="5.41823">
        <ele>464.79998779297</ele>
        <time>2013-02-14T14:10:10.000Z</time>
      </trkpt>
      <trkpt lat="43.6196" lon="5.41818">
        <ele>465</ele>
        <time>2013-02-14T14:10:14.000Z</time>
      </trkpt>
      <trkpt lat="43.61961" lon="5.41816">
        <ele>465</ele>
        <time>2013-02-14T14:10:24.000Z</time>
      </trkpt>
      <trkpt lat="43.61961" lon="5.41814">
        <ele>465</ele>
        <time>2013-02-14T14:10:38.000Z</time>
      </trkpt>
      <trkpt lat="43.61961" lon="5.41814">
        <ele>465</ele>
        <time>2013-02-14T14:10:58.000Z</time>
      </trkpt>
      <trkpt lat="43.6196" lon="5.41817">
        <ele>465</ele>
        <time>2013-02-14T14:11:21.000Z</time>
      </trkpt>
      <trkpt lat="43.61962" lon="5.41814">
        <ele>465</ele>
        <time>2013-02-14T14:11:29.000Z</time>
      </trkpt>
      <trkpt lat="43.61975" lon="5.41795">
        <ele>465.20001220703</ele>
        <time>2013-02-14T14:11:41.000Z</time>
      </trkpt>
      <trkpt lat="43.61992" lon="5.41777">
        <ele>465</ele>
        <time>2013-02-14T14:11:52.000Z</time>
      </trkpt>
      <trkpt lat="43.62007" lon="5.41754">
        <ele>464.79998779297</ele>
        <time>2013-02-14T14:12:02.000Z</time>
      </trkpt>
      <trkpt lat="43.62025" lon="5.41722">
        <ele>466.79998779297</ele>
        <time>2013-02-14T14:12:13.000Z</time>
      </trkpt>
      <trkpt lat="43.62041" lon="5.41708">
        <ele>467.39999389648</ele>
        <time>2013-02-14T14:12:22.000Z</time>
      </trkpt>
      <trkpt lat="43.62059" lon="5.41706">
        <ele>467.20001220703</ele>
        <time>2013-02-14T14:12:30.000Z</time>
      </trkpt>
      <trkpt lat="43.62073" lon="5.41724">
        <ele>465.60000610352</ele>
        <time>2013-02-14T14:12:40.000Z</time>
      </trkpt>
      <trkpt lat="43.62079" lon="5.41748">
        <ele>464</ele>
        <time>2013-02-14T14:12:49.000Z</time>
      </trkpt>
      <trkpt lat="43.62079" lon="5.41752">
        <ele>464</ele>
        <time>2013-02-14T14:12:50.000Z</time>
      </trkpt>
      <trkpt lat="43.62079" lon="5.41756">
        <ele>463.79998779297</ele>
        <time>2013-02-14T14:12:51.000Z</time>
      </trkpt>
      <trkpt lat="43.62079" lon="5.4176">
        <ele>463.79998779297</ele>
        <time>2013-02-14T14:12:52.000Z</time>
      </trkpt>
      <trkpt lat="43.6209" lon="5.41782">
        <ele>463.39999389648</ele>
        <time>2013-02-14T14:12:58.000Z</time>
      </trkpt>
      <trkpt lat="43.62115" lon="5.41791">
        <ele>464.39999389648</ele>
        <time>2013-02-14T14:13:07.000Z</time>
      </trkpt>
      <trkpt lat="43.62143" lon="5.41802">
        <ele>465.79998779297</ele>
        <time>2013-02-14T14:13:17.000Z</time>
      </trkpt>
      <trkpt lat="43.62168" lon="5.41821">
        <ele>467</ele>
        <time>2013-02-14T14:13:28.000Z</time>
      </trkpt>
      <trkpt lat="43.62176" lon="5.4183">
        <ele>467</ele>
        <time>2013-02-14T14:13:32.000Z</time>
      </trkpt>
      <trkpt lat="43.62178" lon="5.41831">
        <ele>467</ele>
        <time>2013-02-14T14:13:33.000Z</time>
      </trkpt>
      <trkpt lat="43.62181" lon="5.41831">
        <ele>467.20001220703</ele>
        <time>2013-02-14T14:13:34.000Z</time>
      </trkpt>
      <trkpt lat="43.622" lon="5.41807">
        <ele>468</ele>
        <time>2013-02-14T14:13:43.000Z</time>
      </trkpt>
      <trkpt lat="43.62214" lon="5.41783">
        <ele>469.20001220703</ele>
        <time>2013-02-14T14:13:52.000Z</time>
      </trkpt>
      <trkpt lat="43.62215" lon="5.4178">
        <ele>469.39999389648</ele>
        <time>2013-02-14T14:13:53.000Z</time>
      </trkpt>
      <trkpt lat="43.62217" lon="5.41779">
        <ele>469.39999389648</ele>
        <time>2013-02-14T14:13:54.000Z</time>
      </trkpt>
      <trkpt lat="43.6222" lon="5.41779">
        <ele>469.60000610352</ele>
        <time>2013-02-14T14:13:56.000Z</time>
      </trkpt>
      <trkpt lat="43.62247" lon="5.41785">
        <ele>470.60000610352</ele>
        <time>2013-02-14T14:14:05.000Z</time>
      </trkpt>
      <trkpt lat="43.62258" lon="5.41787">
        <ele>471</ele>
        <time>2013-02-14T14:14:10.000Z</time>
      </trkpt>
      <trkpt lat="43.62278" lon="5.41796">
        <ele>471.39999389648</ele>
        <time>2013-02-14T14:14:18.000Z</time>
      </trkpt>
      <trkpt lat="43.62301" lon="5.41811">
        <ele>471.20001220703</ele>
        <time>2013-02-14T14:14:27.000Z</time>
      </trkpt>
      <trkpt lat="43.62323" lon="5.41827">
        <ele>470.39999389648</ele>
        <time>2013-02-14T14:14:37.000Z</time>
      </trkpt>
      <trkpt lat="43.6234" lon="5.41818">
        <ele>470.60000610352</ele>
        <time>2013-02-14T14:14:44.000Z</time>
      </trkpt>
      <trkpt lat="43.62342" lon="5.41818">
        <ele>470.39999389648</ele>
        <time>2013-02-14T14:14:45.000Z</time>
      </trkpt>
      <trkpt lat="43.62344" lon="5.41817">
        <ele>470.20001220703</ele>
        <time>2013-02-14T14:14:46.000Z</time>
      </trkpt>
      <trkpt lat="43.62346" lon="5.41816">
        <ele>470.20001220703</ele>
        <time>2013-02-14T14:14:47.000Z</time>
      </trkpt>
      <trkpt lat="43.62348" lon="5.41815">
        <ele>470</ele>
        <time>2013-02-14T14:14:48.000Z</time>
      </trkpt>
      <trkpt lat="43.6235" lon="5.41814">
        <ele>470</ele>
        <time>2013-02-14T14:14:49.000Z</time>
      </trkpt>
      <trkpt lat="43.62352" lon="5.41814">
        <ele>469.79998779297</ele>
        <time>2013-02-14T14:14:50.000Z</time>
      </trkpt>
      <trkpt lat="43.62353" lon="5.41813">
        <ele>469.60000610352</ele>
        <time>2013-02-14T14:14:51.000Z</time>
      </trkpt>
      <trkpt lat="43.62355" lon="5.41813">
        <ele>469.39999389648</ele>
        <time>2013-02-14T14:14:52.000Z</time>
      </trkpt>
      <trkpt lat="43.62377" lon="5.41802">
        <ele>468.39999389648</ele>
        <time>2013-02-14T14:15:02.000Z</time>
      </trkpt>
      <trkpt lat="43.62398" lon="5.41778">
        <ele>470.20001220703</ele>
        <time>2013-02-14T14:15:11.000Z</time>
      </trkpt>
      <trkpt lat="43.62421" lon="5.41758">
        <ele>471.60000610352</ele>
        <time>2013-02-14T14:15:22.000Z</time>
      </trkpt>
      <trkpt lat="43.62439" lon="5.41736">
        <ele>472.60000610352</ele>
        <time>2013-02-14T14:15:31.000Z</time>
      </trkpt>
      <trkpt lat="43.62447" lon="5.41727">
        <ele>472.60000610352</ele>
        <time>2013-02-14T14:15:38.000Z</time>
      </trkpt>
      <trkpt lat="43.62449" lon="5.41726">
        <ele>472.60000610352</ele>
        <time>2013-02-14T14:15:39.000Z</time>
      </trkpt>
      <trkpt lat="43.62451" lon="5.41721">
        <ele>473</ele>
        <time>2013-02-14T14:15:51.000Z</time>
      </trkpt>
      <trkpt lat="43.62452" lon="5.41719">
        <ele>473</ele>
        <time>2013-02-14T14:16:08.000Z</time>
      </trkpt>
      <trkpt lat="43.62454" lon="5.41721">
        <ele>472.60000610352</ele>
        <time>2013-02-14T14:16:32.000Z</time>
      </trkpt>
      <trkpt lat="43.62455" lon="5.41721">
        <ele>472.39999389648</ele>
        <time>2013-02-14T14:16:52.000Z</time>
      </trkpt>
      <trkpt lat="43.62455" lon="5.41722">
        <ele>472.20001220703</ele>
        <time>2013-02-14T14:17:09.000Z</time>
      </trkpt>
      <trkpt lat="43.62457" lon="5.41722">
        <ele>472</ele>
        <time>2013-02-14T14:17:10.000Z</time>
      </trkpt>
      <trkpt lat="43.62458" lon="5.41723">
        <ele>471.79998779297</ele>
        <time>2013-02-14T14:17:11.000Z</time>
      </trkpt>
      <trkpt lat="43.62461" lon="5.41725">
        <ele>471.39999389648</ele>
        <time>2013-02-14T14:17:12.000Z</time>
      </trkpt>
      <trkpt lat="43.62464" lon="5.41726">
        <ele>470.79998779297</ele>
        <time>2013-02-14T14:17:13.000Z</time>
      </trkpt>
      <trkpt lat="43.62467" lon="5.41727">
        <ele>470.39999389648</ele>
        <time>2013-02-14T14:17:14.000Z</time>
      </trkpt>
      <trkpt lat="43.6247" lon="5.41727">
        <ele>470</ele>
        <time>2013-02-14T14:17:15.000Z</time>
      </trkpt>
      <trkpt lat="43.62472" lon="5.41727">
        <ele>469.60000610352</ele>
        <time>2013-02-14T14:17:16.000Z</time>
      </trkpt>
      <trkpt lat="43.62474" lon="5.41728">
        <ele>469.39999389648</ele>
        <time>2013-02-14T14:17:17.000Z</time>
      </trkpt>
      <trkpt lat="43.6248" lon="5.41733">
        <ele>468</ele>
        <time>2013-02-14T14:17:21.000Z</time>
      </trkpt>
      <trkpt lat="43.62483" lon="5.41737">
        <ele>467</ele>
        <time>2013-02-14T14:17:25.000Z</time>
      </trkpt>
      <trkpt lat="43.62484" lon="5.41739">
        <ele>466.39999389648</ele>
        <time>2013-02-14T14:17:28.000Z</time>
      </trkpt>
      <trkpt lat="43.62486" lon="5.41742">
        <ele>466</ele>
        <time>2013-02-14T14:17:30.000Z</time>
      </trkpt>
      <trkpt lat="43.62491" lon="5.41749">
        <ele>464.20001220703</ele>
        <time>2013-02-14T14:17:35.000Z</time>
      </trkpt>
      <trkpt lat="43.62492" lon="5.41751">
        <ele>463.79998779297</ele>
        <time>2013-02-14T14:17:36.000Z</time>
      </trkpt>
      <trkpt lat="43.62498" lon="5.41757">
        <ele>461.60000610352</ele>
        <time>2013-02-14T14:17:40.000Z</time>
      </trkpt>
      <trkpt lat="43.62504" lon="5.41763">
        <ele>459.20001220703</ele>
        <time>2013-02-14T14:17:42.000Z</time>
      </trkpt>
      <trkpt lat="43.62518" lon="5.41775">
        <ele>453.39999389648</ele>
        <time>2013-02-14T14:17:47.000Z</time>
      </trkpt>
      <trkpt lat="43.62523" lon="5.41781">
        <ele>450.79998779297</ele>
        <time>2013-02-14T14:17:49.000Z</time>
      </trkpt>
      <trkpt lat="43.62529" lon="5.41792">
        <ele>447</ele>
        <time>2013-02-14T14:17:53.000Z</time>
      </trkpt>
      <trkpt lat="43.62528" lon="5.41797">
        <ele>446</ele>
        <time>2013-02-14T14:18:02.000Z</time>
      </trkpt>
      <trkpt lat="43.62528" lon="5.41798">
        <ele>446</ele>
        <time>2013-02-14T14:18:12.000Z</time>
      </trkpt>
      <trkpt lat="43.6253" lon="5.41794">
        <ele>446.39999389648</ele>
        <time>2013-02-14T14:18:33.000Z</time>
      </trkpt>
      <trkpt lat="43.6253" lon="5.41793">
        <ele>446.60000610352</ele>
        <time>2013-02-14T14:18:56.000Z</time>
      </trkpt>
      <trkpt lat="43.62531" lon="5.41793">
        <ele>446.60000610352</ele>
        <time>2013-02-14T14:19:06.000Z</time>
      </trkpt>
      <trkpt lat="43.62532" lon="5.41791">
        <ele>446.79998779297</ele>
        <time>2013-02-14T14:19:11.000Z</time>
      </trkpt>
      <trkpt lat="43.62539" lon="5.41798">
        <ele>443.60000610352</ele>
        <time>2013-02-14T14:19:18.000Z</time>
      </trkpt>
      <trkpt lat="43.62541" lon="5.41799">
        <ele>443.20001220703</ele>
        <time>2013-02-14T14:19:20.000Z</time>
      </trkpt>
      <trkpt lat="43.62543" lon="5.418">
        <ele>442.39999389648</ele>
        <time>2013-02-14T14:19:36.000Z</time>
      </trkpt>
      <trkpt lat="43.62539" lon="5.41803">
        <ele>442.60000610352</ele>
        <time>2013-02-14T14:19:43.000Z</time>
      </trkpt>
      <trkpt lat="43.62536" lon="5.41799">
        <ele>444</ele>
        <time>2013-02-14T14:19:53.000Z</time>
      </trkpt>
      <trkpt lat="43.62532" lon="5.41799">
        <ele>444.79998779297</ele>
        <time>2013-02-14T14:20:03.000Z</time>
      </trkpt>
      <trkpt lat="43.62532" lon="5.41799">
        <ele>445</ele>
        <time>2013-02-14T14:20:04.000Z</time>
      </trkpt>
      <trkpt lat="43.62531" lon="5.4179">
        <ele>447</ele>
        <time>2013-02-14T14:20:11.000Z</time>
      </trkpt>
      <trkpt lat="43.62533" lon="5.41797">
        <ele>445.20001220703</ele>
        <time>2013-02-14T14:20:19.000Z</time>
      </trkpt>
      <trkpt lat="43.62535" lon="5.41795">
        <ele>445</ele>
        <time>2013-02-14T14:20:26.000Z</time>
      </trkpt>
      <trkpt lat="43.62543" lon="5.418">
        <ele>442.39999389648</ele>
        <time>2013-02-14T14:20:29.000Z</time>
      </trkpt>
      <trkpt lat="43.62546" lon="5.41802">
        <ele>441.39999389648</ele>
        <time>2013-02-14T14:20:30.000Z</time>
      </trkpt>
      <trkpt lat="43.62556" lon="5.41805">
        <ele>438.79998779297</ele>
        <time>2013-02-14T14:20:33.000Z</time>
      </trkpt>
      <trkpt lat="43.62562" lon="5.41807">
        <ele>437.20001220703</ele>
        <time>2013-02-14T14:20:35.000Z</time>
      </trkpt>
      <trkpt lat="43.62568" lon="5.41816">
        <ele>433.79998779297</ele>
        <time>2013-02-14T14:20:40.000Z</time>
      </trkpt>
      <trkpt lat="43.6257" lon="5.41822">
        <ele>432</ele>
        <time>2013-02-14T14:20:42.000Z</time>
      </trkpt>
      <trkpt lat="43.62581" lon="5.41827">
        <ele>428.79998779297</ele>
        <time>2013-02-14T14:20:48.000Z</time>
      </trkpt>
      <trkpt lat="43.62583" lon="5.41832">
        <ele>427.39999389648</ele>
        <time>2013-02-14T14:20:54.000Z</time>
      </trkpt>
      <trkpt lat="43.62582" lon="5.41833">
        <ele>427.20001220703</ele>
        <time>2013-02-14T14:21:06.000Z</time>
      </trkpt>
      <trkpt lat="43.62583" lon="5.41834">
        <ele>426.79998779297</ele>
        <time>2013-02-14T14:21:19.000Z</time>
      </trkpt>
      <trkpt lat="43.62584" lon="5.41836">
        <ele>426.60000610352</ele>
        <time>2013-02-14T14:21:28.000Z</time>
      </trkpt>
      <trkpt lat="43.6258" lon="5.41844">
        <ele>425.60000610352</ele>
        <time>2013-02-14T14:21:32.000Z</time>
      </trkpt>
      <trkpt lat="43.62576" lon="5.4185">
        <ele>425.39999389648</ele>
        <time>2013-02-14T14:21:34.000Z</time>
      </trkpt>
      <trkpt lat="43.62577" lon="5.41863">
        <ele>423.20001220703</ele>
        <time>2013-02-14T14:21:37.000Z</time>
      </trkpt>
      <trkpt lat="43.62583" lon="5.41868">
        <ele>421.20001220703</ele>
        <time>2013-02-14T14:21:39.000Z</time>
      </trkpt>
      <trkpt lat="43.62594" lon="5.41885">
        <ele>418</ele>
        <time>2013-02-14T14:21:43.000Z</time>
      </trkpt>
      <trkpt lat="43.62601" lon="5.41893">
        <ele>416.79998779297</ele>
        <time>2013-02-14T14:21:46.000Z</time>
      </trkpt>
      <trkpt lat="43.62604" lon="5.41891">
        <ele>417</ele>
        <time>2013-02-14T14:21:47.000Z</time>
      </trkpt>
      <trkpt lat="43.62627" lon="5.41889">
        <ele>417</ele>
        <time>2013-02-14T14:21:54.000Z</time>
      </trkpt>
      <trkpt lat="43.62632" lon="5.41919">
        <ele>412.39999389648</ele>
        <time>2013-02-14T14:22:00.000Z</time>
      </trkpt>
      <trkpt lat="43.62635" lon="5.41926">
        <ele>411.20001220703</ele>
        <time>2013-02-14T14:22:01.000Z</time>
      </trkpt>
      <trkpt lat="43.62638" lon="5.41931">
        <ele>410.39999389648</ele>
        <time>2013-02-14T14:22:02.000Z</time>
      </trkpt>
      <trkpt lat="43.62642" lon="5.41935">
        <ele>409.60000610352</ele>
        <time>2013-02-14T14:22:03.000Z</time>
      </trkpt>
      <trkpt lat="43.62651" lon="5.41946">
        <ele>407.39999389648</ele>
        <time>2013-02-14T14:22:06.000Z</time>
      </trkpt>
      <trkpt lat="43.62649" lon="5.41954">
        <ele>406</ele>
        <time>2013-02-14T14:22:10.000Z</time>
      </trkpt>
      <trkpt lat="43.62647" lon="5.41961">
        <ele>404.60000610352</ele>
        <time>2013-02-14T14:22:13.000Z</time>
      </trkpt>
      <trkpt lat="43.62647" lon="5.4197">
        <ele>403</ele>
        <time>2013-02-14T14:22:16.000Z</time>
      </trkpt>
      <trkpt lat="43.62647" lon="5.41981">
        <ele>400.79998779297</ele>
        <time>2013-02-14T14:22:20.000Z</time>
      </trkpt>
      <trkpt lat="43.62646" lon="5.42001">
        <ele>397.20001220703</ele>
        <time>2013-02-14T14:22:27.000Z</time>
      </trkpt>
      <trkpt lat="43.62646" lon="5.42014">
        <ele>395.20001220703</ele>
        <time>2013-02-14T14:22:30.000Z</time>
      </trkpt>
      <trkpt lat="43.62646" lon="5.42019">
        <ele>394.20001220703</ele>
        <time>2013-02-14T14:22:31.000Z</time>
      </trkpt>
      <trkpt lat="43.62655" lon="5.42028">
        <ele>392</ele>
        <time>2013-02-14T14:22:38.000Z</time>
      </trkpt>
      <trkpt lat="43.62661" lon="5.42047">
        <ele>388</ele>
        <time>2013-02-14T14:22:51.000Z</time>
      </trkpt>
      <trkpt lat="43.62659" lon="5.42048">
        <ele>388.20001220703</ele>
        <time>2013-02-14T14:23:11.000Z</time>
      </trkpt>
      <trkpt lat="43.6266" lon="5.42048">
        <ele>388.20001220703</ele>
        <time>2013-02-14T14:23:24.000Z</time>
      </trkpt>
      <trkpt lat="43.62663" lon="5.42052">
        <ele>387</ele>
        <time>2013-02-14T14:23:33.000Z</time>
      </trkpt>
      <trkpt lat="43.62666" lon="5.4206">
        <ele>385.20001220703</ele>
        <time>2013-02-14T14:23:37.000Z</time>
      </trkpt>
      <trkpt lat="43.62664" lon="5.42075">
        <ele>382.79998779297</ele>
        <time>2013-02-14T14:23:40.000Z</time>
      </trkpt>
      <trkpt lat="43.62665" lon="5.42092">
        <ele>380.60000610352</ele>
        <time>2013-02-14T14:23:45.000Z</time>
      </trkpt>
      <trkpt lat="43.62667" lon="5.42095">
        <ele>380</ele>
        <time>2013-02-14T14:23:47.000Z</time>
      </trkpt>
      <trkpt lat="43.6267" lon="5.42094">
        <ele>380</ele>
        <time>2013-02-14T14:23:48.000Z</time>
      </trkpt>
      <trkpt lat="43.62673" lon="5.42092">
        <ele>379.79998779297</ele>
        <time>2013-02-14T14:23:49.000Z</time>
      </trkpt>
      <trkpt lat="43.62703" lon="5.4209">
        <ele>378.20001220703</ele>
        <time>2013-02-14T14:23:59.000Z</time>
      </trkpt>
      <trkpt lat="43.62719" lon="5.42102">
        <ele>376</ele>
        <time>2013-02-14T14:24:08.000Z</time>
      </trkpt>
      <trkpt lat="43.62726" lon="5.42106">
        <ele>375.39999389648</ele>
        <time>2013-02-14T14:24:12.000Z</time>
      </trkpt>
      <trkpt lat="43.62728" lon="5.42106">
        <ele>375.20001220703</ele>
        <time>2013-02-14T14:24:13.000Z</time>
      </trkpt>
      <trkpt lat="43.62745" lon="5.42103">
        <ele>374.20001220703</ele>
        <time>2013-02-14T14:24:23.000Z</time>
      </trkpt>
      <trkpt lat="43.62763" lon="5.42102">
        <ele>372.79998779297</ele>
        <time>2013-02-14T14:24:33.000Z</time>
      </trkpt>
      <trkpt lat="43.62781" lon="5.42095">
        <ele>371.60000610352</ele>
        <time>2013-02-14T14:24:42.000Z</time>
      </trkpt>
      <trkpt lat="43.62789" lon="5.42098">
        <ele>370.39999389648</ele>
        <time>2013-02-14T14:24:52.000Z</time>
      </trkpt>
      <trkpt lat="43.62798" lon="5.42102">
        <ele>369</ele>
        <time>2013-02-14T14:25:04.000Z</time>
      </trkpt>
      <trkpt lat="43.62808" lon="5.42106">
        <ele>367</ele>
        <time>2013-02-14T14:25:13.000Z</time>
      </trkpt>
      <trkpt lat="43.62811" lon="5.42105">
        <ele>367</ele>
        <time>2013-02-14T14:25:16.000Z</time>
      </trkpt>
      <trkpt lat="43.62814" lon="5.42106">
        <ele>366.39999389648</ele>
        <time>2013-02-14T14:25:30.000Z</time>
      </trkpt>
      <trkpt lat="43.62814" lon="5.42106">
        <ele>366.39999389648</ele>
        <time>2013-02-14T14:25:42.000Z</time>
      </trkpt>
      <trkpt lat="43.62813" lon="5.42107">
        <ele>366.60000610352</ele>
        <time>2013-02-14T14:25:50.000Z</time>
      </trkpt>
      <trkpt lat="43.62814" lon="5.42107">
        <ele>366.20001220703</ele>
        <time>2013-02-14T14:25:53.000Z</time>
      </trkpt>
      <trkpt lat="43.62824" lon="5.42108">
        <ele>365</ele>
        <time>2013-02-14T14:25:57.000Z</time>
      </trkpt>
      <trkpt lat="43.62829" lon="5.42115">
        <ele>363</ele>
        <time>2013-02-14T14:26:02.000Z</time>
      </trkpt>
      <trkpt lat="43.6283" lon="5.42119">
        <ele>362</ele>
        <time>2013-02-14T14:26:13.000Z</time>
      </trkpt>
      <trkpt lat="43.62823" lon="5.42131">
        <ele>360.79998779297</ele>
        <time>2013-02-14T14:26:18.000Z</time>
      </trkpt>
      <trkpt lat="43.62822" lon="5.42128">
        <ele>361.39999389648</ele>
        <time>2013-02-14T14:26:29.000Z</time>
      </trkpt>
      <trkpt lat="43.6282" lon="5.42126">
        <ele>362.20001220703</ele>
        <time>2013-02-14T14:26:54.000Z</time>
      </trkpt>
      <trkpt lat="43.6282" lon="5.42125">
        <ele>362.20001220703</ele>
        <time>2013-02-14T14:27:21.000Z</time>
      </trkpt>
      <trkpt lat="43.62821" lon="5.42127">
        <ele>361.79998779297</ele>
        <time>2013-02-14T14:27:34.000Z</time>
      </trkpt>
      <trkpt lat="43.62823" lon="5.42127">
        <ele>361.39999389648</ele>
        <time>2013-02-14T14:27:46.000Z</time>
      </trkpt>
      <trkpt lat="43.62823" lon="5.42136">
        <ele>359.79998779297</ele>
        <time>2013-02-14T14:27:55.000Z</time>
      </trkpt>
      <trkpt lat="43.62822" lon="5.42137">
        <ele>359.60000610352</ele>
        <time>2013-02-14T14:28:00.000Z</time>
      </trkpt>
      <trkpt lat="43.62828" lon="5.42137">
        <ele>358.79998779297</ele>
        <time>2013-02-14T14:28:04.000Z</time>
      </trkpt>
      <trkpt lat="43.62833" lon="5.42133">
        <ele>358.79998779297</ele>
        <time>2013-02-14T14:28:08.000Z</time>
      </trkpt>
      <trkpt lat="43.62836" lon="5.42133">
        <ele>358.20001220703</ele>
        <time>2013-02-14T14:28:10.000Z</time>
      </trkpt>
      <trkpt lat="43.62841" lon="5.42145">
        <ele>354.79998779297</ele>
        <time>2013-02-14T14:28:14.000Z</time>
      </trkpt>
      <trkpt lat="43.62845" lon="5.42155">
        <ele>352.39999389648</ele>
        <time>2013-02-14T14:28:18.000Z</time>
      </trkpt>
      <trkpt lat="43.62845" lon="5.42158">
        <ele>352</ele>
        <time>2013-02-14T14:28:19.000Z</time>
      </trkpt>
      <trkpt lat="43.62844" lon="5.42164">
        <ele>350.60000610352</ele>
        <time>2013-02-14T14:28:24.000Z</time>
      </trkpt>
      <trkpt lat="43.6284" lon="5.42165">
        <ele>351.20001220703</ele>
        <time>2013-02-14T14:28:34.000Z</time>
      </trkpt>
      <trkpt lat="43.62834" lon="5.42161">
        <ele>353</ele>
        <time>2013-02-14T14:28:45.000Z</time>
      </trkpt>
      <trkpt lat="43.62831" lon="5.42159">
        <ele>353.79998779297</ele>
        <time>2013-02-14T14:28:58.000Z</time>
      </trkpt>
      <trkpt lat="43.6283" lon="5.42159">
        <ele>354</ele>
        <time>2013-02-14T14:29:00.000Z</time>
      </trkpt>
      <trkpt lat="43.62827" lon="5.42156">
        <ele>355.39999389648</ele>
        <time>2013-02-14T14:29:11.000Z</time>
      </trkpt>
      <trkpt lat="43.62822" lon="5.42151">
        <ele>357</ele>
        <time>2013-02-14T14:29:23.000Z</time>
      </trkpt>
      <trkpt lat="43.6282" lon="5.42147">
        <ele>358.20001220703</ele>
        <time>2013-02-14T14:29:32.000Z</time>
      </trkpt>
      <trkpt lat="43.62815" lon="5.42142">
        <ele>360</ele>
        <time>2013-02-14T14:29:42.000Z</time>
      </trkpt>
      <trkpt lat="43.62809" lon="5.42136">
        <ele>361.79998779297</ele>
        <time>2013-02-14T14:29:51.000Z</time>
      </trkpt>
      <trkpt lat="43.62807" lon="5.42132">
        <ele>362.79998779297</ele>
        <time>2013-02-14T14:30:03.000Z</time>
      </trkpt>
      <trkpt lat="43.62802" lon="5.42125">
        <ele>364.60000610352</ele>
        <time>2013-02-14T14:30:14.000Z</time>
      </trkpt>
      <trkpt lat="43.62803" lon="5.42111">
        <ele>366.79998779297</ele>
        <time>2013-02-14T14:30:26.000Z</time>
      </trkpt>
      <trkpt lat="43.62808" lon="5.42106">
        <ele>367.20001220703</ele>
        <time>2013-02-14T14:30:38.000Z</time>
      </trkpt>
      <trkpt lat="43.62808" lon="5.42102">
        <ele>367.79998779297</ele>
        <time>2013-02-14T14:31:03.000Z</time>
      </trkpt>
      <trkpt lat="43.62809" lon="5.42099">
        <ele>368.39999389648</ele>
        <time>2013-02-14T14:31:09.000Z</time>
      </trkpt>
      <trkpt lat="43.62817" lon="5.42085">
        <ele>370</ele>
        <time>2013-02-14T14:31:20.000Z</time>
      </trkpt>
      <trkpt lat="43.62817" lon="5.42084">
        <ele>370.20001220703</ele>
        <time>2013-02-14T14:31:21.000Z</time>
      </trkpt>
      <trkpt lat="43.62819" lon="5.42078">
        <ele>370.79998779297</ele>
        <time>2013-02-14T14:31:30.000Z</time>
      </trkpt>
      <trkpt lat="43.62818" lon="5.42078">
        <ele>370.79998779297</ele>
        <time>2013-02-14T14:31:41.000Z</time>
      </trkpt>
      <trkpt lat="43.62819" lon="5.42079">
        <ele>370.79998779297</ele>
        <time>2013-02-14T14:31:51.000Z</time>
      </trkpt>
      <trkpt lat="43.62819" lon="5.42078">
        <ele>370.79998779297</ele>
        <time>2013-02-14T14:32:04.000Z</time>
      </trkpt>
      <trkpt lat="43.62821" lon="5.42072">
        <ele>371.39999389648</ele>
        <time>2013-02-14T14:32:13.000Z</time>
      </trkpt>
      <trkpt lat="43.6283" lon="5.42055">
        <ele>372.60000610352</ele>
        <time>2013-02-14T14:32:24.000Z</time>
      </trkpt>
      <trkpt lat="43.62835" lon="5.42041">
        <ele>373.79998779297</ele>
        <time>2013-02-14T14:32:35.000Z</time>
      </trkpt>
      <trkpt lat="43.62842" lon="5.42028">
        <ele>373.79998779297</ele>
        <time>2013-02-14T14:32:45.000Z</time>
      </trkpt>
      <trkpt lat="43.62857" lon="5.42005">
        <ele>374.20001220703</ele>
        <time>2013-02-14T14:32:54.000Z</time>
      </trkpt>
      <trkpt lat="43.62872" lon="5.41975">
        <ele>375.60000610352</ele>
        <time>2013-02-14T14:33:03.000Z</time>
      </trkpt>
      <trkpt lat="43.62889" lon="5.41939">
        <ele>377.39999389648</ele>
        <time>2013-02-14T14:33:12.000Z</time>
      </trkpt>
      <trkpt lat="43.62907" lon="5.41909">
        <ele>378.20001220703</ele>
        <time>2013-02-14T14:33:22.000Z</time>
      </trkpt>
      <trkpt lat="43.6292" lon="5.41884">
        <ele>378</ele>
        <time>2013-02-14T14:33:33.000Z</time>
      </trkpt>
      <trkpt lat="43.62921" lon="5.41882">
        <ele>378</ele>
        <time>2013-02-14T14:33:34.000Z</time>
      </trkpt>
      <trkpt lat="43.62922" lon="5.41879">
        <ele>378</ele>
        <time>2013-02-14T14:33:35.000Z</time>
      </trkpt>
      <trkpt lat="43.62923" lon="5.41877">
        <ele>378</ele>
        <time>2013-02-14T14:33:36.000Z</time>
      </trkpt>
      <trkpt lat="43.62924" lon="5.41875">
        <ele>378</ele>
        <time>2013-02-14T14:33:37.000Z</time>
      </trkpt>
      <trkpt lat="43.62925" lon="5.41872">
        <ele>378.20001220703</ele>
        <time>2013-02-14T14:33:38.000Z</time>
      </trkpt>
      <trkpt lat="43.62927" lon="5.4187">
        <ele>378</ele>
        <time>2013-02-14T14:33:39.000Z</time>
      </trkpt>
      <trkpt lat="43.62928" lon="5.41868">
        <ele>378</ele>
        <time>2013-02-14T14:33:40.000Z</time>
      </trkpt>
      <trkpt lat="43.62929" lon="5.41866">
        <ele>378</ele>
        <time>2013-02-14T14:33:41.000Z</time>
      </trkpt>
      <trkpt lat="43.6293" lon="5.41864">
        <ele>378</ele>
        <time>2013-02-14T14:33:42.000Z</time>
      </trkpt>
      <trkpt lat="43.62931" lon="5.41861">
        <ele>378.20001220703</ele>
        <time>2013-02-14T14:33:43.000Z</time>
      </trkpt>
      <trkpt lat="43.62933" lon="5.41858">
        <ele>378.20001220703</ele>
        <time>2013-02-14T14:33:44.000Z</time>
      </trkpt>
      <trkpt lat="43.62935" lon="5.41855">
        <ele>378.20001220703</ele>
        <time>2013-02-14T14:33:45.000Z</time>
      </trkpt>
      <trkpt lat="43.62936" lon="5.41852">
        <ele>378.20001220703</ele>
        <time>2013-02-14T14:33:46.000Z</time>
      </trkpt>
      <trkpt lat="43.62953" lon="5.41822">
        <ele>378.20001220703</ele>
        <time>2013-02-14T14:33:55.000Z</time>
      </trkpt>
      <trkpt lat="43.62977" lon="5.41779">
        <ele>377.60000610352</ele>
        <time>2013-02-14T14:34:07.000Z</time>
      </trkpt>
      <trkpt lat="43.63" lon="5.41733">
        <ele>377.20001220703</ele>
        <time>2013-02-14T14:34:16.000Z</time>
      </trkpt>
      <trkpt lat="43.63003" lon="5.41725">
        <ele>376.60000610352</ele>
        <time>2013-02-14T14:34:17.000Z</time>
      </trkpt>
      <trkpt lat="43.63014" lon="5.41692">
        <ele>374.20001220703</ele>
        <time>2013-02-14T14:34:21.000Z</time>
      </trkpt>
      <trkpt lat="43.63018" lon="5.4168">
        <ele>373.20001220703</ele>
        <time>2013-02-14T14:34:23.000Z</time>
      </trkpt>
      <trkpt lat="43.63021" lon="5.41664">
        <ele>372.79998779297</ele>
        <time>2013-02-14T14:34:26.000Z</time>
      </trkpt>
      <trkpt lat="43.63019" lon="5.41659">
        <ele>373.39999389648</ele>
        <time>2013-02-14T14:34:27.000Z</time>
      </trkpt>
      <trkpt lat="43.63017" lon="5.41655">
        <ele>374</ele>
        <time>2013-02-14T14:34:28.000Z</time>
      </trkpt>
      <trkpt lat="43.63011" lon="5.41618">
        <ele>377</ele>
        <time>2013-02-14T14:34:37.000Z</time>
      </trkpt>
      <trkpt lat="43.63013" lon="5.41583">
        <ele>378</ele>
        <time>2013-02-14T14:34:46.000Z</time>
      </trkpt>
      <trkpt lat="43.63021" lon="5.41542">
        <ele>379.60000610352</ele>
        <time>2013-02-14T14:34:57.000Z</time>
      </trkpt>
      <trkpt lat="43.63024" lon="5.41536">
        <ele>379.79998779297</ele>
        <time>2013-02-14T14:34:59.000Z</time>
      </trkpt>
      <trkpt lat="43.63027" lon="5.41531">
        <ele>379.60000610352</ele>
        <time>2013-02-14T14:35:01.000Z</time>
      </trkpt>
      <trkpt lat="43.63039" lon="5.41511">
        <ele>380</ele>
        <time>2013-02-14T14:35:08.000Z</time>
      </trkpt>
      <trkpt lat="43.63039" lon="5.41507">
        <ele>380.39999389648</ele>
        <time>2013-02-14T14:35:09.000Z</time>
      </trkpt>
      <trkpt lat="43.63038" lon="5.41504">
        <ele>380.79998779297</ele>
        <time>2013-02-14T14:35:10.000Z</time>
      </trkpt>
      <trkpt lat="43.63035" lon="5.41498">
        <ele>381.60000610352</ele>
        <time>2013-02-14T14:35:12.000Z</time>
      </trkpt>
      <trkpt lat="43.63019" lon="5.41478">
        <ele>383.79998779297</ele>
        <time>2013-02-14T14:35:22.000Z</time>
      </trkpt>
      <trkpt lat="43.63002" lon="5.4149">
        <ele>385.60000610352</ele>
        <time>2013-02-14T14:35:32.000Z</time>
      </trkpt>
      <trkpt lat="43.62979" lon="5.41505">
        <ele>389.39999389648</ele>
        <time>2013-02-14T14:35:44.000Z</time>
      </trkpt>
      <trkpt lat="43.62974" lon="5.41504">
        <ele>390.39999389648</ele>
        <time>2013-02-14T14:35:52.000Z</time>
      </trkpt>
      <trkpt lat="43.62975" lon="5.41503">
        <ele>390.20001220703</ele>
        <time>2013-02-14T14:35:53.000Z</time>
      </trkpt>
      <trkpt lat="43.62977" lon="5.41503">
        <ele>390</ele>
        <time>2013-02-14T14:35:54.000Z</time>
      </trkpt>
      <trkpt lat="43.62979" lon="5.41502">
        <ele>389.60000610352</ele>
        <time>2013-02-14T14:35:55.000Z</time>
      </trkpt>
      <trkpt lat="43.62983" lon="5.415">
        <ele>389</ele>
        <time>2013-02-14T14:35:57.000Z</time>
      </trkpt>
      <trkpt lat="43.6301" lon="5.4148">
        <ele>384.60000610352</ele>
        <time>2013-02-14T14:36:08.000Z</time>
      </trkpt>
      <trkpt lat="43.63022" lon="5.41474">
        <ele>383.39999389648</ele>
        <time>2013-02-14T14:36:12.000Z</time>
      </trkpt>
      <trkpt lat="43.63024" lon="5.41473">
        <ele>383</ele>
        <time>2013-02-14T14:36:13.000Z</time>
      </trkpt>
      <trkpt lat="43.63027" lon="5.41473">
        <ele>382.79998779297</ele>
        <time>2013-02-14T14:36:14.000Z</time>
      </trkpt>
      <trkpt lat="43.63029" lon="5.41474">
        <ele>382.60000610352</ele>
        <time>2013-02-14T14:36:15.000Z</time>
      </trkpt>
      <trkpt lat="43.63031" lon="5.41474">
        <ele>382.20001220703</ele>
        <time>2013-02-14T14:36:16.000Z</time>
      </trkpt>
      <trkpt lat="43.63033" lon="5.41474">
        <ele>382</ele>
        <time>2013-02-14T14:36:17.000Z</time>
      </trkpt>
      <trkpt lat="43.63036" lon="5.41474">
        <ele>381.60000610352</ele>
        <time>2013-02-14T14:36:19.000Z</time>
      </trkpt>
      <trkpt lat="43.63041" lon="5.41477">
        <ele>381.20001220703</ele>
        <time>2013-02-14T14:36:29.000Z</time>
      </trkpt>
      <trkpt lat="43.63041" lon="5.41479">
        <ele>381.20001220703</ele>
        <time>2013-02-14T14:36:43.000Z</time>
      </trkpt>
      <trkpt lat="43.63041" lon="5.41486">
        <ele>381</ele>
        <time>2013-02-14T14:37:21.000Z</time>
      </trkpt>
      <trkpt lat="43.63043" lon="5.41479">
        <ele>381</ele>
        <time>2013-02-14T14:37:32.000Z</time>
      </trkpt>
      <trkpt lat="43.63042" lon="5.41479">
        <ele>381</ele>
        <time>2013-02-14T14:37:40.000Z</time>
      </trkpt>
      <trkpt lat="43.63039" lon="5.41477">
        <ele>381.39999389648</ele>
        <time>2013-02-14T14:37:44.000Z</time>
      </trkpt>
      <trkpt lat="43.63035" lon="5.41475">
        <ele>381.79998779297</ele>
        <time>2013-02-14T14:37:47.000Z</time>
      </trkpt>
      <trkpt lat="43.63025" lon="5.41473">
        <ele>383</ele>
        <time>2013-02-14T14:37:55.000Z</time>
      </trkpt>
      <trkpt lat="43.63024" lon="5.41473">
        <ele>383.20001220703</ele>
        <time>2013-02-14T14:37:56.000Z</time>
      </trkpt>
      <trkpt lat="43.63023" lon="5.41474">
        <ele>383.20001220703</ele>
        <time>2013-02-14T14:37:57.000Z</time>
      </trkpt>
      <trkpt lat="43.63022" lon="5.41476">
        <ele>383.39999389648</ele>
        <time>2013-02-14T14:37:58.000Z</time>
      </trkpt>
      <trkpt lat="43.63021" lon="5.41477">
        <ele>383.39999389648</ele>
        <time>2013-02-14T14:37:59.000Z</time>
      </trkpt>
      <trkpt lat="43.63019" lon="5.41478">
        <ele>383.60000610352</ele>
        <time>2013-02-14T14:38:00.000Z</time>
      </trkpt>
      <trkpt lat="43.63017" lon="5.41479">
        <ele>383.79998779297</ele>
        <time>2013-02-14T14:38:01.000Z</time>
      </trkpt>
      <trkpt lat="43.62999" lon="5.41493">
        <ele>386.20001220703</ele>
        <time>2013-02-14T14:38:10.000Z</time>
      </trkpt>
      <trkpt lat="43.62973" lon="5.41509">
        <ele>390.20001220703</ele>
        <time>2013-02-14T14:38:21.000Z</time>
      </trkpt>
      <trkpt lat="43.6296" lon="5.41519">
        <ele>392</ele>
        <time>2013-02-14T14:38:27.000Z</time>
      </trkpt>
      <trkpt lat="43.62958" lon="5.41517">
        <ele>392.39999389648</ele>
        <time>2013-02-14T14:38:28.000Z</time>
      </trkpt>
      <trkpt lat="43.62956" lon="5.41513">
        <ele>393</ele>
        <time>2013-02-14T14:38:29.000Z</time>
      </trkpt>
      <trkpt lat="43.62955" lon="5.41508">
        <ele>393.39999389648</ele>
        <time>2013-02-14T14:38:30.000Z</time>
      </trkpt>
      <trkpt lat="43.62955" lon="5.41504">
        <ele>393.79998779297</ele>
        <time>2013-02-14T14:38:31.000Z</time>
      </trkpt>
      <trkpt lat="43.62955" lon="5.415">
        <ele>394</ele>
        <time>2013-02-14T14:38:32.000Z</time>
      </trkpt>
      <trkpt lat="43.62954" lon="5.41497">
        <ele>394.20001220703</ele>
        <time>2013-02-14T14:38:33.000Z</time>
      </trkpt>
      <trkpt lat="43.62954" lon="5.41494">
        <ele>394.20001220703</ele>
        <time>2013-02-14T14:38:34.000Z</time>
      </trkpt>
      <trkpt lat="43.62952" lon="5.41472">
        <ele>394.39999389648</ele>
        <time>2013-02-14T14:38:43.000Z</time>
      </trkpt>
      <trkpt lat="43.62948" lon="5.41439">
        <ele>394.79998779297</ele>
        <time>2013-02-14T14:38:55.000Z</time>
      </trkpt>
      <trkpt lat="43.62948" lon="5.41409">
        <ele>394.39999389648</ele>
        <time>2013-02-14T14:39:05.000Z</time>
      </trkpt>
      <trkpt lat="43.62948" lon="5.41379">
        <ele>393.79998779297</ele>
        <time>2013-02-14T14:39:14.000Z</time>
      </trkpt>
      <trkpt lat="43.62949" lon="5.41359">
        <ele>393.39999389648</ele>
        <time>2013-02-14T14:39:20.000Z</time>
      </trkpt>
      <trkpt lat="43.62948" lon="5.41357">
        <ele>393.39999389648</ele>
        <time>2013-02-14T14:39:21.000Z</time>
      </trkpt>
      <trkpt lat="43.62948" lon="5.41355">
        <ele>393.39999389648</ele>
        <time>2013-02-14T14:39:22.000Z</time>
      </trkpt>
      <trkpt lat="43.62949" lon="5.41352">
        <ele>393.20001220703</ele>
        <time>2013-02-14T14:39:23.000Z</time>
      </trkpt>
      <trkpt lat="43.62949" lon="5.41349">
        <ele>393</ele>
        <time>2013-02-14T14:39:24.000Z</time>
      </trkpt>
      <trkpt lat="43.6295" lon="5.41347">
        <ele>393</ele>
        <time>2013-02-14T14:39:25.000Z</time>
      </trkpt>
      <trkpt lat="43.6295" lon="5.41345">
        <ele>392.79998779297</ele>
        <time>2013-02-14T14:39:26.000Z</time>
      </trkpt>
      <trkpt lat="43.62949" lon="5.41343">
        <ele>393</ele>
        <time>2013-02-14T14:39:37.000Z</time>
      </trkpt>
      <trkpt lat="43.6295" lon="5.41339">
        <ele>392.79998779297</ele>
        <time>2013-02-14T14:39:48.000Z</time>
      </trkpt>
      <trkpt lat="43.6295" lon="5.41336">
        <ele>392.60000610352</ele>
        <time>2013-02-14T14:39:49.000Z</time>
      </trkpt>
      <trkpt lat="43.62948" lon="5.41302">
        <ele>394</ele>
        <time>2013-02-14T14:39:59.000Z</time>
      </trkpt>
      <trkpt lat="43.62943" lon="5.41271">
        <ele>396.20001220703</ele>
        <time>2013-02-14T14:40:07.000Z</time>
      </trkpt>
      <trkpt lat="43.62948" lon="5.41246">
        <ele>395.79998779297</ele>
        <time>2013-02-14T14:40:15.000Z</time>
      </trkpt>
      <trkpt lat="43.62948" lon="5.41238">
        <ele>395.79998779297</ele>
        <time>2013-02-14T14:40:18.000Z</time>
      </trkpt>
      <trkpt lat="43.62949" lon="5.41235">
        <ele>395.60000610352</ele>
        <time>2013-02-14T14:40:19.000Z</time>
      </trkpt>
      <trkpt lat="43.62958" lon="5.41211">
        <ele>393.79998779297</ele>
        <time>2013-02-14T14:40:26.000Z</time>
      </trkpt>
      <trkpt lat="43.62949" lon="5.41183">
        <ele>395</ele>
        <time>2013-02-14T14:40:36.000Z</time>
      </trkpt>
      <trkpt lat="43.62933" lon="5.41165">
        <ele>397.20001220703</ele>
        <time>2013-02-14T14:40:45.000Z</time>
      </trkpt>
      <trkpt lat="43.62909" lon="5.41136">
        <ele>397.20001220703</ele>
        <time>2013-02-14T14:40:56.000Z</time>
      </trkpt>
      <trkpt lat="43.62887" lon="5.41104">
        <ele>397.20001220703</ele>
        <time>2013-02-14T14:41:07.000Z</time>
      </trkpt>
      <trkpt lat="43.62862" lon="5.41089">
        <ele>399.60000610352</ele>
        <time>2013-02-14T14:41:16.000Z</time>
      </trkpt>
      <trkpt lat="43.62835" lon="5.41066">
        <ele>402</ele>
        <time>2013-02-14T14:41:26.000Z</time>
      </trkpt>
      <trkpt lat="43.62819" lon="5.41044">
        <ele>403.60000610352</ele>
        <time>2013-02-14T14:41:34.000Z</time>
      </trkpt>
      <trkpt lat="43.62798" lon="5.41012">
        <ele>405</ele>
        <time>2013-02-14T14:41:44.000Z</time>
      </trkpt>
      <trkpt lat="43.62795" lon="5.4099">
        <ele>403.39999389648</ele>
        <time>2013-02-14T14:41:49.000Z</time>
      </trkpt>
      <trkpt lat="43.62795" lon="5.40984">
        <ele>402.79998779297</ele>
        <time>2013-02-14T14:41:50.000Z</time>
      </trkpt>
      <trkpt lat="43.62794" lon="5.40977">
        <ele>402.60000610352</ele>
        <time>2013-02-14T14:41:51.000Z</time>
      </trkpt>
      <trkpt lat="43.62792" lon="5.40971">
        <ele>402.39999389648</ele>
        <time>2013-02-14T14:41:52.000Z</time>
      </trkpt>
      <trkpt lat="43.6279" lon="5.40965">
        <ele>402.39999389648</ele>
        <time>2013-02-14T14:41:53.000Z</time>
      </trkpt>
      <trkpt lat="43.62789" lon="5.4096">
        <ele>402.39999389648</ele>
        <time>2013-02-14T14:41:54.000Z</time>
      </trkpt>
      <trkpt lat="43.62788" lon="5.40957">
        <ele>402.20001220703</ele>
        <time>2013-02-14T14:41:55.000Z</time>
      </trkpt>
      <trkpt lat="43.62788" lon="5.40953">
        <ele>401.79998779297</ele>
        <time>2013-02-14T14:41:56.000Z</time>
      </trkpt>
      <trkpt lat="43.62789" lon="5.40951">
        <ele>401.39999389648</ele>
        <time>2013-02-14T14:41:57.000Z</time>
      </trkpt>
      <trkpt lat="43.62796" lon="5.40939">
        <ele>399.39999389648</ele>
        <time>2013-02-14T14:42:02.000Z</time>
      </trkpt>
      <trkpt lat="43.62796" lon="5.40926">
        <ele>398.39999389648</ele>
        <time>2013-02-14T14:42:11.000Z</time>
      </trkpt>
      <trkpt lat="43.62795" lon="5.40924">
        <ele>398.39999389648</ele>
        <time>2013-02-14T14:42:14.000Z</time>
      </trkpt>
      <trkpt lat="43.62787" lon="5.40923">
        <ele>399.60000610352</ele>
        <time>2013-02-14T14:42:21.000Z</time>
      </trkpt>
      <trkpt lat="43.62771" lon="5.40913">
        <ele>402</ele>
        <time>2013-02-14T14:42:32.000Z</time>
      </trkpt>
      <trkpt lat="43.62757" lon="5.40911">
        <ele>404.60000610352</ele>
        <time>2013-02-14T14:42:42.000Z</time>
      </trkpt>
      <trkpt lat="43.62754" lon="5.40909">
        <ele>405.39999389648</ele>
        <time>2013-02-14T14:42:44.000Z</time>
      </trkpt>
      <trkpt lat="43.62752" lon="5.40907">
        <ele>406</ele>
        <time>2013-02-14T14:42:46.000Z</time>
      </trkpt>
      <trkpt lat="43.62747" lon="5.40908">
        <ele>406.79998779297</ele>
        <time>2013-02-14T14:42:50.000Z</time>
      </trkpt>
      <trkpt lat="43.62737" lon="5.40907">
        <ele>409</ele>
        <time>2013-02-14T14:43:00.000Z</time>
      </trkpt>
      <trkpt lat="43.62733" lon="5.40905">
        <ele>410.39999389648</ele>
        <time>2013-02-14T14:43:05.000Z</time>
      </trkpt>
      <trkpt lat="43.62728" lon="5.40903">
        <ele>411.79998779297</ele>
        <time>2013-02-14T14:43:10.000Z</time>
      </trkpt>
      <trkpt lat="43.62723" lon="5.40898">
        <ele>413.39999389648</ele>
        <time>2013-02-14T14:43:14.000Z</time>
      </trkpt>
      <trkpt lat="43.62708" lon="5.40895">
        <ele>417.39999389648</ele>
        <time>2013-02-14T14:43:24.000Z</time>
      </trkpt>
      <trkpt lat="43.62705" lon="5.4089">
        <ele>418.79998779297</ele>
        <time>2013-02-14T14:43:28.000Z</time>
      </trkpt>
      <trkpt lat="43.62706" lon="5.40874">
        <ele>421</ele>
        <time>2013-02-14T14:43:38.000Z</time>
      </trkpt>
      <trkpt lat="43.62707" lon="5.40864">
        <ele>422.39999389648</ele>
        <time>2013-02-14T14:43:45.000Z</time>
      </trkpt>
      <trkpt lat="43.62715" lon="5.40848">
        <ele>423</ele>
        <time>2013-02-14T14:43:58.000Z</time>
      </trkpt>
      <trkpt lat="43.62715" lon="5.40846">
        <ele>423.39999389648</ele>
        <time>2013-02-14T14:44:16.000Z</time>
      </trkpt>
      <trkpt lat="43.62714" lon="5.40845">
        <ele>423.60000610352</ele>
        <time>2013-02-14T14:44:30.000Z</time>
      </trkpt>
      <trkpt lat="43.62715" lon="5.40842">
        <ele>424.20001220703</ele>
        <time>2013-02-14T14:44:45.000Z</time>
      </trkpt>
      <trkpt lat="43.62717" lon="5.40838">
        <ele>424</ele>
        <time>2013-02-14T14:45:03.000Z</time>
      </trkpt>
      <trkpt lat="43.62718" lon="5.40839">
        <ele>423.79998779297</ele>
        <time>2013-02-14T14:45:15.000Z</time>
      </trkpt>
      <trkpt lat="43.62718" lon="5.40842">
        <ele>423.39999389648</ele>
        <time>2013-02-14T14:45:22.000Z</time>
      </trkpt>
      <trkpt lat="43.62719" lon="5.40841">
        <ele>423.20001220703</ele>
        <time>2013-02-14T14:45:23.000Z</time>
      </trkpt>
      <trkpt lat="43.62724" lon="5.40838">
        <ele>422.60000610352</ele>
        <time>2013-02-14T14:45:27.000Z</time>
      </trkpt>
      <trkpt lat="43.62743" lon="5.40824">
        <ele>420.79998779297</ele>
        <time>2013-02-14T14:45:37.000Z</time>
      </trkpt>
      <trkpt lat="43.62766" lon="5.40808">
        <ele>420</ele>
        <time>2013-02-14T14:45:48.000Z</time>
      </trkpt>
      <trkpt lat="43.62785" lon="5.40788">
        <ele>420.79998779297</ele>
        <time>2013-02-14T14:45:58.000Z</time>
      </trkpt>
      <trkpt lat="43.62806" lon="5.40769">
        <ele>421.20001220703</ele>
        <time>2013-02-14T14:46:08.000Z</time>
      </trkpt>
      <trkpt lat="43.62825" lon="5.40751">
        <ele>421.39999389648</ele>
        <time>2013-02-14T14:46:17.000Z</time>
      </trkpt>
      <trkpt lat="43.62852" lon="5.40731">
        <ele>420</ele>
        <time>2013-02-14T14:46:28.000Z</time>
      </trkpt>
      <trkpt lat="43.62881" lon="5.40699">
        <ele>421</ele>
        <time>2013-02-14T14:46:38.000Z</time>
      </trkpt>
      <trkpt lat="43.62904" lon="5.40674">
        <ele>422</ele>
        <time>2013-02-14T14:46:48.000Z</time>
      </trkpt>
      <trkpt lat="43.62925" lon="5.40657">
        <ele>422.60000610352</ele>
        <time>2013-02-14T14:46:58.000Z</time>
      </trkpt>
      <trkpt lat="43.6295" lon="5.40663">
        <ele>422.20001220703</ele>
        <time>2013-02-14T14:47:08.000Z</time>
      </trkpt>
      <trkpt lat="43.62967" lon="5.40664">
        <ele>422.39999389648</ele>
        <time>2013-02-14T14:47:17.000Z</time>
      </trkpt>
      <trkpt lat="43.62968" lon="5.40663">
        <ele>422.39999389648</ele>
        <time>2013-02-14T14:47:18.000Z</time>
      </trkpt>
      <trkpt lat="43.62974" lon="5.4066">
        <ele>422.79998779297</ele>
        <time>2013-02-14T14:47:22.000Z</time>
      </trkpt>
      <trkpt lat="43.62977" lon="5.40656">
        <ele>423.39999389648</ele>
        <time>2013-02-14T14:47:25.000Z</time>
      </trkpt>
      <trkpt lat="43.62976" lon="5.40646">
        <ele>424.39999389648</ele>
        <time>2013-02-14T14:47:31.000Z</time>
      </trkpt>
      <trkpt lat="43.62965" lon="5.4063">
        <ele>426</ele>
        <time>2013-02-14T14:47:42.000Z</time>
      </trkpt>
      <trkpt lat="43.62953" lon="5.40616">
        <ele>427.79998779297</ele>
        <time>2013-02-14T14:47:52.000Z</time>
      </trkpt>
      <trkpt lat="43.62938" lon="5.40608">
        <ele>429.39999389648</ele>
        <time>2013-02-14T14:48:03.000Z</time>
      </trkpt>
      <trkpt lat="43.62928" lon="5.40604">
        <ele>430.20001220703</ele>
        <time>2013-02-14T14:48:10.000Z</time>
      </trkpt>
      <trkpt lat="43.62907" lon="5.40608">
        <ele>431</ele>
        <time>2013-02-14T14:48:24.000Z</time>
      </trkpt>
      <trkpt lat="43.62887" lon="5.40607">
        <ele>433.20001220703</ele>
        <time>2013-02-14T14:48:37.000Z</time>
      </trkpt>
      <trkpt lat="43.62885" lon="5.40606">
        <ele>433.39999389648</ele>
        <time>2013-02-14T14:48:38.000Z</time>
      </trkpt>
      <trkpt lat="43.62881" lon="5.40606">
        <ele>433.79998779297</ele>
        <time>2013-02-14T14:48:41.000Z</time>
      </trkpt>
      <trkpt lat="43.62865" lon="5.40606">
        <ele>435.39999389648</ele>
        <time>2013-02-14T14:48:52.000Z</time>
      </trkpt>
      <trkpt lat="43.62861" lon="5.40605">
        <ele>436</ele>
        <time>2013-02-14T14:49:00.000Z</time>
      </trkpt>
      <trkpt lat="43.62858" lon="5.40605">
        <ele>436.20001220703</ele>
        <time>2013-02-14T14:49:14.000Z</time>
      </trkpt>
      <trkpt lat="43.62853" lon="5.40606">
        <ele>436.79998779297</ele>
        <time>2013-02-14T14:49:47.000Z</time>
      </trkpt>
      <trkpt lat="43.62851" lon="5.40604">
        <ele>437</ele>
        <time>2013-02-14T14:50:10.000Z</time>
      </trkpt>
      <trkpt lat="43.62852" lon="5.40605">
        <ele>436.79998779297</ele>
        <time>2013-02-14T14:50:17.000Z</time>
      </trkpt>
      <trkpt lat="43.62851" lon="5.40605">
        <ele>437</ele>
        <time>2013-02-14T14:50:21.000Z</time>
      </trkpt>
      <trkpt lat="43.62842" lon="5.40617">
        <ele>437.39999389648</ele>
        <time>2013-02-14T14:50:30.000Z</time>
      </trkpt>
      <trkpt lat="43.62834" lon="5.40637">
        <ele>438</ele>
        <time>2013-02-14T14:50:40.000Z</time>
      </trkpt>
      <trkpt lat="43.62821" lon="5.4065">
        <ele>439.39999389648</ele>
        <time>2013-02-14T14:50:48.000Z</time>
      </trkpt>
      <trkpt lat="43.62815" lon="5.40656">
        <ele>440.20001220703</ele>
        <time>2013-02-14T14:50:51.000Z</time>
      </trkpt>
      <trkpt lat="43.62813" lon="5.40658">
        <ele>440.39999389648</ele>
        <time>2013-02-14T14:50:52.000Z</time>
      </trkpt>
      <trkpt lat="43.62811" lon="5.40661">
        <ele>440.60000610352</ele>
        <time>2013-02-14T14:50:53.000Z</time>
      </trkpt>
      <trkpt lat="43.62809" lon="5.40663">
        <ele>440.79998779297</ele>
        <time>2013-02-14T14:50:54.000Z</time>
      </trkpt>
      <trkpt lat="43.62806" lon="5.40665">
        <ele>441.20001220703</ele>
        <time>2013-02-14T14:50:55.000Z</time>
      </trkpt>
      <trkpt lat="43.62804" lon="5.40667">
        <ele>441.39999389648</ele>
        <time>2013-02-14T14:50:56.000Z</time>
      </trkpt>
      <trkpt lat="43.62801" lon="5.40669">
        <ele>441.39999389648</ele>
        <time>2013-02-14T14:50:57.000Z</time>
      </trkpt>
      <trkpt lat="43.62798" lon="5.40671">
        <ele>441.39999389648</ele>
        <time>2013-02-14T14:50:58.000Z</time>
      </trkpt>
      <trkpt lat="43.62776" lon="5.4069">
        <ele>441.39999389648</ele>
        <time>2013-02-14T14:51:07.000Z</time>
      </trkpt>
      <trkpt lat="43.62756" lon="5.40711">
        <ele>442</ele>
        <time>2013-02-14T14:51:16.000Z</time>
      </trkpt>
      <trkpt lat="43.62733" lon="5.40732">
        <ele>442.60000610352</ele>
        <time>2013-02-14T14:51:26.000Z</time>
      </trkpt>
      <trkpt lat="43.62705" lon="5.40756">
        <ele>443</ele>
        <time>2013-02-14T14:51:37.000Z</time>
      </trkpt>
      <trkpt lat="43.62684" lon="5.40776">
        <ele>442.60000610352</ele>
        <time>2013-02-14T14:51:46.000Z</time>
      </trkpt>
      <trkpt lat="43.62659" lon="5.40788">
        <ele>444.39999389648</ele>
        <time>2013-02-14T14:51:55.000Z</time>
      </trkpt>
      <trkpt lat="43.62642" lon="5.40802">
        <ele>445.39999389648</ele>
        <time>2013-02-14T14:52:05.000Z</time>
      </trkpt>
      <trkpt lat="43.62621" lon="5.40817">
        <ele>447.79998779297</ele>
        <time>2013-02-14T14:52:15.000Z</time>
      </trkpt>
      <trkpt lat="43.62603" lon="5.40834">
        <ele>451.39999389648</ele>
        <time>2013-02-14T14:52:24.000Z</time>
      </trkpt>
      <trkpt lat="43.62593" lon="5.40845">
        <ele>452.60000610352</ele>
        <time>2013-02-14T14:52:31.000Z</time>
      </trkpt>
      <trkpt lat="43.62589" lon="5.40851">
        <ele>453.20001220703</ele>
        <time>2013-02-14T14:52:34.000Z</time>
      </trkpt>
      <trkpt lat="43.62574" lon="5.40875">
        <ele>453.79998779297</ele>
        <time>2013-02-14T14:52:45.000Z</time>
      </trkpt>
      <trkpt lat="43.62572" lon="5.40879">
        <ele>453.60000610352</ele>
        <time>2013-02-14T14:52:47.000Z</time>
      </trkpt>
      <trkpt lat="43.6257" lon="5.40883">
        <ele>453.60000610352</ele>
        <time>2013-02-14T14:52:49.000Z</time>
      </trkpt>
      <trkpt lat="43.62569" lon="5.40885">
        <ele>453.60000610352</ele>
        <time>2013-02-14T14:52:50.000Z</time>
      </trkpt>
      <trkpt lat="43.62568" lon="5.40887">
        <ele>453.60000610352</ele>
        <time>2013-02-14T14:52:51.000Z</time>
      </trkpt>
      <trkpt lat="43.62562" lon="5.40905">
        <ele>453.39999389648</ele>
        <time>2013-02-14T14:53:00.000Z</time>
      </trkpt>
      <trkpt lat="43.62561" lon="5.4091">
        <ele>453.39999389648</ele>
        <time>2013-02-14T14:53:03.000Z</time>
      </trkpt>
      <trkpt lat="43.6256" lon="5.40921">
        <ele>453.20001220703</ele>
        <time>2013-02-14T14:53:07.000Z</time>
      </trkpt>
      <trkpt lat="43.62555" lon="5.40931">
        <ele>453.60000610352</ele>
        <time>2013-02-14T14:53:12.000Z</time>
      </trkpt>
      <trkpt lat="43.62553" lon="5.40939">
        <ele>453.60000610352</ele>
        <time>2013-02-14T14:53:16.000Z</time>
      </trkpt>
      <trkpt lat="43.6254" lon="5.40954">
        <ele>455</ele>
        <time>2013-02-14T14:53:28.000Z</time>
      </trkpt>
      <trkpt lat="43.62527" lon="5.40963">
        <ele>457</ele>
        <time>2013-02-14T14:53:39.000Z</time>
      </trkpt>
      <trkpt lat="43.62521" lon="5.40967">
        <ele>457.79998779297</ele>
        <time>2013-02-14T14:53:43.000Z</time>
      </trkpt>
      <trkpt lat="43.62511" lon="5.40978">
        <ele>459.20001220703</ele>
        <time>2013-02-14T14:53:53.000Z</time>
      </trkpt>
      <trkpt lat="43.625" lon="5.40992">
        <ele>461</ele>
        <time>2013-02-14T14:54:03.000Z</time>
      </trkpt>
      <trkpt lat="43.62499" lon="5.40994">
        <ele>461.20001220703</ele>
        <time>2013-02-14T14:54:05.000Z</time>
      </trkpt>
      <trkpt lat="43.62496" lon="5.40994">
        <ele>461.60000610352</ele>
        <time>2013-02-14T14:54:07.000Z</time>
      </trkpt>
      <trkpt lat="43.62493" lon="5.40996">
        <ele>462</ele>
        <time>2013-02-14T14:54:09.000Z</time>
      </trkpt>
      <trkpt lat="43.62488" lon="5.41005">
        <ele>463</ele>
        <time>2013-02-14T14:54:14.000Z</time>
      </trkpt>
      <trkpt lat="43.62476" lon="5.41032">
        <ele>466</ele>
        <time>2013-02-14T14:54:26.000Z</time>
      </trkpt>
      <trkpt lat="43.62476" lon="5.41048">
        <ele>466.39999389648</ele>
        <time>2013-02-14T14:54:32.000Z</time>
      </trkpt>
      <trkpt lat="43.62476" lon="5.41053">
        <ele>466.60000610352</ele>
        <time>2013-02-14T14:54:34.000Z</time>
      </trkpt>
      <trkpt lat="43.62479" lon="5.41068">
        <ele>466.39999389648</ele>
        <time>2013-02-14T14:54:39.000Z</time>
      </trkpt>
      <trkpt lat="43.62482" lon="5.4108">
        <ele>466.39999389648</ele>
        <time>2013-02-14T14:54:48.000Z</time>
      </trkpt>
      <trkpt lat="43.62482" lon="5.41082">
        <ele>466.20001220703</ele>
        <time>2013-02-14T14:54:49.000Z</time>
      </trkpt>
      <trkpt lat="43.62484" lon="5.41087">
        <ele>466.39999389648</ele>
        <time>2013-02-14T14:54:52.000Z</time>
      </trkpt>
      <trkpt lat="43.62484" lon="5.41089">
        <ele>466.39999389648</ele>
        <time>2013-02-14T14:54:53.000Z</time>
      </trkpt>
      <trkpt lat="43.62483" lon="5.41101">
        <ele>467.79998779297</ele>
        <time>2013-02-14T14:55:01.000Z</time>
      </trkpt>
      <trkpt lat="43.62481" lon="5.41111">
        <ele>469</ele>
        <time>2013-02-14T14:55:07.000Z</time>
      </trkpt>
      <trkpt lat="43.62481" lon="5.41113">
        <ele>469.39999389648</ele>
        <time>2013-02-14T14:55:08.000Z</time>
      </trkpt>
      <trkpt lat="43.6248" lon="5.41123">
        <ele>470.39999389648</ele>
        <time>2013-02-14T14:55:18.000Z</time>
      </trkpt>
      <trkpt lat="43.62479" lon="5.41126">
        <ele>470.79998779297</ele>
        <time>2013-02-14T14:55:23.000Z</time>
      </trkpt>
      <trkpt lat="43.6248" lon="5.41129">
        <ele>470.79998779297</ele>
        <time>2013-02-14T14:55:25.000Z</time>
      </trkpt>
      <trkpt lat="43.6248" lon="5.41145">
        <ele>472.39999389648</ele>
        <time>2013-02-14T14:55:36.000Z</time>
      </trkpt>
      <trkpt lat="43.62472" lon="5.41156">
        <ele>474.39999389648</ele>
        <time>2013-02-14T14:55:46.000Z</time>
      </trkpt>
      <trkpt lat="43.62469" lon="5.4116">
        <ele>475.20001220703</ele>
        <time>2013-02-14T14:55:51.000Z</time>
      </trkpt>
      <trkpt lat="43.6246" lon="5.41166">
        <ele>476.60000610352</ele>
        <time>2013-02-14T14:56:01.000Z</time>
      </trkpt>
      <trkpt lat="43.62457" lon="5.41171">
        <ele>477.39999389648</ele>
        <time>2013-02-14T14:56:06.000Z</time>
      </trkpt>
      <trkpt lat="43.62456" lon="5.41172">
        <ele>477.60000610352</ele>
        <time>2013-02-14T14:56:07.000Z</time>
      </trkpt>
      <trkpt lat="43.62454" lon="5.41185">
        <ele>478.39999389648</ele>
        <time>2013-02-14T14:56:15.000Z</time>
      </trkpt>
      <trkpt lat="43.62455" lon="5.41193">
        <ele>479</ele>
        <time>2013-02-14T14:56:19.000Z</time>
      </trkpt>
      <trkpt lat="43.62454" lon="5.41197">
        <ele>479.39999389648</ele>
        <time>2013-02-14T14:56:21.000Z</time>
      </trkpt>
      <trkpt lat="43.62446" lon="5.41215">
        <ele>481</ele>
        <time>2013-02-14T14:56:31.000Z</time>
      </trkpt>
      <trkpt lat="43.62431" lon="5.41222">
        <ele>482.20001220703</ele>
        <time>2013-02-14T14:56:41.000Z</time>
      </trkpt>
      <trkpt lat="43.62425" lon="5.41238">
        <ele>483.20001220703</ele>
        <time>2013-02-14T14:56:50.000Z</time>
      </trkpt>
      <trkpt lat="43.62423" lon="5.41237">
        <ele>483.20001220703</ele>
        <time>2013-02-14T14:57:01.000Z</time>
      </trkpt>
      <trkpt lat="43.62424" lon="5.41238">
        <ele>483.20001220703</ele>
        <time>2013-02-14T14:57:22.000Z</time>
      </trkpt>
      <trkpt lat="43.62426" lon="5.4124">
        <ele>483.20001220703</ele>
        <time>2013-02-14T14:57:42.000Z</time>
      </trkpt>
      <trkpt lat="43.62425" lon="5.4124">
        <ele>483.20001220703</ele>
        <time>2013-02-14T14:58:00.000Z</time>
      </trkpt>
      <trkpt lat="43.62423" lon="5.41242">
        <ele>483.39999389648</ele>
        <time>2013-02-14T14:58:19.000Z</time>
      </trkpt>
      <trkpt lat="43.62421" lon="5.41242">
        <ele>483.39999389648</ele>
        <time>2013-02-14T14:58:24.000Z</time>
      </trkpt>
      <trkpt lat="43.62415" lon="5.4124">
        <ele>483.79998779297</ele>
        <time>2013-02-14T14:58:29.000Z</time>
      </trkpt>
      <trkpt lat="43.62408" lon="5.4124">
        <ele>484.20001220703</ele>
        <time>2013-02-14T14:58:35.000Z</time>
      </trkpt>
      <trkpt lat="43.62404" lon="5.41235">
        <ele>484.39999389648</ele>
        <time>2013-02-14T14:58:38.000Z</time>
      </trkpt>
      <trkpt lat="43.62402" lon="5.41227">
        <ele>484.20001220703</ele>
        <time>2013-02-14T14:58:42.000Z</time>
      </trkpt>
      <trkpt lat="43.62398" lon="5.41199">
        <ele>483.79998779297</ele>
        <time>2013-02-14T14:58:52.000Z</time>
      </trkpt>
      <trkpt lat="43.62391" lon="5.41174">
        <ele>483.60000610352</ele>
        <time>2013-02-14T14:59:02.000Z</time>
      </trkpt>
      <trkpt lat="43.62378" lon="5.41152">
        <ele>483.60000610352</ele>
        <time>2013-02-14T14:59:12.000Z</time>
      </trkpt>
      <trkpt lat="43.62363" lon="5.4114">
        <ele>484.20001220703</ele>
        <time>2013-02-14T14:59:20.000Z</time>
      </trkpt>
      <trkpt lat="43.62341" lon="5.41127">
        <ele>485</ele>
        <time>2013-02-14T14:59:27.000Z</time>
      </trkpt>
      <trkpt lat="43.62339" lon="5.41125">
        <ele>485</ele>
        <time>2013-02-14T14:59:28.000Z</time>
      </trkpt>
      <trkpt lat="43.62335" lon="5.41122">
        <ele>485.20001220703</ele>
        <time>2013-02-14T14:59:29.000Z</time>
      </trkpt>
      <trkpt lat="43.62302" lon="5.41111">
        <ele>486</ele>
        <time>2013-02-14T14:59:39.000Z</time>
      </trkpt>
      <trkpt lat="43.62299" lon="5.41112">
        <ele>486.20001220703</ele>
        <time>2013-02-14T14:59:40.000Z</time>
      </trkpt>
      <trkpt lat="43.62291" lon="5.4112">
        <ele>486.79998779297</ele>
        <time>2013-02-14T14:59:44.000Z</time>
      </trkpt>
      <trkpt lat="43.6229" lon="5.4112">
        <ele>486.79998779297</ele>
        <time>2013-02-14T14:59:45.000Z</time>
      </trkpt>
      <trkpt lat="43.62289" lon="5.41119">
        <ele>486.79998779297</ele>
        <time>2013-02-14T14:59:46.000Z</time>
      </trkpt>
      <trkpt lat="43.62289" lon="5.41116">
        <ele>486.60000610352</ele>
        <time>2013-02-14T14:59:47.000Z</time>
      </trkpt>
      <trkpt lat="43.62289" lon="5.41113">
        <ele>486.60000610352</ele>
        <time>2013-02-14T14:59:48.000Z</time>
      </trkpt>
      <trkpt lat="43.6229" lon="5.41111">
        <ele>486.39999389648</ele>
        <time>2013-02-14T14:59:49.000Z</time>
      </trkpt>
      <trkpt lat="43.62292" lon="5.41108">
        <ele>486.20001220703</ele>
        <time>2013-02-14T14:59:50.000Z</time>
      </trkpt>
      <trkpt lat="43.62293" lon="5.41105">
        <ele>486.20001220703</ele>
        <time>2013-02-14T14:59:51.000Z</time>
      </trkpt>
      <trkpt lat="43.62295" lon="5.41104">
        <ele>486</ele>
        <time>2013-02-14T14:59:52.000Z</time>
      </trkpt>
      <trkpt lat="43.62296" lon="5.41102">
        <ele>486</ele>
        <time>2013-02-14T14:59:53.000Z</time>
      </trkpt>
      <trkpt lat="43.62298" lon="5.41101">
        <ele>485.79998779297</ele>
        <time>2013-02-14T14:59:54.000Z</time>
      </trkpt>
      <trkpt lat="43.62298" lon="5.41098">
        <ele>485.79998779297</ele>
        <time>2013-02-14T14:59:56.000Z</time>
      </trkpt>
      <trkpt lat="43.62297" lon="5.41096">
        <ele>485.60000610352</ele>
        <time>2013-02-14T14:59:57.000Z</time>
      </trkpt>
      <trkpt lat="43.62296" lon="5.41093">
        <ele>485.60000610352</ele>
        <time>2013-02-14T14:59:58.000Z</time>
      </trkpt>
      <trkpt lat="43.62294" lon="5.4109">
        <ele>485.60000610352</ele>
        <time>2013-02-14T14:59:59.000Z</time>
      </trkpt>
      <trkpt lat="43.62291" lon="5.41088">
        <ele>485.60000610352</ele>
        <time>2013-02-14T15:00:00.000Z</time>
      </trkpt>
      <trkpt lat="43.6228" lon="5.4106">
        <ele>485.60000610352</ele>
        <time>2013-02-14T15:00:10.000Z</time>
      </trkpt>
      <trkpt lat="43.62281" lon="5.41024">
        <ele>485.39999389648</ele>
        <time>2013-02-14T15:00:21.000Z</time>
      </trkpt>
      <trkpt lat="43.62287" lon="5.40991">
        <ele>485.20001220703</ele>
        <time>2013-02-14T15:00:30.000Z</time>
      </trkpt>
      <trkpt lat="43.62287" lon="5.40979">
        <ele>485.20001220703</ele>
        <time>2013-02-14T15:00:32.000Z</time>
      </trkpt>
      <trkpt lat="43.62286" lon="5.40973">
        <ele>485.39999389648</ele>
        <time>2013-02-14T15:00:33.000Z</time>
      </trkpt>
      <trkpt lat="43.62283" lon="5.40931">
        <ele>486</ele>
        <time>2013-02-14T15:00:44.000Z</time>
      </trkpt>
      <trkpt lat="43.62277" lon="5.40899">
        <ele>484.79998779297</ele>
        <time>2013-02-14T15:00:53.000Z</time>
      </trkpt>
      <trkpt lat="43.62256" lon="5.40871">
        <ele>483.60000610352</ele>
        <time>2013-02-14T15:01:01.000Z</time>
      </trkpt>
      <trkpt lat="43.62215" lon="5.40856">
        <ele>484.20001220703</ele>
        <time>2013-02-14T15:01:12.000Z</time>
      </trkpt>
      <trkpt lat="43.62179" lon="5.40843">
        <ele>485</ele>
        <time>2013-02-14T15:01:22.000Z</time>
      </trkpt>
      <trkpt lat="43.62144" lon="5.40833">
        <ele>485.39999389648</ele>
        <time>2013-02-14T15:01:32.000Z</time>
      </trkpt>
      <trkpt lat="43.62113" lon="5.40831">
        <ele>486</ele>
        <time>2013-02-14T15:01:42.000Z</time>
      </trkpt>
      <trkpt lat="43.6207" lon="5.40827">
        <ele>487.20001220703</ele>
        <time>2013-02-14T15:01:54.000Z</time>
      </trkpt>
      <trkpt lat="43.6204" lon="5.40832">
        <ele>488.39999389648</ele>
        <time>2013-02-14T15:02:04.000Z</time>
      </trkpt>
      <trkpt lat="43.62013" lon="5.4084">
        <ele>489.79998779297</ele>
        <time>2013-02-14T15:02:14.000Z</time>
      </trkpt>
      <trkpt lat="43.61985" lon="5.40849">
        <ele>490.79998779297</ele>
        <time>2013-02-14T15:02:24.000Z</time>
      </trkpt>
      <trkpt lat="43.61952" lon="5.40852">
        <ele>491.20001220703</ele>
        <time>2013-02-14T15:02:35.000Z</time>
      </trkpt>
      <trkpt lat="43.61924" lon="5.40851">
        <ele>491.39999389648</ele>
        <time>2013-02-14T15:02:45.000Z</time>
      </trkpt>
      <trkpt lat="43.61895" lon="5.40852">
        <ele>491.60000610352</ele>
        <time>2013-02-14T15:02:56.000Z</time>
      </trkpt>
      <trkpt lat="43.6187" lon="5.40859">
        <ele>492</ele>
        <time>2013-02-14T15:03:06.000Z</time>
      </trkpt>
      <trkpt lat="43.61842" lon="5.40868">
        <ele>492.60000610352</ele>
        <time>2013-02-14T15:03:16.000Z</time>
      </trkpt>
      <trkpt lat="43.61801" lon="5.40873">
        <ele>493.60000610352</ele>
        <time>2013-02-14T15:03:28.000Z</time>
      </trkpt>
      <trkpt lat="43.61756" lon="5.4087">
        <ele>494.79998779297</ele>
        <time>2013-02-14T15:03:41.000Z</time>
      </trkpt>
      <trkpt lat="43.61751" lon="5.4087">
        <ele>494.79998779297</ele>
        <time>2013-02-14T15:03:43.000Z</time>
      </trkpt>
      <trkpt lat="43.61749" lon="5.40871">
        <ele>494.79998779297</ele>
        <time>2013-02-14T15:03:44.000Z</time>
      </trkpt>
      <trkpt lat="43.61748" lon="5.40873">
        <ele>494.79998779297</ele>
        <time>2013-02-14T15:03:45.000Z</time>
      </trkpt>
      <trkpt lat="43.61747" lon="5.40875">
        <ele>494.79998779297</ele>
        <time>2013-02-14T15:03:46.000Z</time>
      </trkpt>
      <trkpt lat="43.61748" lon="5.40878">
        <ele>494.79998779297</ele>
        <time>2013-02-14T15:03:47.000Z</time>
      </trkpt>
      <trkpt lat="43.61748" lon="5.4088">
        <ele>494.79998779297</ele>
        <time>2013-02-14T15:03:48.000Z</time>
      </trkpt>
      <trkpt lat="43.61753" lon="5.40903">
        <ele>494.79998779297</ele>
        <time>2013-02-14T15:03:59.000Z</time>
      </trkpt>
      <trkpt lat="43.61757" lon="5.40921">
        <ele>495</ele>
        <time>2013-02-14T15:04:08.000Z</time>
      </trkpt>
      <trkpt lat="43.61757" lon="5.40924">
        <ele>495</ele>
        <time>2013-02-14T15:04:09.000Z</time>
      </trkpt>
      <trkpt lat="43.61758" lon="5.40927">
        <ele>495</ele>
        <time>2013-02-14T15:04:10.000Z</time>
      </trkpt>
      <trkpt lat="43.61758" lon="5.40929">
        <ele>495.20001220703</ele>
        <time>2013-02-14T15:04:11.000Z</time>
      </trkpt>
      <trkpt lat="43.61758" lon="5.40931">
        <ele>495.20001220703</ele>
        <time>2013-02-14T15:04:12.000Z</time>
      </trkpt>
      <trkpt lat="43.61759" lon="5.40933">
        <ele>495.20001220703</ele>
        <time>2013-02-14T15:04:13.000Z</time>
      </trkpt>
      <trkpt lat="43.61759" lon="5.40935">
        <ele>495.20001220703</ele>
        <time>2013-02-14T15:04:14.000Z</time>
      </trkpt>
      <trkpt lat="43.6176" lon="5.40938">
        <ele>495.20001220703</ele>
        <time>2013-02-14T15:04:15.000Z</time>
      </trkpt>
      <trkpt lat="43.6176" lon="5.4094">
        <ele>495.39999389648</ele>
        <time>2013-02-14T15:04:16.000Z</time>
      </trkpt>
      <trkpt lat="43.6176" lon="5.40942">
        <ele>495.39999389648</ele>
        <time>2013-02-14T15:04:17.000Z</time>
      </trkpt>
      <trkpt lat="43.61764" lon="5.40964">
        <ele>495.79998779297</ele>
        <time>2013-02-14T15:04:27.000Z</time>
      </trkpt>
      <trkpt lat="43.61771" lon="5.40994">
        <ele>496.79998779297</ele>
        <time>2013-02-14T15:04:38.000Z</time>
      </trkpt>
      <trkpt lat="43.61777" lon="5.41018">
        <ele>497.20001220703</ele>
        <time>2013-02-14T15:04:48.000Z</time>
      </trkpt>
      <trkpt lat="43.61786" lon="5.41046">
        <ele>497.79998779297</ele>
        <time>2013-02-14T15:04:59.000Z</time>
      </trkpt>
      <trkpt lat="43.61798" lon="5.41078">
        <ele>499</ele>
        <time>2013-02-14T15:05:11.000Z</time>
      </trkpt>
      <trkpt lat="43.61806" lon="5.41099">
        <ele>499.20001220703</ele>
        <time>2013-02-14T15:05:17.000Z</time>
      </trkpt>
      <trkpt lat="43.61806" lon="5.41127">
        <ele>498.79998779297</ele>
        <time>2013-02-14T15:05:25.000Z</time>
      </trkpt>
      <trkpt lat="43.61806" lon="5.41135">
        <ele>498.60000610352</ele>
        <time>2013-02-14T15:05:33.000Z</time>
      </trkpt>
      <trkpt lat="43.61803" lon="5.41139">
        <ele>498.39999389648</ele>
        <time>2013-02-14T15:05:55.000Z</time>
      </trkpt>
      <trkpt lat="43.61801" lon="5.41151">
        <ele>498</ele>
        <time>2013-02-14T15:06:12.000Z</time>
      </trkpt>
      <trkpt lat="43.6178" lon="5.41186">
        <ele>496.20001220703</ele>
        <time>2013-02-14T15:06:20.000Z</time>
      </trkpt>
      <trkpt lat="43.61774" lon="5.41195">
        <ele>495.60000610352</ele>
        <time>2013-02-14T15:06:22.000Z</time>
      </trkpt>
      <trkpt lat="43.61771" lon="5.41199">
        <ele>495.39999389648</ele>
        <time>2013-02-14T15:06:23.000Z</time>
      </trkpt>
      <trkpt lat="43.61767" lon="5.41202">
        <ele>495.20001220703</ele>
        <time>2013-02-14T15:06:24.000Z</time>
      </trkpt>
      <trkpt lat="43.61762" lon="5.41204">
        <ele>495</ele>
        <time>2013-02-14T15:06:25.000Z</time>
      </trkpt>
      <trkpt lat="43.61759" lon="5.41206">
        <ele>494.79998779297</ele>
        <time>2013-02-14T15:06:26.000Z</time>
      </trkpt>
      <trkpt lat="43.61755" lon="5.41209">
        <ele>494.60000610352</ele>
        <time>2013-02-14T15:06:27.000Z</time>
      </trkpt>
      <trkpt lat="43.61752" lon="5.41211">
        <ele>494.39999389648</ele>
        <time>2013-02-14T15:06:28.000Z</time>
      </trkpt>
      <trkpt lat="43.61749" lon="5.41215">
        <ele>494</ele>
        <time>2013-02-14T15:06:29.000Z</time>
      </trkpt>
      <trkpt lat="43.61746" lon="5.41219">
        <ele>493.79998779297</ele>
        <time>2013-02-14T15:06:30.000Z</time>
      </trkpt>
      <trkpt lat="43.61744" lon="5.41224">
        <ele>493.39999389648</ele>
        <time>2013-02-14T15:06:31.000Z</time>
      </trkpt>
      <trkpt lat="43.61736" lon="5.4124">
        <ele>492.39999389648</ele>
        <time>2013-02-14T15:06:34.000Z</time>
      </trkpt>
      <trkpt lat="43.61735" lon="5.41246">
        <ele>492.20001220703</ele>
        <time>2013-02-14T15:06:35.000Z</time>
      </trkpt>
      <trkpt lat="43.61728" lon="5.41275">
        <ele>491</ele>
        <time>2013-02-14T15:06:40.000Z</time>
      </trkpt>
      <trkpt lat="43.61727" lon="5.41281">
        <ele>491</ele>
        <time>2013-02-14T15:06:41.000Z</time>
      </trkpt>
      <trkpt lat="43.61726" lon="5.41286">
        <ele>490.79998779297</ele>
        <time>2013-02-14T15:06:42.000Z</time>
      </trkpt>
      <trkpt lat="43.61709" lon="5.41323">
        <ele>490</ele>
        <time>2013-02-14T15:06:49.000Z</time>
      </trkpt>
      <trkpt lat="43.61697" lon="5.41341">
        <ele>489.60000610352</ele>
        <time>2013-02-14T15:06:53.000Z</time>
      </trkpt>
      <trkpt lat="43.61695" lon="5.41346">
        <ele>489.39999389648</ele>
        <time>2013-02-14T15:06:54.000Z</time>
      </trkpt>
      <trkpt lat="43.61694" lon="5.41352">
        <ele>489.20001220703</ele>
        <time>2013-02-14T15:06:55.000Z</time>
      </trkpt>
      <trkpt lat="43.61691" lon="5.41357">
        <ele>489</ele>
        <time>2013-02-14T15:06:56.000Z</time>
      </trkpt>
      <trkpt lat="43.61688" lon="5.41361">
        <ele>489</ele>
        <time>2013-02-14T15:06:57.000Z</time>
      </trkpt>
      <trkpt lat="43.61684" lon="5.41364">
        <ele>488.79998779297</ele>
        <time>2013-02-14T15:06:58.000Z</time>
      </trkpt>
      <trkpt lat="43.61679" lon="5.41367">
        <ele>488.60000610352</ele>
        <time>2013-02-14T15:06:59.000Z</time>
      </trkpt>
      <trkpt lat="43.61675" lon="5.4137">
        <ele>488.60000610352</ele>
        <time>2013-02-14T15:07:00.000Z</time>
      </trkpt>
      <trkpt lat="43.6167" lon="5.41372">
        <ele>488.39999389648</ele>
        <time>2013-02-14T15:07:01.000Z</time>
      </trkpt>
      <trkpt lat="43.61665" lon="5.41373">
        <ele>488.39999389648</ele>
        <time>2013-02-14T15:07:02.000Z</time>
      </trkpt>
      <trkpt lat="43.61655" lon="5.41371">
        <ele>487.60000610352</ele>
        <time>2013-02-14T15:07:04.000Z</time>
      </trkpt>
      <trkpt lat="43.61651" lon="5.41368">
        <ele>487.20001220703</ele>
        <time>2013-02-14T15:07:05.000Z</time>
      </trkpt>
      <trkpt lat="43.61647" lon="5.41364">
        <ele>487</ele>
        <time>2013-02-14T15:07:06.000Z</time>
      </trkpt>
      <trkpt lat="43.61645" lon="5.41358">
        <ele>486.79998779297</ele>
        <time>2013-02-14T15:07:07.000Z</time>
      </trkpt>
      <trkpt lat="43.61644" lon="5.41352">
        <ele>487</ele>
        <time>2013-02-14T15:07:08.000Z</time>
      </trkpt>
      <trkpt lat="43.61644" lon="5.41345">
        <ele>487.20001220703</ele>
        <time>2013-02-14T15:07:09.000Z</time>
      </trkpt>
      <trkpt lat="43.61644" lon="5.41337">
        <ele>487.39999389648</ele>
        <time>2013-02-14T15:07:10.000Z</time>
      </trkpt>
      <trkpt lat="43.61643" lon="5.41329">
        <ele>487.20001220703</ele>
        <time>2013-02-14T15:07:11.000Z</time>
      </trkpt>
      <trkpt lat="43.61642" lon="5.41321">
        <ele>487</ele>
        <time>2013-02-14T15:07:12.000Z</time>
      </trkpt>
      <trkpt lat="43.61642" lon="5.41313">
        <ele>486.79998779297</ele>
        <time>2013-02-14T15:07:13.000Z</time>
      </trkpt>
      <trkpt lat="43.61643" lon="5.41306">
        <ele>486.60000610352</ele>
        <time>2013-02-14T15:07:14.000Z</time>
      </trkpt>
      <trkpt lat="43.61644" lon="5.413">
        <ele>486.60000610352</ele>
        <time>2013-02-14T15:07:15.000Z</time>
      </trkpt>
      <trkpt lat="43.61644" lon="5.41295">
        <ele>486.60000610352</ele>
        <time>2013-02-14T15:07:16.000Z</time>
      </trkpt>
      <trkpt lat="43.61644" lon="5.41291">
        <ele>486.39999389648</ele>
        <time>2013-02-14T15:07:17.000Z</time>
      </trkpt>
      <trkpt lat="43.61643" lon="5.41288">
        <ele>486.20001220703</ele>
        <time>2013-02-14T15:07:18.000Z</time>
      </trkpt>
      <trkpt lat="43.61642" lon="5.41285">
        <ele>486.20001220703</ele>
        <time>2013-02-14T15:07:19.000Z</time>
      </trkpt>
      <trkpt lat="43.61634" lon="5.41257">
        <ele>484.60000610352</ele>
        <time>2013-02-14T15:07:28.000Z</time>
      </trkpt>
      <trkpt lat="43.61638" lon="5.41231">
        <ele>484.20001220703</ele>
        <time>2013-02-14T15:07:34.000Z</time>
      </trkpt>
      <trkpt lat="43.61637" lon="5.41228">
        <ele>484</ele>
        <time>2013-02-14T15:07:35.000Z</time>
      </trkpt>
      <trkpt lat="43.61635" lon="5.41223">
        <ele>483.79998779297</ele>
        <time>2013-02-14T15:07:36.000Z</time>
      </trkpt>
      <trkpt lat="43.61629" lon="5.41207">
        <ele>482.60000610352</ele>
        <time>2013-02-14T15:07:39.000Z</time>
      </trkpt>
      <trkpt lat="43.61624" lon="5.41183">
        <ele>481.20001220703</ele>
        <time>2013-02-14T15:07:44.000Z</time>
      </trkpt>
      <trkpt lat="43.61615" lon="5.41182">
        <ele>480.20001220703</ele>
        <time>2013-02-14T15:07:46.000Z</time>
      </trkpt>
      <trkpt lat="43.61592" lon="5.41185">
        <ele>477.60000610352</ele>
        <time>2013-02-14T15:07:50.000Z</time>
      </trkpt>
      <trkpt lat="43.61589" lon="5.41185">
        <ele>477.20001220703</ele>
        <time>2013-02-14T15:07:51.000Z</time>
      </trkpt>
      <trkpt lat="43.61581" lon="5.4118">
        <ele>476.20001220703</ele>
        <time>2013-02-14T15:07:54.000Z</time>
      </trkpt>
      <trkpt lat="43.61578" lon="5.41182">
        <ele>476.20001220703</ele>
        <time>2013-02-14T15:07:55.000Z</time>
      </trkpt>
      <trkpt lat="43.61576" lon="5.41186">
        <ele>476.20001220703</ele>
        <time>2013-02-14T15:07:56.000Z</time>
      </trkpt>
      <trkpt lat="43.61574" lon="5.41192">
        <ele>476.20001220703</ele>
        <time>2013-02-14T15:07:57.000Z</time>
      </trkpt>
      <trkpt lat="43.61571" lon="5.41197">
        <ele>476</ele>
        <time>2013-02-14T15:07:58.000Z</time>
      </trkpt>
      <trkpt lat="43.61568" lon="5.41202">
        <ele>475.79998779297</ele>
        <time>2013-02-14T15:07:59.000Z</time>
      </trkpt>
      <trkpt lat="43.61564" lon="5.41208">
        <ele>475.60000610352</ele>
        <time>2013-02-14T15:08:00.000Z</time>
      </trkpt>
      <trkpt lat="43.61561" lon="5.41212">
        <ele>475.39999389648</ele>
        <time>2013-02-14T15:08:01.000Z</time>
      </trkpt>
      <trkpt lat="43.61557" lon="5.41216">
        <ele>475</ele>
        <time>2013-02-14T15:08:02.000Z</time>
      </trkpt>
      <trkpt lat="43.61553" lon="5.4122">
        <ele>474.60000610352</ele>
        <time>2013-02-14T15:08:03.000Z</time>
      </trkpt>
      <trkpt lat="43.61548" lon="5.41223">
        <ele>474</ele>
        <time>2013-02-14T15:08:04.000Z</time>
      </trkpt>
      <trkpt lat="43.61542" lon="5.41226">
        <ele>473.39999389648</ele>
        <time>2013-02-14T15:08:05.000Z</time>
      </trkpt>
      <trkpt lat="43.61537" lon="5.41229">
        <ele>472.79998779297</ele>
        <time>2013-02-14T15:08:06.000Z</time>
      </trkpt>
      <trkpt lat="43.61533" lon="5.41234">
        <ele>472</ele>
        <time>2013-02-14T15:08:07.000Z</time>
      </trkpt>
      <trkpt lat="43.61528" lon="5.4124">
        <ele>471.39999389648</ele>
        <time>2013-02-14T15:08:08.000Z</time>
      </trkpt>
      <trkpt lat="43.61523" lon="5.41244">
        <ele>470.39999389648</ele>
        <time>2013-02-14T15:08:09.000Z</time>
      </trkpt>
      <trkpt lat="43.61518" lon="5.41249">
        <ele>469.39999389648</ele>
        <time>2013-02-14T15:08:10.000Z</time>
      </trkpt>
      <trkpt lat="43.61512" lon="5.41253">
        <ele>468.79998779297</ele>
        <time>2013-02-14T15:08:11.000Z</time>
      </trkpt>
      <trkpt lat="43.61508" lon="5.41258">
        <ele>468.20001220703</ele>
        <time>2013-02-14T15:08:12.000Z</time>
      </trkpt>
      <trkpt lat="43.61506" lon="5.41263">
        <ele>468</ele>
        <time>2013-02-14T15:08:13.000Z</time>
      </trkpt>
      <trkpt lat="43.61504" lon="5.41269">
        <ele>467.60000610352</ele>
        <time>2013-02-14T15:08:14.000Z</time>
      </trkpt>
      <trkpt lat="43.61501" lon="5.41274">
        <ele>467.39999389648</ele>
        <time>2013-02-14T15:08:15.000Z</time>
      </trkpt>
      <trkpt lat="43.61498" lon="5.41279">
        <ele>467.20001220703</ele>
        <time>2013-02-14T15:08:16.000Z</time>
      </trkpt>
      <trkpt lat="43.61495" lon="5.41284">
        <ele>467</ele>
        <time>2013-02-14T15:08:17.000Z</time>
      </trkpt>
      <trkpt lat="43.61491" lon="5.41289">
        <ele>466.79998779297</ele>
        <time>2013-02-14T15:08:18.000Z</time>
      </trkpt>
      <trkpt lat="43.61486" lon="5.41294">
        <ele>466.60000610352</ele>
        <time>2013-02-14T15:08:19.000Z</time>
      </trkpt>
      <trkpt lat="43.6147" lon="5.4131">
        <ele>465.39999389648</ele>
        <time>2013-02-14T15:08:22.000Z</time>
      </trkpt>
      <trkpt lat="43.61466" lon="5.41317">
        <ele>465</ele>
        <time>2013-02-14T15:08:23.000Z</time>
      </trkpt>
      <trkpt lat="43.61463" lon="5.41325">
        <ele>464.60000610352</ele>
        <time>2013-02-14T15:08:24.000Z</time>
      </trkpt>
      <trkpt lat="43.61461" lon="5.41333">
        <ele>464.20001220703</ele>
        <time>2013-02-14T15:08:25.000Z</time>
      </trkpt>
      <trkpt lat="43.6146" lon="5.41341">
        <ele>464.20001220703</ele>
        <time>2013-02-14T15:08:26.000Z</time>
      </trkpt>
      <trkpt lat="43.61457" lon="5.41373">
        <ele>464.79998779297</ele>
        <time>2013-02-14T15:08:30.000Z</time>
      </trkpt>
      <trkpt lat="43.61454" lon="5.4138">
        <ele>464.60000610352</ele>
        <time>2013-02-14T15:08:31.000Z</time>
      </trkpt>
      <trkpt lat="43.6145" lon="5.41387">
        <ele>464.39999389648</ele>
        <time>2013-02-14T15:08:32.000Z</time>
      </trkpt>
      <trkpt lat="43.61446" lon="5.41393">
        <ele>464.20001220703</ele>
        <time>2013-02-14T15:08:33.000Z</time>
      </trkpt>
      <trkpt lat="43.61441" lon="5.41398">
        <ele>463.79998779297</ele>
        <time>2013-02-14T15:08:34.000Z</time>
      </trkpt>
      <trkpt lat="43.61436" lon="5.41403">
        <ele>463.39999389648</ele>
        <time>2013-02-14T15:08:35.000Z</time>
      </trkpt>
      <trkpt lat="43.6143" lon="5.41405">
        <ele>462.79998779297</ele>
        <time>2013-02-14T15:08:36.000Z</time>
      </trkpt>
      <trkpt lat="43.61423" lon="5.41407">
        <ele>462.39999389648</ele>
        <time>2013-02-14T15:08:37.000Z</time>
      </trkpt>
      <trkpt lat="43.61417" lon="5.41409">
        <ele>461.79998779297</ele>
        <time>2013-02-14T15:08:38.000Z</time>
      </trkpt>
      <trkpt lat="43.6141" lon="5.4141">
        <ele>461</ele>
        <time>2013-02-14T15:08:39.000Z</time>
      </trkpt>
      <trkpt lat="43.61388" lon="5.41415">
        <ele>458.79998779297</ele>
        <time>2013-02-14T15:08:42.000Z</time>
      </trkpt>
      <trkpt lat="43.61355" lon="5.4143">
        <ele>456.20001220703</ele>
        <time>2013-02-14T15:08:47.000Z</time>
      </trkpt>
      <trkpt lat="43.61348" lon="5.41431">
        <ele>455.79998779297</ele>
        <time>2013-02-14T15:08:48.000Z</time>
      </trkpt>
      <trkpt lat="43.61342" lon="5.41431">
        <ele>455</ele>
        <time>2013-02-14T15:08:49.000Z</time>
      </trkpt>
      <trkpt lat="43.61335" lon="5.41431">
        <ele>454.39999389648</ele>
        <time>2013-02-14T15:08:50.000Z</time>
      </trkpt>
      <trkpt lat="43.61329" lon="5.41432">
        <ele>454</ele>
        <time>2013-02-14T15:08:51.000Z</time>
      </trkpt>
      <trkpt lat="43.61323" lon="5.41432">
        <ele>453.60000610352</ele>
        <time>2013-02-14T15:08:52.000Z</time>
      </trkpt>
      <trkpt lat="43.61317" lon="5.41434">
        <ele>453.39999389648</ele>
        <time>2013-02-14T15:08:53.000Z</time>
      </trkpt>
      <trkpt lat="43.61312" lon="5.41437">
        <ele>453.20001220703</ele>
        <time>2013-02-14T15:08:54.000Z</time>
      </trkpt>
      <trkpt lat="43.61307" lon="5.41439">
        <ele>453</ele>
        <time>2013-02-14T15:08:55.000Z</time>
      </trkpt>
      <trkpt lat="43.61302" lon="5.41441">
        <ele>452.79998779297</ele>
        <time>2013-02-14T15:08:56.000Z</time>
      </trkpt>
      <trkpt lat="43.61297" lon="5.41442">
        <ele>452.39999389648</ele>
        <time>2013-02-14T15:08:57.000Z</time>
      </trkpt>
      <trkpt lat="43.61292" lon="5.41445">
        <ele>452</ele>
        <time>2013-02-14T15:08:58.000Z</time>
      </trkpt>
      <trkpt lat="43.61282" lon="5.41451">
        <ele>451.39999389648</ele>
        <time>2013-02-14T15:09:00.000Z</time>
      </trkpt>
      <trkpt lat="43.61274" lon="5.4146">
        <ele>450.79998779297</ele>
        <time>2013-02-14T15:09:02.000Z</time>
      </trkpt>
      <trkpt lat="43.61269" lon="5.41463">
        <ele>450.20001220703</ele>
        <time>2013-02-14T15:09:03.000Z</time>
      </trkpt>
      <trkpt lat="43.6126" lon="5.41471">
        <ele>449</ele>
        <time>2013-02-14T15:09:05.000Z</time>
      </trkpt>
      <trkpt lat="43.61256" lon="5.41475">
        <ele>448.60000610352</ele>
        <time>2013-02-14T15:09:06.000Z</time>
      </trkpt>
      <trkpt lat="43.61253" lon="5.41479">
        <ele>448</ele>
        <time>2013-02-14T15:09:11.000Z</time>
      </trkpt>
      <trkpt lat="43.61252" lon="5.4148">
        <ele>447.79998779297</ele>
        <time>2013-02-14T15:09:12.000Z</time>
      </trkpt>
      <trkpt lat="43.61251" lon="5.41482">
        <ele>447.79998779297</ele>
        <time>2013-02-14T15:09:13.000Z</time>
      </trkpt>
      <trkpt lat="43.61251" lon="5.41484">
        <ele>447.60000610352</ele>
        <time>2013-02-14T15:09:14.000Z</time>
      </trkpt>
      <trkpt lat="43.61244" lon="5.415">
        <ele>447.20001220703</ele>
        <time>2013-02-14T15:09:22.000Z</time>
      </trkpt>
      <trkpt lat="43.61242" lon="5.41501">
        <ele>447.20001220703</ele>
        <time>2013-02-14T15:09:23.000Z</time>
      </trkpt>
      <trkpt lat="43.6124" lon="5.41502">
        <ele>447.20001220703</ele>
        <time>2013-02-14T15:09:24.000Z</time>
      </trkpt>
      <trkpt lat="43.61233" lon="5.41504">
        <ele>447.39999389648</ele>
        <time>2013-02-14T15:09:27.000Z</time>
      </trkpt>
      <trkpt lat="43.61231" lon="5.41506">
        <ele>447.60000610352</ele>
        <time>2013-02-14T15:09:30.000Z</time>
      </trkpt>
      <trkpt lat="43.61231" lon="5.41508">
        <ele>447.60000610352</ele>
        <time>2013-02-14T15:09:31.000Z</time>
      </trkpt>
      <trkpt lat="43.6123" lon="5.41509">
        <ele>447.60000610352</ele>
        <time>2013-02-14T15:09:32.000Z</time>
      </trkpt>
      <trkpt lat="43.61229" lon="5.41511">
        <ele>447.60000610352</ele>
        <time>2013-02-14T15:09:33.000Z</time>
      </trkpt>
      <trkpt lat="43.61229" lon="5.41513">
        <ele>447.60000610352</ele>
        <time>2013-02-14T15:09:34.000Z</time>
      </trkpt>
      <trkpt lat="43.61228" lon="5.41516">
        <ele>447.60000610352</ele>
        <time>2013-02-14T15:09:35.000Z</time>
      </trkpt>
      <trkpt lat="43.61228" lon="5.41518">
        <ele>447.60000610352</ele>
        <time>2013-02-14T15:09:36.000Z</time>
      </trkpt>
      <trkpt lat="43.61228" lon="5.41522">
        <ele>447.60000610352</ele>
        <time>2013-02-14T15:09:37.000Z</time>
      </trkpt>
      <trkpt lat="43.61228" lon="5.41525">
        <ele>447.60000610352</ele>
        <time>2013-02-14T15:09:38.000Z</time>
      </trkpt>
      <trkpt lat="43.61225" lon="5.41552">
        <ele>447.39999389648</ele>
        <time>2013-02-14T15:09:44.000Z</time>
      </trkpt>
      <trkpt lat="43.61222" lon="5.41558">
        <ele>447.39999389648</ele>
        <time>2013-02-14T15:09:45.000Z</time>
      </trkpt>
      <trkpt lat="43.6122" lon="5.41564">
        <ele>447.39999389648</ele>
        <time>2013-02-14T15:09:46.000Z</time>
      </trkpt>
      <trkpt lat="43.61218" lon="5.41571">
        <ele>447.20001220703</ele>
        <time>2013-02-14T15:09:47.000Z</time>
      </trkpt>
      <trkpt lat="43.61218" lon="5.41578">
        <ele>447.20001220703</ele>
        <time>2013-02-14T15:09:48.000Z</time>
      </trkpt>
      <trkpt lat="43.61219" lon="5.41585">
        <ele>447.20001220703</ele>
        <time>2013-02-14T15:09:49.000Z</time>
      </trkpt>
      <trkpt lat="43.61219" lon="5.41593">
        <ele>447</ele>
        <time>2013-02-14T15:09:50.000Z</time>
      </trkpt>
      <trkpt lat="43.61219" lon="5.416">
        <ele>446.79998779297</ele>
        <time>2013-02-14T15:09:51.000Z</time>
      </trkpt>
      <trkpt lat="43.61218" lon="5.41608">
        <ele>446.60000610352</ele>
        <time>2013-02-14T15:09:52.000Z</time>
      </trkpt>
      <trkpt lat="43.61214" lon="5.41632">
        <ele>445.79998779297</ele>
        <time>2013-02-14T15:09:55.000Z</time>
      </trkpt>
      <trkpt lat="43.61209" lon="5.41681">
        <ele>443.79998779297</ele>
        <time>2013-02-14T15:10:00.000Z</time>
      </trkpt>
      <trkpt lat="43.61208" lon="5.41701">
        <ele>443</ele>
        <time>2013-02-14T15:10:02.000Z</time>
      </trkpt>
      <trkpt lat="43.61205" lon="5.41729">
        <ele>441.39999389648</ele>
        <time>2013-02-14T15:10:05.000Z</time>
      </trkpt>
      <trkpt lat="43.61203" lon="5.41738">
        <ele>440.79998779297</ele>
        <time>2013-02-14T15:10:06.000Z</time>
      </trkpt>
      <trkpt lat="43.61202" lon="5.41747">
        <ele>440.20001220703</ele>
        <time>2013-02-14T15:10:07.000Z</time>
      </trkpt>
      <trkpt lat="43.61197" lon="5.41772">
        <ele>438</ele>
        <time>2013-02-14T15:10:10.000Z</time>
      </trkpt>
      <trkpt lat="43.61197" lon="5.4179">
        <ele>436.79998779297</ele>
        <time>2013-02-14T15:10:12.000Z</time>
      </trkpt>
      <trkpt lat="43.61196" lon="5.41798">
        <ele>436.39999389648</ele>
        <time>2013-02-14T15:10:13.000Z</time>
      </trkpt>
      <trkpt lat="43.61195" lon="5.41807">
        <ele>435.39999389648</ele>
        <time>2013-02-14T15:10:14.000Z</time>
      </trkpt>
      <trkpt lat="43.61191" lon="5.41815">
        <ele>434.39999389648</ele>
        <time>2013-02-14T15:10:15.000Z</time>
      </trkpt>
      <trkpt lat="43.61188" lon="5.41822">
        <ele>433.39999389648</ele>
        <time>2013-02-14T15:10:16.000Z</time>
      </trkpt>
      <trkpt lat="43.61186" lon="5.4183">
        <ele>432.60000610352</ele>
        <time>2013-02-14T15:10:17.000Z</time>
      </trkpt>
      <trkpt lat="43.61185" lon="5.41839">
        <ele>432</ele>
        <time>2013-02-14T15:10:18.000Z</time>
      </trkpt>
      <trkpt lat="43.61184" lon="5.41847">
        <ele>431.60000610352</ele>
        <time>2013-02-14T15:10:19.000Z</time>
      </trkpt>
      <trkpt lat="43.61184" lon="5.41856">
        <ele>431.20001220703</ele>
        <time>2013-02-14T15:10:20.000Z</time>
      </trkpt>
      <trkpt lat="43.61184" lon="5.41863">
        <ele>431</ele>
        <time>2013-02-14T15:10:21.000Z</time>
      </trkpt>
      <trkpt lat="43.61182" lon="5.4187">
        <ele>430.39999389648</ele>
        <time>2013-02-14T15:10:22.000Z</time>
      </trkpt>
      <trkpt lat="43.6118" lon="5.41876">
        <ele>429.79998779297</ele>
        <time>2013-02-14T15:10:23.000Z</time>
      </trkpt>
      <trkpt lat="43.61177" lon="5.41881">
        <ele>429.20001220703</ele>
        <time>2013-02-14T15:10:24.000Z</time>
      </trkpt>
      <trkpt lat="43.61172" lon="5.41883">
        <ele>428.20001220703</ele>
        <time>2013-02-14T15:10:25.000Z</time>
      </trkpt>
      <trkpt lat="43.61167" lon="5.41885">
        <ele>427</ele>
        <time>2013-02-14T15:10:26.000Z</time>
      </trkpt>
      <trkpt lat="43.61162" lon="5.41889">
        <ele>426.79998779297</ele>
        <time>2013-02-14T15:10:27.000Z</time>
      </trkpt>
      <trkpt lat="43.61157" lon="5.41894">
        <ele>426.60000610352</ele>
        <time>2013-02-14T15:10:28.000Z</time>
      </trkpt>
      <trkpt lat="43.61153" lon="5.419">
        <ele>426.20001220703</ele>
        <time>2013-02-14T15:10:29.000Z</time>
      </trkpt>
      <trkpt lat="43.61149" lon="5.41907">
        <ele>425.79998779297</ele>
        <time>2013-02-14T15:10:30.000Z</time>
      </trkpt>
      <trkpt lat="43.61144" lon="5.41913">
        <ele>425.20001220703</ele>
        <time>2013-02-14T15:10:31.000Z</time>
      </trkpt>
      <trkpt lat="43.61139" lon="5.41918">
        <ele>424.79998779297</ele>
        <time>2013-02-14T15:10:32.000Z</time>
      </trkpt>
      <trkpt lat="43.61113" lon="5.41935">
        <ele>423.60000610352</ele>
        <time>2013-02-14T15:10:37.000Z</time>
      </trkpt>
      <trkpt lat="43.61108" lon="5.41938">
        <ele>423.20001220703</ele>
        <time>2013-02-14T15:10:38.000Z</time>
      </trkpt>
      <trkpt lat="43.61102" lon="5.41941">
        <ele>422.79998779297</ele>
        <time>2013-02-14T15:10:39.000Z</time>
      </trkpt>
      <trkpt lat="43.61096" lon="5.41943">
        <ele>422.39999389648</ele>
        <time>2013-02-14T15:10:40.000Z</time>
      </trkpt>
      <trkpt lat="43.61089" lon="5.41943">
        <ele>422</ele>
        <time>2013-02-14T15:10:41.000Z</time>
      </trkpt>
      <trkpt lat="43.61081" lon="5.41943">
        <ele>421.39999389648</ele>
        <time>2013-02-14T15:10:42.000Z</time>
      </trkpt>
      <trkpt lat="43.61034" lon="5.41935">
        <ele>418</ele>
        <time>2013-02-14T15:10:48.000Z</time>
      </trkpt>
      <trkpt lat="43.6102" lon="5.41929">
        <ele>416.79998779297</ele>
        <time>2013-02-14T15:10:50.000Z</time>
      </trkpt>
      <trkpt lat="43.61015" lon="5.41924">
        <ele>416.39999389648</ele>
        <time>2013-02-14T15:10:51.000Z</time>
      </trkpt>
      <trkpt lat="43.61011" lon="5.41919">
        <ele>416</ele>
        <time>2013-02-14T15:10:52.000Z</time>
      </trkpt>
      <trkpt lat="43.61005" lon="5.41916">
        <ele>415.39999389648</ele>
        <time>2013-02-14T15:10:53.000Z</time>
      </trkpt>
      <trkpt lat="43.60999" lon="5.41914">
        <ele>415.20001220703</ele>
        <time>2013-02-14T15:10:54.000Z</time>
      </trkpt>
      <trkpt lat="43.60993" lon="5.41912">
        <ele>415</ele>
        <time>2013-02-14T15:10:55.000Z</time>
      </trkpt>
      <trkpt lat="43.60986" lon="5.41913">
        <ele>414.79998779297</ele>
        <time>2013-02-14T15:10:56.000Z</time>
      </trkpt>
      <trkpt lat="43.6098" lon="5.41913">
        <ele>414.39999389648</ele>
        <time>2013-02-14T15:10:57.000Z</time>
      </trkpt>
      <trkpt lat="43.60975" lon="5.41912">
        <ele>414.39999389648</ele>
        <time>2013-02-14T15:10:58.000Z</time>
      </trkpt>
      <trkpt lat="43.60971" lon="5.41909">
        <ele>414.39999389648</ele>
        <time>2013-02-14T15:10:59.000Z</time>
      </trkpt>
      <trkpt lat="43.60956" lon="5.41898">
        <ele>414.60000610352</ele>
        <time>2013-02-14T15:11:02.000Z</time>
      </trkpt>
      <trkpt lat="43.6095" lon="5.41897">
        <ele>414.39999389648</ele>
        <time>2013-02-14T15:11:03.000Z</time>
      </trkpt>
      <trkpt lat="43.60945" lon="5.41898">
        <ele>414.20001220703</ele>
        <time>2013-02-14T15:11:04.000Z</time>
      </trkpt>
      <trkpt lat="43.60941" lon="5.41898">
        <ele>414</ele>
        <time>2013-02-14T15:11:05.000Z</time>
      </trkpt>
      <trkpt lat="43.60937" lon="5.41897">
        <ele>413.79998779297</ele>
        <time>2013-02-14T15:11:06.000Z</time>
      </trkpt>
      <trkpt lat="43.60933" lon="5.41897">
        <ele>413.60000610352</ele>
        <time>2013-02-14T15:11:07.000Z</time>
      </trkpt>
      <trkpt lat="43.6093" lon="5.41896">
        <ele>413.60000610352</ele>
        <time>2013-02-14T15:11:08.000Z</time>
      </trkpt>
      <trkpt lat="43.60927" lon="5.41896">
        <ele>413.39999389648</ele>
        <time>2013-02-14T15:11:09.000Z</time>
      </trkpt>
      <trkpt lat="43.60925" lon="5.41899">
        <ele>413.20001220703</ele>
        <time>2013-02-14T15:11:10.000Z</time>
      </trkpt>
      <trkpt lat="43.60922" lon="5.41902">
        <ele>412.79998779297</ele>
        <time>2013-02-14T15:11:11.000Z</time>
      </trkpt>
      <trkpt lat="43.60919" lon="5.41905">
        <ele>412.60000610352</ele>
        <time>2013-02-14T15:11:12.000Z</time>
      </trkpt>
      <trkpt lat="43.60916" lon="5.41906">
        <ele>412.39999389648</ele>
        <time>2013-02-14T15:11:13.000Z</time>
      </trkpt>
      <trkpt lat="43.60913" lon="5.41905">
        <ele>412.39999389648</ele>
        <time>2013-02-14T15:11:14.000Z</time>
      </trkpt>
      <trkpt lat="43.6091" lon="5.41904">
        <ele>412.20001220703</ele>
        <time>2013-02-14T15:11:15.000Z</time>
      </trkpt>
      <trkpt lat="43.60907" lon="5.41903">
        <ele>412.20001220703</ele>
        <time>2013-02-14T15:11:16.000Z</time>
      </trkpt>
      <trkpt lat="43.60905" lon="5.41902">
        <ele>412.20001220703</ele>
        <time>2013-02-14T15:11:17.000Z</time>
      </trkpt>
      <trkpt lat="43.60904" lon="5.41902">
        <ele>412.20001220703</ele>
        <time>2013-02-14T15:11:18.000Z</time>
      </trkpt>
      <trkpt lat="43.60902" lon="5.41901">
        <ele>412.20001220703</ele>
        <time>2013-02-14T15:11:19.000Z</time>
      </trkpt>
      <trkpt lat="43.60901" lon="5.41901">
        <ele>412</ele>
        <time>2013-02-14T15:11:20.000Z</time>
      </trkpt>
      <trkpt lat="43.60888" lon="5.41898">
        <ele>411.60000610352</ele>
        <time>2013-02-14T15:11:31.000Z</time>
      </trkpt>
      <trkpt lat="43.60874" lon="5.41905">
        <ele>411</ele>
        <time>2013-02-14T15:11:41.000Z</time>
      </trkpt>
      <trkpt lat="43.60853" lon="5.4191">
        <ele>410.39999389648</ele>
        <time>2013-02-14T15:11:48.000Z</time>
      </trkpt>
      <trkpt lat="43.60848" lon="5.41912">
        <ele>410.20001220703</ele>
        <time>2013-02-14T15:11:49.000Z</time>
      </trkpt>
      <trkpt lat="43.60842" lon="5.41912">
        <ele>410</ele>
        <time>2013-02-14T15:11:50.000Z</time>
      </trkpt>
      <trkpt lat="43.60837" lon="5.4191">
        <ele>409.79998779297</ele>
        <time>2013-02-14T15:11:51.000Z</time>
      </trkpt>
      <trkpt lat="43.60832" lon="5.41905">
        <ele>409.60000610352</ele>
        <time>2013-02-14T15:11:52.000Z</time>
      </trkpt>
      <trkpt lat="43.60828" lon="5.41898">
        <ele>409.60000610352</ele>
        <time>2013-02-14T15:11:53.000Z</time>
      </trkpt>
      <trkpt lat="43.60824" lon="5.4189">
        <ele>409.39999389648</ele>
        <time>2013-02-14T15:11:54.000Z</time>
      </trkpt>
      <trkpt lat="43.60821" lon="5.41881">
        <ele>409</ele>
        <time>2013-02-14T15:11:55.000Z</time>
      </trkpt>
      <trkpt lat="43.60818" lon="5.41871">
        <ele>408.60000610352</ele>
        <time>2013-02-14T15:11:56.000Z</time>
      </trkpt>
      <trkpt lat="43.60814" lon="5.41863">
        <ele>408.20001220703</ele>
        <time>2013-02-14T15:11:57.000Z</time>
      </trkpt>
      <trkpt lat="43.6081" lon="5.41855">
        <ele>407.60000610352</ele>
        <time>2013-02-14T15:11:58.000Z</time>
      </trkpt>
      <trkpt lat="43.60806" lon="5.41845">
        <ele>407</ele>
        <time>2013-02-14T15:11:59.000Z</time>
      </trkpt>
      <trkpt lat="43.60798" lon="5.41828">
        <ele>405.79998779297</ele>
        <time>2013-02-14T15:12:01.000Z</time>
      </trkpt>
      <trkpt lat="43.60793" lon="5.4182">
        <ele>405.60000610352</ele>
        <time>2013-02-14T15:12:02.000Z</time>
      </trkpt>
      <trkpt lat="43.60789" lon="5.41812">
        <ele>405.20001220703</ele>
        <time>2013-02-14T15:12:03.000Z</time>
      </trkpt>
      <trkpt lat="43.60784" lon="5.41803">
        <ele>404.79998779297</ele>
        <time>2013-02-14T15:12:04.000Z</time>
      </trkpt>
      <trkpt lat="43.6078" lon="5.41794">
        <ele>404.20001220703</ele>
        <time>2013-02-14T15:12:05.000Z</time>
      </trkpt>
      <trkpt lat="43.60774" lon="5.41777">
        <ele>403.20001220703</ele>
        <time>2013-02-14T15:12:07.000Z</time>
      </trkpt>
      <trkpt lat="43.60769" lon="5.41769">
        <ele>402.39999389648</ele>
        <time>2013-02-14T15:12:08.000Z</time>
      </trkpt>
      <trkpt lat="43.60749" lon="5.41745">
        <ele>399.20001220703</ele>
        <time>2013-02-14T15:12:12.000Z</time>
      </trkpt>
      <trkpt lat="43.60744" lon="5.41742">
        <ele>399.20001220703</ele>
        <time>2013-02-14T15:12:13.000Z</time>
      </trkpt>
      <trkpt lat="43.60739" lon="5.4174">
        <ele>399.20001220703</ele>
        <time>2013-02-14T15:12:14.000Z</time>
      </trkpt>
      <trkpt lat="43.60737" lon="5.41737">
        <ele>399.20001220703</ele>
        <time>2013-02-14T15:12:15.000Z</time>
      </trkpt>
      <trkpt lat="43.60737" lon="5.41733">
        <ele>399.39999389648</ele>
        <time>2013-02-14T15:12:16.000Z</time>
      </trkpt>
      <trkpt lat="43.60737" lon="5.4173">
        <ele>399.39999389648</ele>
        <time>2013-02-14T15:12:17.000Z</time>
      </trkpt>
      <trkpt lat="43.60737" lon="5.41727">
        <ele>399.60000610352</ele>
        <time>2013-02-14T15:12:18.000Z</time>
      </trkpt>
      <trkpt lat="43.60734" lon="5.4172">
        <ele>399.60000610352</ele>
        <time>2013-02-14T15:12:20.000Z</time>
      </trkpt>
      <trkpt lat="43.60731" lon="5.41714">
        <ele>399.60000610352</ele>
        <time>2013-02-14T15:12:21.000Z</time>
      </trkpt>
      <trkpt lat="43.60707" lon="5.41678">
        <ele>398</ele>
        <time>2013-02-14T15:12:29.000Z</time>
      </trkpt>
      <trkpt lat="43.60704" lon="5.41674">
        <ele>397.39999389648</ele>
        <time>2013-02-14T15:12:30.000Z</time>
      </trkpt>
      <trkpt lat="43.607" lon="5.41671">
        <ele>397</ele>
        <time>2013-02-14T15:12:31.000Z</time>
      </trkpt>
      <trkpt lat="43.60697" lon="5.41666">
        <ele>396.60000610352</ele>
        <time>2013-02-14T15:12:32.000Z</time>
      </trkpt>
      <trkpt lat="43.6069" lon="5.41657">
        <ele>396</ele>
        <time>2013-02-14T15:12:34.000Z</time>
      </trkpt>
      <trkpt lat="43.60686" lon="5.41652">
        <ele>395.60000610352</ele>
        <time>2013-02-14T15:12:35.000Z</time>
      </trkpt>
      <trkpt lat="43.60669" lon="5.41633">
        <ele>393.20001220703</ele>
        <time>2013-02-14T15:12:39.000Z</time>
      </trkpt>
      <trkpt lat="43.60664" lon="5.41629">
        <ele>392.60000610352</ele>
        <time>2013-02-14T15:12:40.000Z</time>
      </trkpt>
      <trkpt lat="43.60647" lon="5.41617">
        <ele>391</ele>
        <time>2013-02-14T15:12:43.000Z</time>
      </trkpt>
      <trkpt lat="43.60643" lon="5.41612">
        <ele>390.39999389648</ele>
        <time>2013-02-14T15:12:44.000Z</time>
      </trkpt>
      <trkpt lat="43.60639" lon="5.41608">
        <ele>389.79998779297</ele>
        <time>2013-02-14T15:12:45.000Z</time>
      </trkpt>
      <trkpt lat="43.60634" lon="5.41604">
        <ele>389</ele>
        <time>2013-02-14T15:12:46.000Z</time>
      </trkpt>
      <trkpt lat="43.60629" lon="5.41598">
        <ele>388.20001220703</ele>
        <time>2013-02-14T15:12:47.000Z</time>
      </trkpt>
      <trkpt lat="43.60623" lon="5.41594">
        <ele>387.20001220703</ele>
        <time>2013-02-14T15:12:48.000Z</time>
      </trkpt>
      <trkpt lat="43.60617" lon="5.4159">
        <ele>386.20001220703</ele>
        <time>2013-02-14T15:12:49.000Z</time>
      </trkpt>
      <trkpt lat="43.6061" lon="5.41587">
        <ele>385</ele>
        <time>2013-02-14T15:12:50.000Z</time>
      </trkpt>
      <trkpt lat="43.60603" lon="5.41584">
        <ele>383.79998779297</ele>
        <time>2013-02-14T15:12:51.000Z</time>
      </trkpt>
      <trkpt lat="43.60596" lon="5.4158">
        <ele>382.60000610352</ele>
        <time>2013-02-14T15:12:52.000Z</time>
      </trkpt>
      <trkpt lat="43.60589" lon="5.41576">
        <ele>381.60000610352</ele>
        <time>2013-02-14T15:12:53.000Z</time>
      </trkpt>
      <trkpt lat="43.60568" lon="5.41564">
        <ele>379.20001220703</ele>
        <time>2013-02-14T15:12:56.000Z</time>
      </trkpt>
      <trkpt lat="43.60551" lon="5.41554">
        <ele>377.60000610352</ele>
        <time>2013-02-14T15:12:59.000Z</time>
      </trkpt>
      <trkpt lat="43.60546" lon="5.41554">
        <ele>377.20001220703</ele>
        <time>2013-02-14T15:13:00.000Z</time>
      </trkpt>
      <trkpt lat="43.60541" lon="5.41556">
        <ele>376.79998779297</ele>
        <time>2013-02-14T15:13:01.000Z</time>
      </trkpt>
      <trkpt lat="43.60536" lon="5.41558">
        <ele>376.60000610352</ele>
        <time>2013-02-14T15:13:02.000Z</time>
      </trkpt>
      <trkpt lat="43.6053" lon="5.4156">
        <ele>376.20001220703</ele>
        <time>2013-02-14T15:13:03.000Z</time>
      </trkpt>
      <trkpt lat="43.60505" lon="5.41567">
        <ele>374.39999389648</ele>
        <time>2013-02-14T15:13:08.000Z</time>
      </trkpt>
      <trkpt lat="43.605" lon="5.41566">
        <ele>374</ele>
        <time>2013-02-14T15:13:09.000Z</time>
      </trkpt>
      <trkpt lat="43.60443" lon="5.41544">
        <ele>370.79998779297</ele>
        <time>2013-02-14T15:13:20.000Z</time>
      </trkpt>
      <trkpt lat="43.60382" lon="5.41516">
        <ele>368</ele>
        <time>2013-02-14T15:13:31.000Z</time>
      </trkpt>
      <trkpt lat="43.6037" lon="5.41511">
        <ele>367.20001220703</ele>
        <time>2013-02-14T15:13:33.000Z</time>
      </trkpt>
      <trkpt lat="43.60363" lon="5.41512">
        <ele>366.79998779297</ele>
        <time>2013-02-14T15:13:34.000Z</time>
      </trkpt>
      <trkpt lat="43.60357" lon="5.41515">
        <ele>366.39999389648</ele>
        <time>2013-02-14T15:13:35.000Z</time>
      </trkpt>
      <trkpt lat="43.60351" lon="5.41521">
        <ele>366.20001220703</ele>
        <time>2013-02-14T15:13:36.000Z</time>
      </trkpt>
      <trkpt lat="43.60345" lon="5.41529">
        <ele>366</ele>
        <time>2013-02-14T15:13:37.000Z</time>
      </trkpt>
      <trkpt lat="43.6034" lon="5.41536">
        <ele>365.79998779297</ele>
        <time>2013-02-14T15:13:38.000Z</time>
      </trkpt>
      <trkpt lat="43.60335" lon="5.41543">
        <ele>365.60000610352</ele>
        <time>2013-02-14T15:13:39.000Z</time>
      </trkpt>
      <trkpt lat="43.60321" lon="5.41566">
        <ele>365.20001220703</ele>
        <time>2013-02-14T15:13:42.000Z</time>
      </trkpt>
      <trkpt lat="43.60317" lon="5.41575">
        <ele>365.20001220703</ele>
        <time>2013-02-14T15:13:43.000Z</time>
      </trkpt>
      <trkpt lat="43.60308" lon="5.41617">
        <ele>364.60000610352</ele>
        <time>2013-02-14T15:13:47.000Z</time>
      </trkpt>
      <trkpt lat="43.60301" lon="5.4167">
        <ele>364</ele>
        <time>2013-02-14T15:13:52.000Z</time>
      </trkpt>
      <trkpt lat="43.603" lon="5.41692">
        <ele>363.39999389648</ele>
        <time>2013-02-14T15:13:57.000Z</time>
      </trkpt>
      <trkpt lat="43.60299" lon="5.41692">
        <ele>363.39999389648</ele>
        <time>2013-02-14T15:13:58.000Z</time>
      </trkpt>
      <trkpt lat="43.60296" lon="5.4169">
        <ele>363.39999389648</ele>
        <time>2013-02-14T15:14:01.000Z</time>
      </trkpt>
      <trkpt lat="43.60293" lon="5.41689">
        <ele>363.20001220703</ele>
        <time>2013-02-14T15:14:02.000Z</time>
      </trkpt>
      <trkpt lat="43.6029" lon="5.41689">
        <ele>363.20001220703</ele>
        <time>2013-02-14T15:14:03.000Z</time>
      </trkpt>
      <trkpt lat="43.60287" lon="5.41689">
        <ele>363</ele>
        <time>2013-02-14T15:14:04.000Z</time>
      </trkpt>
      <trkpt lat="43.60282" lon="5.41691">
        <ele>362.79998779297</ele>
        <time>2013-02-14T15:14:05.000Z</time>
      </trkpt>
      <trkpt lat="43.60278" lon="5.41694">
        <ele>362.60000610352</ele>
        <time>2013-02-14T15:14:06.000Z</time>
      </trkpt>
      <trkpt lat="43.60273" lon="5.41698">
        <ele>362.20001220703</ele>
        <time>2013-02-14T15:14:07.000Z</time>
      </trkpt>
      <trkpt lat="43.60259" lon="5.41709">
        <ele>361.20001220703</ele>
        <time>2013-02-14T15:14:10.000Z</time>
      </trkpt>
      <trkpt lat="43.60255" lon="5.41711">
        <ele>361</ele>
        <time>2013-02-14T15:14:11.000Z</time>
      </trkpt>
      <trkpt lat="43.6025" lon="5.41712">
        <ele>360.79998779297</ele>
        <time>2013-02-14T15:14:12.000Z</time>
      </trkpt>
      <trkpt lat="43.60245" lon="5.41711">
        <ele>360.60000610352</ele>
        <time>2013-02-14T15:14:13.000Z</time>
      </trkpt>
      <trkpt lat="43.6024" lon="5.41711">
        <ele>360.60000610352</ele>
        <time>2013-02-14T15:14:14.000Z</time>
      </trkpt>
      <trkpt lat="43.60237" lon="5.41711">
        <ele>360.39999389648</ele>
        <time>2013-02-14T15:14:15.000Z</time>
      </trkpt>
      <trkpt lat="43.60232" lon="5.41713">
        <ele>360.20001220703</ele>
        <time>2013-02-14T15:14:16.000Z</time>
      </trkpt>
      <trkpt lat="43.60228" lon="5.41714">
        <ele>360</ele>
        <time>2013-02-14T15:14:17.000Z</time>
      </trkpt>
      <trkpt lat="43.60224" lon="5.41717">
        <ele>359.79998779297</ele>
        <time>2013-02-14T15:14:18.000Z</time>
      </trkpt>
      <trkpt lat="43.60219" lon="5.41718">
        <ele>359.60000610352</ele>
        <time>2013-02-14T15:14:19.000Z</time>
      </trkpt>
      <trkpt lat="43.60214" lon="5.41719">
        <ele>359.39999389648</ele>
        <time>2013-02-14T15:14:20.000Z</time>
      </trkpt>
      <trkpt lat="43.60209" lon="5.4172">
        <ele>359.20001220703</ele>
        <time>2013-02-14T15:14:21.000Z</time>
      </trkpt>
      <trkpt lat="43.60199" lon="5.41725">
        <ele>358.60000610352</ele>
        <time>2013-02-14T15:14:23.000Z</time>
      </trkpt>
      <trkpt lat="43.60194" lon="5.41728">
        <ele>358.20001220703</ele>
        <time>2013-02-14T15:14:24.000Z</time>
      </trkpt>
      <trkpt lat="43.60181" lon="5.4174">
        <ele>357</ele>
        <time>2013-02-14T15:14:27.000Z</time>
      </trkpt>
      <trkpt lat="43.60177" lon="5.41745">
        <ele>356.60000610352</ele>
        <time>2013-02-14T15:14:28.000Z</time>
      </trkpt>
      <trkpt lat="43.60173" lon="5.41748">
        <ele>356.20001220703</ele>
        <time>2013-02-14T15:14:29.000Z</time>
      </trkpt>
      <trkpt lat="43.60169" lon="5.4175">
        <ele>356</ele>
        <time>2013-02-14T15:14:30.000Z</time>
      </trkpt>
      <trkpt lat="43.60165" lon="5.41752">
        <ele>355.79998779297</ele>
        <time>2013-02-14T15:14:31.000Z</time>
      </trkpt>
      <trkpt lat="43.60155" lon="5.41758">
        <ele>355</ele>
        <time>2013-02-14T15:14:34.000Z</time>
      </trkpt>
      <trkpt lat="43.6015" lon="5.41759">
        <ele>354.79998779297</ele>
        <time>2013-02-14T15:14:35.000Z</time>
      </trkpt>
      <trkpt lat="43.60146" lon="5.41761">
        <ele>354.60000610352</ele>
        <time>2013-02-14T15:14:36.000Z</time>
      </trkpt>
      <trkpt lat="43.60143" lon="5.41762">
        <ele>354.20001220703</ele>
        <time>2013-02-14T15:14:37.000Z</time>
      </trkpt>
      <trkpt lat="43.60141" lon="5.41766">
        <ele>354</ele>
        <time>2013-02-14T15:14:38.000Z</time>
      </trkpt>
      <trkpt lat="43.6014" lon="5.4177">
        <ele>353.79998779297</ele>
        <time>2013-02-14T15:14:39.000Z</time>
      </trkpt>
      <trkpt lat="43.60137" lon="5.41773">
        <ele>353.60000610352</ele>
        <time>2013-02-14T15:14:40.000Z</time>
      </trkpt>
      <trkpt lat="43.60133" lon="5.41775">
        <ele>353.39999389648</ele>
        <time>2013-02-14T15:14:41.000Z</time>
      </trkpt>
      <trkpt lat="43.60129" lon="5.41776">
        <ele>353.20001220703</ele>
        <time>2013-02-14T15:14:42.000Z</time>
      </trkpt>
      <trkpt lat="43.60101" lon="5.41782">
        <ele>352.20001220703</ele>
        <time>2013-02-14T15:14:48.000Z</time>
      </trkpt>
      <trkpt lat="43.6009" lon="5.41785">
        <ele>351.60000610352</ele>
        <time>2013-02-14T15:14:50.000Z</time>
      </trkpt>
      <trkpt lat="43.60085" lon="5.41787">
        <ele>351.39999389648</ele>
        <time>2013-02-14T15:14:51.000Z</time>
      </trkpt>
      <trkpt lat="43.60057" lon="5.4179">
        <ele>350.79998779297</ele>
        <time>2013-02-14T15:14:57.000Z</time>
      </trkpt>
      <trkpt lat="43.60047" lon="5.41788">
        <ele>350.60000610352</ele>
        <time>2013-02-14T15:14:59.000Z</time>
      </trkpt>
      <trkpt lat="43.60043" lon="5.41787">
        <ele>350.39999389648</ele>
        <time>2013-02-14T15:15:00.000Z</time>
      </trkpt>
      <trkpt lat="43.60039" lon="5.41785">
        <ele>350.39999389648</ele>
        <time>2013-02-14T15:15:01.000Z</time>
      </trkpt>
      <trkpt lat="43.60034" lon="5.41786">
        <ele>350.20001220703</ele>
        <time>2013-02-14T15:15:02.000Z</time>
      </trkpt>
      <trkpt lat="43.60029" lon="5.41787">
        <ele>350.20001220703</ele>
        <time>2013-02-14T15:15:03.000Z</time>
      </trkpt>
      <trkpt lat="43.60023" lon="5.41788">
        <ele>350</ele>
        <time>2013-02-14T15:15:04.000Z</time>
      </trkpt>
      <trkpt lat="43.60018" lon="5.41789">
        <ele>349.79998779297</ele>
        <time>2013-02-14T15:15:05.000Z</time>
      </trkpt>
      <trkpt lat="43.60003" lon="5.41796">
        <ele>349.39999389648</ele>
        <time>2013-02-14T15:15:09.000Z</time>
      </trkpt>
      <trkpt lat="43.59993" lon="5.41791">
        <ele>348.79998779297</ele>
        <time>2013-02-14T15:15:15.000Z</time>
      </trkpt>
      <trkpt lat="43.59991" lon="5.41789">
        <ele>348.79998779297</ele>
        <time>2013-02-14T15:15:17.000Z</time>
      </trkpt>
      <trkpt lat="43.59993" lon="5.41785">
        <ele>349</ele>
        <time>2013-02-14T15:15:21.000Z</time>
      </trkpt>
      <trkpt lat="43.59998" lon="5.41786">
        <ele>349.39999389648</ele>
        <time>2013-02-14T15:15:25.000Z</time>
      </trkpt>
      <trkpt lat="43.6" lon="5.41774">
        <ele>349.60000610352</ele>
        <time>2013-02-14T15:15:32.000Z</time>
      </trkpt>
      <trkpt lat="43.59997" lon="5.41772">
        <ele>349.39999389648</ele>
        <time>2013-02-14T15:15:35.000Z</time>
      </trkpt>
      <trkpt lat="43.5999" lon="5.4177">
        <ele>349</ele>
        <time>2013-02-14T15:15:44.000Z</time>
      </trkpt>
      <trkpt lat="43.59989" lon="5.41772">
        <ele>349</ele>
        <time>2013-02-14T15:16:04.000Z</time>
      </trkpt>
      <trkpt lat="43.59987" lon="5.41772">
        <ele>348.79998779297</ele>
        <time>2013-02-14T15:16:06.000Z</time>
      </trkpt>
      <trkpt lat="43.5998" lon="5.41777">
        <ele>348.20001220703</ele>
        <time>2013-02-14T15:16:11.000Z</time>
      </trkpt>
      <trkpt lat="43.59948" lon="5.41792">
        <ele>345.60000610352</ele>
        <time>2013-02-14T15:16:22.000Z</time>
      </trkpt>
      <trkpt lat="43.59922" lon="5.41801">
        <ele>343.39999389648</ele>
        <time>2013-02-14T15:16:29.000Z</time>
      </trkpt>
      <trkpt lat="43.59918" lon="5.41802">
        <ele>343.20001220703</ele>
        <time>2013-02-14T15:16:30.000Z</time>
      </trkpt>
      <trkpt lat="43.59863" lon="5.41825">
        <ele>340</ele>
        <time>2013-02-14T15:16:41.000Z</time>
      </trkpt>
      <trkpt lat="43.59847" lon="5.41834">
        <ele>339.39999389648</ele>
        <time>2013-02-14T15:16:44.000Z</time>
      </trkpt>
      <trkpt lat="43.59814" lon="5.41856">
        <ele>337.79998779297</ele>
        <time>2013-02-14T15:16:50.000Z</time>
      </trkpt>
      <trkpt lat="43.59809" lon="5.41861">
        <ele>337.60000610352</ele>
        <time>2013-02-14T15:16:51.000Z</time>
      </trkpt>
      <trkpt lat="43.59756" lon="5.4193">
        <ele>334.20001220703</ele>
        <time>2013-02-14T15:17:01.000Z</time>
      </trkpt>
      <trkpt lat="43.59745" lon="5.41945">
        <ele>333.79998779297</ele>
        <time>2013-02-14T15:17:03.000Z</time>
      </trkpt>
      <trkpt lat="43.59738" lon="5.41952">
        <ele>333.60000610352</ele>
        <time>2013-02-14T15:17:04.000Z</time>
      </trkpt>
      <trkpt lat="43.59725" lon="5.41962">
        <ele>333.20001220703</ele>
        <time>2013-02-14T15:17:06.000Z</time>
      </trkpt>
      <trkpt lat="43.59697" lon="5.41978">
        <ele>332.20001220703</ele>
        <time>2013-02-14T15:17:13.000Z</time>
      </trkpt>
      <trkpt lat="43.59694" lon="5.41982">
        <ele>332</ele>
        <time>2013-02-14T15:17:15.000Z</time>
      </trkpt>
      <trkpt lat="43.59694" lon="5.41985">
        <ele>332</ele>
        <time>2013-02-14T15:17:16.000Z</time>
      </trkpt>
      <trkpt lat="43.59695" lon="5.41986">
        <ele>332</ele>
        <time>2013-02-14T15:17:17.000Z</time>
      </trkpt>
      <trkpt lat="43.59706" lon="5.41993">
        <ele>332.39999389648</ele>
        <time>2013-02-14T15:17:21.000Z</time>
      </trkpt>
      <trkpt lat="43.59723" lon="5.42003">
        <ele>333.20001220703</ele>
        <time>2013-02-14T15:17:28.000Z</time>
      </trkpt>
      <trkpt lat="43.59727" lon="5.42039">
        <ele>335.60000610352</ele>
        <time>2013-02-14T15:17:36.000Z</time>
      </trkpt>
      <trkpt lat="43.59723" lon="5.42069">
        <ele>337.60000610352</ele>
        <time>2013-02-14T15:17:43.000Z</time>
      </trkpt>
      <trkpt lat="43.59694" lon="5.42077">
        <ele>337.79998779297</ele>
        <time>2013-02-14T15:17:51.000Z</time>
      </trkpt>
      <trkpt lat="43.59655" lon="5.42086">
        <ele>337</ele>
        <time>2013-02-14T15:18:01.000Z</time>
      </trkpt>
      <trkpt lat="43.59612" lon="5.42111">
        <ele>335.60000610352</ele>
        <time>2013-02-14T15:18:12.000Z</time>
      </trkpt>
      <trkpt lat="43.59592" lon="5.42127">
        <ele>335.60000610352</ele>
        <time>2013-02-14T15:18:17.000Z</time>
      </trkpt>
      <trkpt lat="43.59588" lon="5.42131">
        <ele>335.79998779297</ele>
        <time>2013-02-14T15:18:18.000Z</time>
      </trkpt>
      <trkpt lat="43.59585" lon="5.42136">
        <ele>336</ele>
        <time>2013-02-14T15:18:19.000Z</time>
      </trkpt>
      <trkpt lat="43.59582" lon="5.42141">
        <ele>336.20001220703</ele>
        <time>2013-02-14T15:18:20.000Z</time>
      </trkpt>
      <trkpt lat="43.59579" lon="5.42146">
        <ele>336.39999389648</ele>
        <time>2013-02-14T15:18:21.000Z</time>
      </trkpt>
      <trkpt lat="43.59574" lon="5.42155">
        <ele>336.79998779297</ele>
        <time>2013-02-14T15:18:23.000Z</time>
      </trkpt>
      <trkpt lat="43.59571" lon="5.4216">
        <ele>336.79998779297</ele>
        <time>2013-02-14T15:18:24.000Z</time>
      </trkpt>
      <trkpt lat="43.59569" lon="5.42164">
        <ele>336.79998779297</ele>
        <time>2013-02-14T15:18:25.000Z</time>
      </trkpt>
      <trkpt lat="43.59563" lon="5.42172">
        <ele>336.60000610352</ele>
        <time>2013-02-14T15:18:27.000Z</time>
      </trkpt>
      <trkpt lat="43.59529" lon="5.4221">
        <ele>335</ele>
        <time>2013-02-14T15:18:37.000Z</time>
      </trkpt>
      <trkpt lat="43.59477" lon="5.42221">
        <ele>332.39999389648</ele>
        <time>2013-02-14T15:18:49.000Z</time>
      </trkpt>
      <trkpt lat="43.5942" lon="5.42219">
        <ele>329.79998779297</ele>
        <time>2013-02-14T15:19:01.000Z</time>
      </trkpt>
      <trkpt lat="43.59415" lon="5.4222">
        <ele>329.60000610352</ele>
        <time>2013-02-14T15:19:02.000Z</time>
      </trkpt>
      <trkpt lat="43.5941" lon="5.42222">
        <ele>329.79998779297</ele>
        <time>2013-02-14T15:19:03.000Z</time>
      </trkpt>
      <trkpt lat="43.59405" lon="5.42224">
        <ele>329.79998779297</ele>
        <time>2013-02-14T15:19:04.000Z</time>
      </trkpt>
      <trkpt lat="43.594" lon="5.42227">
        <ele>330</ele>
        <time>2013-02-14T15:19:05.000Z</time>
      </trkpt>
      <trkpt lat="43.59396" lon="5.4223">
        <ele>330.20001220703</ele>
        <time>2013-02-14T15:19:06.000Z</time>
      </trkpt>
      <trkpt lat="43.59392" lon="5.42233">
        <ele>330.60000610352</ele>
        <time>2013-02-14T15:19:07.000Z</time>
      </trkpt>
      <trkpt lat="43.59388" lon="5.42238">
        <ele>331</ele>
        <time>2013-02-14T15:19:08.000Z</time>
      </trkpt>
      <trkpt lat="43.59385" lon="5.42242">
        <ele>331.39999389648</ele>
        <time>2013-02-14T15:19:09.000Z</time>
      </trkpt>
      <trkpt lat="43.59383" lon="5.42249">
        <ele>332</ele>
        <time>2013-02-14T15:19:10.000Z</time>
      </trkpt>
      <trkpt lat="43.59382" lon="5.42255">
        <ele>332.20001220703</ele>
        <time>2013-02-14T15:19:11.000Z</time>
      </trkpt>
      <trkpt lat="43.59382" lon="5.42262">
        <ele>332.39999389648</ele>
        <time>2013-02-14T15:19:12.000Z</time>
      </trkpt>
      <trkpt lat="43.59383" lon="5.42269">
        <ele>332.39999389648</ele>
        <time>2013-02-14T15:19:13.000Z</time>
      </trkpt>
      <trkpt lat="43.59384" lon="5.42275">
        <ele>332.60000610352</ele>
        <time>2013-02-14T15:19:14.000Z</time>
      </trkpt>
      <trkpt lat="43.59388" lon="5.42287">
        <ele>333</ele>
        <time>2013-02-14T15:19:16.000Z</time>
      </trkpt>
      <trkpt lat="43.59391" lon="5.42293">
        <ele>333.39999389648</ele>
        <time>2013-02-14T15:19:17.000Z</time>
      </trkpt>
      <trkpt lat="43.59395" lon="5.42297">
        <ele>333.60000610352</ele>
        <time>2013-02-14T15:19:18.000Z</time>
      </trkpt>
      <trkpt lat="43.59399" lon="5.423">
        <ele>334</ele>
        <time>2013-02-14T15:19:19.000Z</time>
      </trkpt>
      <trkpt lat="43.59404" lon="5.42303">
        <ele>334.20001220703</ele>
        <time>2013-02-14T15:19:20.000Z</time>
      </trkpt>
      <trkpt lat="43.59408" lon="5.42304">
        <ele>334.39999389648</ele>
        <time>2013-02-14T15:19:21.000Z</time>
      </trkpt>
      <trkpt lat="43.59413" lon="5.42305">
        <ele>334.79998779297</ele>
        <time>2013-02-14T15:19:22.000Z</time>
      </trkpt>
      <trkpt lat="43.59429" lon="5.42308">
        <ele>334.79998779297</ele>
        <time>2013-02-14T15:19:25.000Z</time>
      </trkpt>
      <trkpt lat="43.59464" lon="5.42314">
        <ele>334.20001220703</ele>
        <time>2013-02-14T15:19:32.000Z</time>
      </trkpt>
      <trkpt lat="43.59483" lon="5.42322">
        <ele>333.79998779297</ele>
        <time>2013-02-14T15:19:36.000Z</time>
      </trkpt>
      <trkpt lat="43.59496" lon="5.42331">
        <ele>333.20001220703</ele>
        <time>2013-02-14T15:19:39.000Z</time>
      </trkpt>
      <trkpt lat="43.59499" lon="5.42336">
        <ele>333</ele>
        <time>2013-02-14T15:19:40.000Z</time>
      </trkpt>
      <trkpt lat="43.595" lon="5.42342">
        <ele>333</ele>
        <time>2013-02-14T15:19:41.000Z</time>
      </trkpt>
      <trkpt lat="43.595" lon="5.42349">
        <ele>333</ele>
        <time>2013-02-14T15:19:42.000Z</time>
      </trkpt>
      <trkpt lat="43.595" lon="5.42355">
        <ele>333</ele>
        <time>2013-02-14T15:19:43.000Z</time>
      </trkpt>
      <trkpt lat="43.59499" lon="5.42362">
        <ele>333</ele>
        <time>2013-02-14T15:19:44.000Z</time>
      </trkpt>
      <trkpt lat="43.59493" lon="5.42389">
        <ele>333</ele>
        <time>2013-02-14T15:19:48.000Z</time>
      </trkpt>
      <trkpt lat="43.59475" lon="5.42468">
        <ele>335</ele>
        <time>2013-02-14T15:20:01.000Z</time>
      </trkpt>
      <trkpt lat="43.59472" lon="5.42473">
        <ele>335.20001220703</ele>
        <time>2013-02-14T15:20:02.000Z</time>
      </trkpt>
      <trkpt lat="43.59467" lon="5.42477">
        <ele>335.39999389648</ele>
        <time>2013-02-14T15:20:03.000Z</time>
      </trkpt>
      <trkpt lat="43.59463" lon="5.42478">
        <ele>335.60000610352</ele>
        <time>2013-02-14T15:20:04.000Z</time>
      </trkpt>
      <trkpt lat="43.59458" lon="5.42477">
        <ele>335.60000610352</ele>
        <time>2013-02-14T15:20:05.000Z</time>
      </trkpt>
      <trkpt lat="43.59453" lon="5.42475">
        <ele>335.60000610352</ele>
        <time>2013-02-14T15:20:06.000Z</time>
      </trkpt>
      <trkpt lat="43.59429" lon="5.42467">
        <ele>335.60000610352</ele>
        <time>2013-02-14T15:20:11.000Z</time>
      </trkpt>
      <trkpt lat="43.59378" lon="5.42451">
        <ele>334.39999389648</ele>
        <time>2013-02-14T15:20:21.000Z</time>
      </trkpt>
      <trkpt lat="43.59372" lon="5.42452">
        <ele>334.39999389648</ele>
        <time>2013-02-14T15:20:22.000Z</time>
      </trkpt>
      <trkpt lat="43.59336" lon="5.42465">
        <ele>334.20001220703</ele>
        <time>2013-02-14T15:20:30.000Z</time>
      </trkpt>
      <trkpt lat="43.59328" lon="5.42477">
        <ele>334</ele>
        <time>2013-02-14T15:20:36.000Z</time>
      </trkpt>
      <trkpt lat="43.59327" lon="5.42479">
        <ele>334</ele>
        <time>2013-02-14T15:20:39.000Z</time>
      </trkpt>
      <trkpt lat="43.59318" lon="5.42484">
        <ele>333.39999389648</ele>
        <time>2013-02-14T15:20:44.000Z</time>
      </trkpt>
      <trkpt lat="43.59316" lon="5.42484">
        <ele>333.20001220703</ele>
        <time>2013-02-14T15:20:45.000Z</time>
      </trkpt>
      <trkpt lat="43.59314" lon="5.42482">
        <ele>333</ele>
        <time>2013-02-14T15:20:46.000Z</time>
      </trkpt>
      <trkpt lat="43.59303" lon="5.42472">
        <ele>332.20001220703</ele>
        <time>2013-02-14T15:20:52.000Z</time>
      </trkpt>
      <trkpt lat="43.59302" lon="5.42471">
        <ele>332</ele>
        <time>2013-02-14T15:20:53.000Z</time>
      </trkpt>
      <trkpt lat="43.593" lon="5.42469">
        <ele>332</ele>
        <time>2013-02-14T15:20:54.000Z</time>
      </trkpt>
      <trkpt lat="43.59297" lon="5.42467">
        <ele>331.79998779297</ele>
        <time>2013-02-14T15:20:55.000Z</time>
      </trkpt>
      <trkpt lat="43.59295" lon="5.42465">
        <ele>331.60000610352</ele>
        <time>2013-02-14T15:20:56.000Z</time>
      </trkpt>
      <trkpt lat="43.59293" lon="5.42463">
        <ele>331.39999389648</ele>
        <time>2013-02-14T15:20:57.000Z</time>
      </trkpt>
      <trkpt lat="43.59291" lon="5.42461">
        <ele>331.39999389648</ele>
        <time>2013-02-14T15:20:58.000Z</time>
      </trkpt>
      <trkpt lat="43.59289" lon="5.42459">
        <ele>331.20001220703</ele>
        <time>2013-02-14T15:20:59.000Z</time>
      </trkpt>
      <trkpt lat="43.59287" lon="5.42458">
        <ele>331.20001220703</ele>
        <time>2013-02-14T15:21:00.000Z</time>
      </trkpt>
      <trkpt lat="43.59285" lon="5.42455">
        <ele>331</ele>
        <time>2013-02-14T15:21:01.000Z</time>
      </trkpt>
      <trkpt lat="43.59283" lon="5.42453">
        <ele>331</ele>
        <time>2013-02-14T15:21:02.000Z</time>
      </trkpt>
      <trkpt lat="43.59281" lon="5.42451">
        <ele>330.79998779297</ele>
        <time>2013-02-14T15:21:03.000Z</time>
      </trkpt>
      <trkpt lat="43.59279" lon="5.4245">
        <ele>330.79998779297</ele>
        <time>2013-02-14T15:21:04.000Z</time>
      </trkpt>
      <trkpt lat="43.59278" lon="5.42448">
        <ele>330.60000610352</ele>
        <time>2013-02-14T15:21:05.000Z</time>
      </trkpt>
      <trkpt lat="43.59278" lon="5.42447">
        <ele>330.60000610352</ele>
        <time>2013-02-14T15:21:06.000Z</time>
      </trkpt>
      <trkpt lat="43.59277" lon="5.42447">
        <ele>330.60000610352</ele>
        <time>2013-02-14T15:21:16.000Z</time>
      </trkpt>
      <trkpt lat="43.59275" lon="5.42446">
        <ele>330.60000610352</ele>
        <time>2013-02-14T15:21:19.000Z</time>
      </trkpt>
      <trkpt lat="43.59274" lon="5.42446">
        <ele>330.39999389648</ele>
        <time>2013-02-14T15:21:20.000Z</time>
      </trkpt>
      <trkpt lat="43.59272" lon="5.42445">
        <ele>330.39999389648</ele>
        <time>2013-02-14T15:21:21.000Z</time>
      </trkpt>
      <trkpt lat="43.59269" lon="5.42444">
        <ele>330.20001220703</ele>
        <time>2013-02-14T15:21:22.000Z</time>
      </trkpt>
      <trkpt lat="43.59267" lon="5.42442">
        <ele>330.20001220703</ele>
        <time>2013-02-14T15:21:23.000Z</time>
      </trkpt>
      <trkpt lat="43.59238" lon="5.42421">
        <ele>329</ele>
        <time>2013-02-14T15:21:32.000Z</time>
      </trkpt>
      <trkpt lat="43.5922" lon="5.42408">
        <ele>327.79998779297</ele>
        <time>2013-02-14T15:21:36.000Z</time>
      </trkpt>
      <trkpt lat="43.59171" lon="5.42356">
        <ele>323.60000610352</ele>
        <time>2013-02-14T15:21:47.000Z</time>
      </trkpt>
      <trkpt lat="43.59136" lon="5.42334">
        <ele>322.60000610352</ele>
        <time>2013-02-14T15:21:53.000Z</time>
      </trkpt>
      <trkpt lat="43.59111" lon="5.42326">
        <ele>321.79998779297</ele>
        <time>2013-02-14T15:21:57.000Z</time>
      </trkpt>
      <trkpt lat="43.59105" lon="5.42322">
        <ele>321.60000610352</ele>
        <time>2013-02-14T15:21:58.000Z</time>
      </trkpt>
      <trkpt lat="43.59099" lon="5.42317">
        <ele>321.39999389648</ele>
        <time>2013-02-14T15:21:59.000Z</time>
      </trkpt>
      <trkpt lat="43.59082" lon="5.423">
        <ele>320.20001220703</ele>
        <time>2013-02-14T15:22:02.000Z</time>
      </trkpt>
      <trkpt lat="43.59058" lon="5.42273">
        <ele>318.39999389648</ele>
        <time>2013-02-14T15:22:06.000Z</time>
      </trkpt>
      <trkpt lat="43.59023" lon="5.42233">
        <ele>316.20001220703</ele>
        <time>2013-02-14T15:22:11.000Z</time>
      </trkpt>
      <trkpt lat="43.59015" lon="5.42225">
        <ele>315.60000610352</ele>
        <time>2013-02-14T15:22:12.000Z</time>
      </trkpt>
      <trkpt lat="43.59007" lon="5.42219">
        <ele>315.20001220703</ele>
        <time>2013-02-14T15:22:13.000Z</time>
      </trkpt>
      <trkpt lat="43.58998" lon="5.42213">
        <ele>314.60000610352</ele>
        <time>2013-02-14T15:22:14.000Z</time>
      </trkpt>
      <trkpt lat="43.58989" lon="5.42209">
        <ele>313.60000610352</ele>
        <time>2013-02-14T15:22:15.000Z</time>
      </trkpt>
      <trkpt lat="43.58938" lon="5.42198">
        <ele>309.39999389648</ele>
        <time>2013-02-14T15:22:20.000Z</time>
      </trkpt>
      <trkpt lat="43.58917" lon="5.42193">
        <ele>308</ele>
        <time>2013-02-14T15:22:22.000Z</time>
      </trkpt>
      <trkpt lat="43.58837" lon="5.42155">
        <ele>306.20001220703</ele>
        <time>2013-02-14T15:22:31.000Z</time>
      </trkpt>
      <trkpt lat="43.58807" lon="5.42142">
        <ele>305.39999389648</ele>
        <time>2013-02-14T15:22:35.000Z</time>
      </trkpt>
      <trkpt lat="43.588" lon="5.42141">
        <ele>305.20001220703</ele>
        <time>2013-02-14T15:22:36.000Z</time>
      </trkpt>
      <trkpt lat="43.5873" lon="5.42143">
        <ele>303.79998779297</ele>
        <time>2013-02-14T15:22:46.000Z</time>
      </trkpt>
      <trkpt lat="43.58722" lon="5.42145">
        <ele>303.60000610352</ele>
        <time>2013-02-14T15:22:50.000Z</time>
      </trkpt>
      <trkpt lat="43.5872" lon="5.42146">
        <ele>303.60000610352</ele>
        <time>2013-02-14T15:22:51.000Z</time>
      </trkpt>
      <trkpt lat="43.58719" lon="5.42146">
        <ele>303.60000610352</ele>
        <time>2013-02-14T15:23:00.000Z</time>
      </trkpt>
      <trkpt lat="43.58719" lon="5.42144">
        <ele>303.60000610352</ele>
        <time>2013-02-14T15:23:19.000Z</time>
      </trkpt>
      <trkpt lat="43.58717" lon="5.42143">
        <ele>303.60000610352</ele>
        <time>2013-02-14T15:23:39.000Z</time>
      </trkpt>
      <trkpt lat="43.58716" lon="5.42147">
        <ele>303.60000610352</ele>
        <time>2013-02-14T15:23:42.000Z</time>
      </trkpt>
      <trkpt lat="43.58715" lon="5.4215">
        <ele>303.60000610352</ele>
        <time>2013-02-14T15:23:43.000Z</time>
      </trkpt>
      <trkpt lat="43.58704" lon="5.42189">
        <ele>303</ele>
        <time>2013-02-14T15:23:53.000Z</time>
      </trkpt>
      <trkpt lat="43.58699" lon="5.42221">
        <ele>302.79998779297</ele>
        <time>2013-02-14T15:23:59.000Z</time>
      </trkpt>
      <trkpt lat="43.58697" lon="5.42233">
        <ele>302.60000610352</ele>
        <time>2013-02-14T15:24:01.000Z</time>
      </trkpt>
      <trkpt lat="43.58697" lon="5.42239">
        <ele>302.60000610352</ele>
        <time>2013-02-14T15:24:02.000Z</time>
      </trkpt>
      <trkpt lat="43.58697" lon="5.42245">
        <ele>302.60000610352</ele>
        <time>2013-02-14T15:24:03.000Z</time>
      </trkpt>
      <trkpt lat="43.58697" lon="5.42252">
        <ele>302.39999389648</ele>
        <time>2013-02-14T15:24:04.000Z</time>
      </trkpt>
      <trkpt lat="43.58696" lon="5.42258">
        <ele>302.39999389648</ele>
        <time>2013-02-14T15:24:05.000Z</time>
      </trkpt>
      <trkpt lat="43.58698" lon="5.42339">
        <ele>302</ele>
        <time>2013-02-14T15:24:17.000Z</time>
      </trkpt>
      <trkpt lat="43.587" lon="5.42389">
        <ele>302.39999389648</ele>
        <time>2013-02-14T15:24:24.000Z</time>
      </trkpt>
      <trkpt lat="43.587" lon="5.42426">
        <ele>302.79998779297</ele>
        <time>2013-02-14T15:24:29.000Z</time>
      </trkpt>
      <trkpt lat="43.58699" lon="5.42439">
        <ele>303</ele>
        <time>2013-02-14T15:24:31.000Z</time>
      </trkpt>
      <trkpt lat="43.58695" lon="5.42522">
        <ele>304</ele>
        <time>2013-02-14T15:24:44.000Z</time>
      </trkpt>
      <trkpt lat="43.58695" lon="5.42528">
        <ele>304</ele>
        <time>2013-02-14T15:24:45.000Z</time>
      </trkpt>
      <trkpt lat="43.58705" lon="5.42612">
        <ele>304.20001220703</ele>
        <time>2013-02-14T15:24:58.000Z</time>
      </trkpt>
      <trkpt lat="43.5872" lon="5.42673">
        <ele>305</ele>
        <time>2013-02-14T15:25:11.000Z</time>
      </trkpt>
      <trkpt lat="43.58732" lon="5.42725">
        <ele>306.60000610352</ele>
        <time>2013-02-14T15:25:23.000Z</time>
      </trkpt>
      <trkpt lat="43.58743" lon="5.42774">
        <ele>309.60000610352</ele>
        <time>2013-02-14T15:25:34.000Z</time>
      </trkpt>
      <trkpt lat="43.58749" lon="5.4281">
        <ele>313</ele>
        <time>2013-02-14T15:25:42.000Z</time>
      </trkpt>
      <trkpt lat="43.58747" lon="5.42851">
        <ele>315.39999389648</ele>
        <time>2013-02-14T15:25:51.000Z</time>
      </trkpt>
      <trkpt lat="43.5875" lon="5.4291">
        <ele>317.60000610352</ele>
        <time>2013-02-14T15:26:04.000Z</time>
      </trkpt>
      <trkpt lat="43.58758" lon="5.42955">
        <ele>317.39999389648</ele>
        <time>2013-02-14T15:26:14.000Z</time>
      </trkpt>
      <trkpt lat="43.58757" lon="5.4296">
        <ele>317.20001220703</ele>
        <time>2013-02-14T15:26:15.000Z</time>
      </trkpt>
      <trkpt lat="43.58754" lon="5.42971">
        <ele>316.79998779297</ele>
        <time>2013-02-14T15:26:17.000Z</time>
      </trkpt>
      <trkpt lat="43.58752" lon="5.42977">
        <ele>316.60000610352</ele>
        <time>2013-02-14T15:26:18.000Z</time>
      </trkpt>
      <trkpt lat="43.5874" lon="5.43008">
        <ele>315.39999389648</ele>
        <time>2013-02-14T15:26:23.000Z</time>
      </trkpt>
      <trkpt lat="43.58739" lon="5.43016">
        <ele>315.39999389648</ele>
        <time>2013-02-14T15:26:24.000Z</time>
      </trkpt>
      <trkpt lat="43.58739" lon="5.43023">
        <ele>315.39999389648</ele>
        <time>2013-02-14T15:26:25.000Z</time>
      </trkpt>
      <trkpt lat="43.58739" lon="5.4303">
        <ele>315.39999389648</ele>
        <time>2013-02-14T15:26:26.000Z</time>
      </trkpt>
      <trkpt lat="43.58739" lon="5.43038">
        <ele>315.39999389648</ele>
        <time>2013-02-14T15:26:27.000Z</time>
      </trkpt>
      <trkpt lat="43.5874" lon="5.43045">
        <ele>315.39999389648</ele>
        <time>2013-02-14T15:26:28.000Z</time>
      </trkpt>
      <trkpt lat="43.58741" lon="5.43052">
        <ele>315.39999389648</ele>
        <time>2013-02-14T15:26:29.000Z</time>
      </trkpt>
      <trkpt lat="43.58745" lon="5.43135">
        <ele>317.60000610352</ele>
        <time>2013-02-14T15:26:39.000Z</time>
      </trkpt>
      <trkpt lat="43.58742" lon="5.43188">
        <ele>319.39999389648</ele>
        <time>2013-02-14T15:26:46.000Z</time>
      </trkpt>
      <trkpt lat="43.58744" lon="5.43233">
        <ele>321</ele>
        <time>2013-02-14T15:26:53.000Z</time>
      </trkpt>
      <trkpt lat="43.58743" lon="5.43257">
        <ele>321.79998779297</ele>
        <time>2013-02-14T15:26:59.000Z</time>
      </trkpt>
      <trkpt lat="43.58742" lon="5.43258">
        <ele>321.60000610352</ele>
        <time>2013-02-14T15:27:00.000Z</time>
      </trkpt>
      <trkpt lat="43.58741" lon="5.43259">
        <ele>321.60000610352</ele>
        <time>2013-02-14T15:27:01.000Z</time>
      </trkpt>
      <trkpt lat="43.5874" lon="5.4326">
        <ele>321.60000610352</ele>
        <time>2013-02-14T15:27:02.000Z</time>
      </trkpt>
      <trkpt lat="43.58739" lon="5.43261">
        <ele>321.60000610352</ele>
        <time>2013-02-14T15:27:03.000Z</time>
      </trkpt>
      <trkpt lat="43.58738" lon="5.43268">
        <ele>321.60000610352</ele>
        <time>2013-02-14T15:27:07.000Z</time>
      </trkpt>
      <trkpt lat="43.58739" lon="5.43271">
        <ele>321.79998779297</ele>
        <time>2013-02-14T15:27:08.000Z</time>
      </trkpt>
      <trkpt lat="43.58739" lon="5.43274">
        <ele>321.79998779297</ele>
        <time>2013-02-14T15:27:09.000Z</time>
      </trkpt>
      <trkpt lat="43.58744" lon="5.43286">
        <ele>322</ele>
        <time>2013-02-14T15:27:16.000Z</time>
      </trkpt>
      <trkpt lat="43.58744" lon="5.43288">
        <ele>322.20001220703</ele>
        <time>2013-02-14T15:27:17.000Z</time>
      </trkpt>
      <trkpt lat="43.58744" lon="5.43291">
        <ele>322.20001220703</ele>
        <time>2013-02-14T15:27:18.000Z</time>
      </trkpt>
      <trkpt lat="43.58745" lon="5.43294">
        <ele>322.20001220703</ele>
        <time>2013-02-14T15:27:19.000Z</time>
      </trkpt>
      <trkpt lat="43.58746" lon="5.43297">
        <ele>322.20001220703</ele>
        <time>2013-02-14T15:27:20.000Z</time>
      </trkpt>
      <trkpt lat="43.58753" lon="5.43326">
        <ele>323</ele>
        <time>2013-02-14T15:27:29.000Z</time>
      </trkpt>
      <trkpt lat="43.58763" lon="5.43375">
        <ele>323</ele>
        <time>2013-02-14T15:27:40.000Z</time>
      </trkpt>
      <trkpt lat="43.58765" lon="5.43405">
        <ele>322.79998779297</ele>
        <time>2013-02-14T15:27:46.000Z</time>
      </trkpt>
      <trkpt lat="43.58765" lon="5.4341">
        <ele>322.60000610352</ele>
        <time>2013-02-14T15:27:47.000Z</time>
      </trkpt>
      <trkpt lat="43.58765" lon="5.43416">
        <ele>322.60000610352</ele>
        <time>2013-02-14T15:27:48.000Z</time>
      </trkpt>
      <trkpt lat="43.58766" lon="5.43422">
        <ele>322.79998779297</ele>
        <time>2013-02-14T15:27:49.000Z</time>
      </trkpt>
      <trkpt lat="43.58766" lon="5.43426">
        <ele>322.79998779297</ele>
        <time>2013-02-14T15:27:50.000Z</time>
      </trkpt>
      <trkpt lat="43.58766" lon="5.4343">
        <ele>322.79998779297</ele>
        <time>2013-02-14T15:27:51.000Z</time>
      </trkpt>
      <trkpt lat="43.58765" lon="5.43434">
        <ele>322.79998779297</ele>
        <time>2013-02-14T15:27:52.000Z</time>
      </trkpt>
      <trkpt lat="43.58765" lon="5.43438">
        <ele>322.79998779297</ele>
        <time>2013-02-14T15:27:53.000Z</time>
      </trkpt>
      <trkpt lat="43.58765" lon="5.43443">
        <ele>322.79998779297</ele>
        <time>2013-02-14T15:27:54.000Z</time>
      </trkpt>
      <trkpt lat="43.58765" lon="5.43448">
        <ele>323</ele>
        <time>2013-02-14T15:27:55.000Z</time>
      </trkpt>
      <trkpt lat="43.58764" lon="5.43454">
        <ele>323</ele>
        <time>2013-02-14T15:27:56.000Z</time>
      </trkpt>
      <trkpt lat="43.58764" lon="5.43461">
        <ele>323</ele>
        <time>2013-02-14T15:27:57.000Z</time>
      </trkpt>
      <trkpt lat="43.58763" lon="5.43474">
        <ele>323</ele>
        <time>2013-02-14T15:27:59.000Z</time>
      </trkpt>
      <trkpt lat="43.58762" lon="5.43486">
        <ele>323.20001220703</ele>
        <time>2013-02-14T15:28:01.000Z</time>
      </trkpt>
      <trkpt lat="43.58752" lon="5.43543">
        <ele>322.39999389648</ele>
        <time>2013-02-14T15:28:12.000Z</time>
      </trkpt>
      <trkpt lat="43.58753" lon="5.43598">
        <ele>322.39999389648</ele>
        <time>2013-02-14T15:28:23.000Z</time>
      </trkpt>
      <trkpt lat="43.58759" lon="5.43648">
        <ele>323.60000610352</ele>
        <time>2013-02-14T15:28:33.000Z</time>
      </trkpt>
      <trkpt lat="43.58762" lon="5.43707">
        <ele>324.20001220703</ele>
        <time>2013-02-14T15:28:43.000Z</time>
      </trkpt>
      <trkpt lat="43.58762" lon="5.43713">
        <ele>324.20001220703</ele>
        <time>2013-02-14T15:28:44.000Z</time>
      </trkpt>
      <trkpt lat="43.58748" lon="5.43778">
        <ele>323.79998779297</ele>
        <time>2013-02-14T15:28:55.000Z</time>
      </trkpt>
      <trkpt lat="43.58739" lon="5.43809">
        <ele>323.79998779297</ele>
        <time>2013-02-14T15:29:00.000Z</time>
      </trkpt>
      <trkpt lat="43.58743" lon="5.4388">
        <ele>323.60000610352</ele>
        <time>2013-02-14T15:29:10.000Z</time>
      </trkpt>
      <trkpt lat="43.58766" lon="5.4398">
        <ele>321</ele>
        <time>2013-02-14T15:29:23.000Z</time>
      </trkpt>
      <trkpt lat="43.58788" lon="5.44061">
        <ele>318.20001220703</ele>
        <time>2013-02-14T15:29:31.000Z</time>
      </trkpt>
      <trkpt lat="43.5879" lon="5.44073">
        <ele>317.79998779297</ele>
        <time>2013-02-14T15:29:32.000Z</time>
      </trkpt>
      <trkpt lat="43.58794" lon="5.44097">
        <ele>317.20001220703</ele>
        <time>2013-02-14T15:29:34.000Z</time>
      </trkpt>
      <trkpt lat="43.58809" lon="5.44224">
        <ele>315.20001220703</ele>
        <time>2013-02-14T15:29:45.000Z</time>
      </trkpt>
      <trkpt lat="43.58818" lon="5.44314">
        <ele>318.20001220703</ele>
        <time>2013-02-14T15:29:55.000Z</time>
      </trkpt>
      <trkpt lat="43.58823" lon="5.44379">
        <ele>321.60000610352</ele>
        <time>2013-02-14T15:30:04.000Z</time>
      </trkpt>
      <trkpt lat="43.5883" lon="5.44442">
        <ele>323.79998779297</ele>
        <time>2013-02-14T15:30:13.000Z</time>
      </trkpt>
      <trkpt lat="43.58831" lon="5.4446">
        <ele>323.79998779297</ele>
        <time>2013-02-14T15:30:16.000Z</time>
      </trkpt>
      <trkpt lat="43.58845" lon="5.44531">
        <ele>323</ele>
        <time>2013-02-14T15:30:28.000Z</time>
      </trkpt>
      <trkpt lat="43.58861" lon="5.44606">
        <ele>323.20001220703</ele>
        <time>2013-02-14T15:30:40.000Z</time>
      </trkpt>
      <trkpt lat="43.58866" lon="5.44685">
        <ele>325.39999389648</ele>
        <time>2013-02-14T15:30:51.000Z</time>
      </trkpt>
      <trkpt lat="43.58867" lon="5.44719">
        <ele>326.20001220703</ele>
        <time>2013-02-14T15:30:56.000Z</time>
      </trkpt>
      <trkpt lat="43.58872" lon="5.44778">
        <ele>326.79998779297</ele>
        <time>2013-02-14T15:31:06.000Z</time>
      </trkpt>
      <trkpt lat="43.58877" lon="5.44808">
        <ele>326.60000610352</ele>
        <time>2013-02-14T15:31:11.000Z</time>
      </trkpt>
      <trkpt lat="43.58881" lon="5.44839">
        <ele>325.79998779297</ele>
        <time>2013-02-14T15:31:15.000Z</time>
      </trkpt>
      <trkpt lat="43.58893" lon="5.44945">
        <ele>318.79998779297</ele>
        <time>2013-02-14T15:31:26.000Z</time>
      </trkpt>
      <trkpt lat="43.58894" lon="5.44956">
        <ele>318.39999389648</ele>
        <time>2013-02-14T15:31:27.000Z</time>
      </trkpt>
      <trkpt lat="43.58907" lon="5.45078">
        <ele>317</ele>
        <time>2013-02-14T15:31:38.000Z</time>
      </trkpt>
      <trkpt lat="43.58925" lon="5.4524">
        <ele>317.79998779297</ele>
        <time>2013-02-14T15:31:52.000Z</time>
      </trkpt>
      <trkpt lat="43.5893" lon="5.45274">
        <ele>318.39999389648</ele>
        <time>2013-02-14T15:31:55.000Z</time>
      </trkpt>
      <trkpt lat="43.58944" lon="5.45386">
        <ele>319.79998779297</ele>
        <time>2013-02-14T15:32:05.000Z</time>
      </trkpt>
      <trkpt lat="43.58957" lon="5.45457">
        <ele>319.60000610352</ele>
        <time>2013-02-14T15:32:14.000Z</time>
      </trkpt>
      <trkpt lat="43.58962" lon="5.45469">
        <ele>319.60000610352</ele>
        <time>2013-02-14T15:32:16.000Z</time>
      </trkpt>
      <trkpt lat="43.59003" lon="5.4555">
        <ele>320.60000610352</ele>
        <time>2013-02-14T15:32:30.000Z</time>
      </trkpt>
      <trkpt lat="43.59041" lon="5.4562">
        <ele>321.60000610352</ele>
        <time>2013-02-14T15:32:44.000Z</time>
      </trkpt>
      <trkpt lat="43.59056" lon="5.45677">
        <ele>322.39999389648</ele>
        <time>2013-02-14T15:32:56.000Z</time>
      </trkpt>
      <trkpt lat="43.59055" lon="5.45733">
        <ele>323.60000610352</ele>
        <time>2013-02-14T15:33:07.000Z</time>
      </trkpt>
      <trkpt lat="43.59052" lon="5.45762">
        <ele>323.60000610352</ele>
        <time>2013-02-14T15:33:15.000Z</time>
      </trkpt>
      <trkpt lat="43.59059" lon="5.45811">
        <ele>323.39999389648</ele>
        <time>2013-02-14T15:33:25.000Z</time>
      </trkpt>
      <trkpt lat="43.59059" lon="5.45827">
        <ele>323</ele>
        <time>2013-02-14T15:33:28.000Z</time>
      </trkpt>
      <trkpt lat="43.59052" lon="5.45892">
        <ele>324</ele>
        <time>2013-02-14T15:33:38.000Z</time>
      </trkpt>
      <trkpt lat="43.59041" lon="5.45926">
        <ele>324.20001220703</ele>
        <time>2013-02-14T15:33:44.000Z</time>
      </trkpt>
      <trkpt lat="43.59032" lon="5.45958">
        <ele>324.79998779297</ele>
        <time>2013-02-14T15:33:49.000Z</time>
      </trkpt>
      <trkpt lat="43.59017" lon="5.46014">
        <ele>325.60000610352</ele>
        <time>2013-02-14T15:33:57.000Z</time>
      </trkpt>
      <trkpt lat="43.59006" lon="5.46093">
        <ele>328.20001220703</ele>
        <time>2013-02-14T15:34:09.000Z</time>
      </trkpt>
      <trkpt lat="43.58988" lon="5.46168">
        <ele>328.39999389648</ele>
        <time>2013-02-14T15:34:19.000Z</time>
      </trkpt>
      <trkpt lat="43.58962" lon="5.46259">
        <ele>330</ele>
        <time>2013-02-14T15:34:32.000Z</time>
      </trkpt>
      <trkpt lat="43.58957" lon="5.4628">
        <ele>330</ele>
        <time>2013-02-14T15:34:35.000Z</time>
      </trkpt>
      <trkpt lat="43.58956" lon="5.46288">
        <ele>330</ele>
        <time>2013-02-14T15:34:36.000Z</time>
      </trkpt>
      <trkpt lat="43.58955" lon="5.46295">
        <ele>330.20001220703</ele>
        <time>2013-02-14T15:34:37.000Z</time>
      </trkpt>
      <trkpt lat="43.58948" lon="5.46392">
        <ele>330.20001220703</ele>
        <time>2013-02-14T15:34:50.000Z</time>
      </trkpt>
      <trkpt lat="43.58943" lon="5.46486">
        <ele>331.79998779297</ele>
        <time>2013-02-14T15:35:03.000Z</time>
      </trkpt>
      <trkpt lat="43.58945" lon="5.46565">
        <ele>333.60000610352</ele>
        <time>2013-02-14T15:35:15.000Z</time>
      </trkpt>
      <trkpt lat="43.58945" lon="5.46577">
        <ele>333.79998779297</ele>
        <time>2013-02-14T15:35:17.000Z</time>
      </trkpt>
      <trkpt lat="43.58946" lon="5.46582">
        <ele>334</ele>
        <time>2013-02-14T15:35:18.000Z</time>
      </trkpt>
      <trkpt lat="43.58952" lon="5.46667">
        <ele>334.60000610352</ele>
        <time>2013-02-14T15:35:32.000Z</time>
      </trkpt>
      <trkpt lat="43.58955" lon="5.46718">
        <ele>336</ele>
        <time>2013-02-14T15:35:41.000Z</time>
      </trkpt>
      <trkpt lat="43.58957" lon="5.46729">
        <ele>336.39999389648</ele>
        <time>2013-02-14T15:35:43.000Z</time>
      </trkpt>
      <trkpt lat="43.58959" lon="5.46734">
        <ele>336.60000610352</ele>
        <time>2013-02-14T15:35:44.000Z</time>
      </trkpt>
      <trkpt lat="43.58972" lon="5.46781">
        <ele>338</ele>
        <time>2013-02-14T15:35:54.000Z</time>
      </trkpt>
      <trkpt lat="43.58977" lon="5.4682">
        <ele>338.60000610352</ele>
        <time>2013-02-14T15:36:02.000Z</time>
      </trkpt>
      <trkpt lat="43.58978" lon="5.46831">
        <ele>338.79998779297</ele>
        <time>2013-02-14T15:36:04.000Z</time>
      </trkpt>
      <trkpt lat="43.58979" lon="5.46837">
        <ele>338.79998779297</ele>
        <time>2013-02-14T15:36:05.000Z</time>
      </trkpt>
      <trkpt lat="43.58979" lon="5.46843">
        <ele>338.79998779297</ele>
        <time>2013-02-14T15:36:06.000Z</time>
      </trkpt>
      <trkpt lat="43.58979" lon="5.46868">
        <ele>338.79998779297</ele>
        <time>2013-02-14T15:36:10.000Z</time>
      </trkpt>
      <trkpt lat="43.58979" lon="5.46874">
        <ele>338.79998779297</ele>
        <time>2013-02-14T15:36:11.000Z</time>
      </trkpt>
      <trkpt lat="43.58979" lon="5.46953">
        <ele>339.79998779297</ele>
        <time>2013-02-14T15:36:23.000Z</time>
      </trkpt>
      <trkpt lat="43.58967" lon="5.47025">
        <ele>340.60000610352</ele>
        <time>2013-02-14T15:36:35.000Z</time>
      </trkpt>
      <trkpt lat="43.58964" lon="5.47077">
        <ele>341.20001220703</ele>
        <time>2013-02-14T15:36:44.000Z</time>
      </trkpt>
      <trkpt lat="43.58964" lon="5.47084">
        <ele>341.20001220703</ele>
        <time>2013-02-14T15:36:45.000Z</time>
      </trkpt>
      <trkpt lat="43.58962" lon="5.47147">
        <ele>341.39999389648</ele>
        <time>2013-02-14T15:36:56.000Z</time>
      </trkpt>
      <trkpt lat="43.58957" lon="5.47191">
        <ele>342.20001220703</ele>
        <time>2013-02-14T15:37:06.000Z</time>
      </trkpt>
      <trkpt lat="43.58946" lon="5.47224">
        <ele>342.79998779297</ele>
        <time>2013-02-14T15:37:16.000Z</time>
      </trkpt>
      <trkpt lat="43.58929" lon="5.47259">
        <ele>343</ele>
        <time>2013-02-14T15:37:24.000Z</time>
      </trkpt>
      <trkpt lat="43.58928" lon="5.47264">
        <ele>343.20001220703</ele>
        <time>2013-02-14T15:37:25.000Z</time>
      </trkpt>
      <trkpt lat="43.58926" lon="5.4727">
        <ele>343.39999389648</ele>
        <time>2013-02-14T15:37:26.000Z</time>
      </trkpt>
      <trkpt lat="43.58919" lon="5.47291">
        <ele>344</ele>
        <time>2013-02-14T15:37:30.000Z</time>
      </trkpt>
      <trkpt lat="43.58918" lon="5.47296">
        <ele>344.20001220703</ele>
        <time>2013-02-14T15:37:31.000Z</time>
      </trkpt>
      <trkpt lat="43.58913" lon="5.47312">
        <ele>344.79998779297</ele>
        <time>2013-02-14T15:37:34.000Z</time>
      </trkpt>
      <trkpt lat="43.58911" lon="5.47317">
        <ele>345</ele>
        <time>2013-02-14T15:37:35.000Z</time>
      </trkpt>
      <trkpt lat="43.5891" lon="5.47322">
        <ele>345.20001220703</ele>
        <time>2013-02-14T15:37:36.000Z</time>
      </trkpt>
      <trkpt lat="43.58898" lon="5.4735">
        <ele>344.60000610352</ele>
        <time>2013-02-14T15:37:42.000Z</time>
      </trkpt>
      <trkpt lat="43.58892" lon="5.47358">
        <ele>344.20001220703</ele>
        <time>2013-02-14T15:37:44.000Z</time>
      </trkpt>
      <trkpt lat="43.58889" lon="5.47361">
        <ele>343.79998779297</ele>
        <time>2013-02-14T15:37:45.000Z</time>
      </trkpt>
      <trkpt lat="43.58862" lon="5.47378">
        <ele>342.39999389648</ele>
        <time>2013-02-14T15:37:51.000Z</time>
      </trkpt>
      <trkpt lat="43.58856" lon="5.47379">
        <ele>342</ele>
        <time>2013-02-14T15:37:52.000Z</time>
      </trkpt>
      <trkpt lat="43.58851" lon="5.4738">
        <ele>341.79998779297</ele>
        <time>2013-02-14T15:37:53.000Z</time>
      </trkpt>
      <trkpt lat="43.58845" lon="5.47379">
        <ele>341.60000610352</ele>
        <time>2013-02-14T15:37:54.000Z</time>
      </trkpt>
      <trkpt lat="43.58839" lon="5.47377">
        <ele>341.60000610352</ele>
        <time>2013-02-14T15:37:55.000Z</time>
      </trkpt>
      <trkpt lat="43.58833" lon="5.47375">
        <ele>341.39999389648</ele>
        <time>2013-02-14T15:37:56.000Z</time>
      </trkpt>
      <trkpt lat="43.58828" lon="5.47373">
        <ele>341.20001220703</ele>
        <time>2013-02-14T15:37:57.000Z</time>
      </trkpt>
      <trkpt lat="43.58822" lon="5.4737">
        <ele>340.79998779297</ele>
        <time>2013-02-14T15:37:58.000Z</time>
      </trkpt>
      <trkpt lat="43.58792" lon="5.47356">
        <ele>339.39999389648</ele>
        <time>2013-02-14T15:38:03.000Z</time>
      </trkpt>
      <trkpt lat="43.58785" lon="5.47355">
        <ele>339</ele>
        <time>2013-02-14T15:38:04.000Z</time>
      </trkpt>
      <trkpt lat="43.58777" lon="5.47355">
        <ele>338.60000610352</ele>
        <time>2013-02-14T15:38:05.000Z</time>
      </trkpt>
      <trkpt lat="43.58768" lon="5.47358">
        <ele>337.79998779297</ele>
        <time>2013-02-14T15:38:06.000Z</time>
      </trkpt>
      <trkpt lat="43.5876" lon="5.47363">
        <ele>337.20001220703</ele>
        <time>2013-02-14T15:38:07.000Z</time>
      </trkpt>
      <trkpt lat="43.58754" lon="5.47371">
        <ele>336.39999389648</ele>
        <time>2013-02-14T15:38:08.000Z</time>
      </trkpt>
      <trkpt lat="43.58748" lon="5.47381">
        <ele>335.60000610352</ele>
        <time>2013-02-14T15:38:09.000Z</time>
      </trkpt>
      <trkpt lat="43.58743" lon="5.47392">
        <ele>334.79998779297</ele>
        <time>2013-02-14T15:38:10.000Z</time>
      </trkpt>
      <trkpt lat="43.5874" lon="5.47404">
        <ele>334.20001220703</ele>
        <time>2013-02-14T15:38:11.000Z</time>
      </trkpt>
      <trkpt lat="43.58738" lon="5.47415">
        <ele>333.60000610352</ele>
        <time>2013-02-14T15:38:12.000Z</time>
      </trkpt>
      <trkpt lat="43.58733" lon="5.47446">
        <ele>332</ele>
        <time>2013-02-14T15:38:16.000Z</time>
      </trkpt>
      <trkpt lat="43.58731" lon="5.47448">
        <ele>331.79998779297</ele>
        <time>2013-02-14T15:38:17.000Z</time>
      </trkpt>
      <trkpt lat="43.58724" lon="5.47463">
        <ele>331</ele>
        <time>2013-02-14T15:38:23.000Z</time>
      </trkpt>
      <trkpt lat="43.58721" lon="5.47467">
        <ele>330.60000610352</ele>
        <time>2013-02-14T15:38:24.000Z</time>
      </trkpt>
      <trkpt lat="43.58719" lon="5.4747">
        <ele>330.39999389648</ele>
        <time>2013-02-14T15:38:25.000Z</time>
      </trkpt>
      <trkpt lat="43.58715" lon="5.47471">
        <ele>330.20001220703</ele>
        <time>2013-02-14T15:38:26.000Z</time>
      </trkpt>
      <trkpt lat="43.5871" lon="5.47472">
        <ele>330.20001220703</ele>
        <time>2013-02-14T15:38:27.000Z</time>
      </trkpt>
      <trkpt lat="43.58705" lon="5.47471">
        <ele>330</ele>
        <time>2013-02-14T15:38:28.000Z</time>
      </trkpt>
      <trkpt lat="43.58648" lon="5.47464">
        <ele>328.60000610352</ele>
        <time>2013-02-14T15:38:35.000Z</time>
      </trkpt>
      <trkpt lat="43.58629" lon="5.47458">
        <ele>328.20001220703</ele>
        <time>2013-02-14T15:38:37.000Z</time>
      </trkpt>
      <trkpt lat="43.58622" lon="5.4745">
        <ele>328.20001220703</ele>
        <time>2013-02-14T15:38:38.000Z</time>
      </trkpt>
      <trkpt lat="43.58616" lon="5.4744">
        <ele>328.20001220703</ele>
        <time>2013-02-14T15:38:39.000Z</time>
      </trkpt>
      <trkpt lat="43.58612" lon="5.47429">
        <ele>328.20001220703</ele>
        <time>2013-02-14T15:38:40.000Z</time>
      </trkpt>
      <trkpt lat="43.58608" lon="5.47417">
        <ele>328.20001220703</ele>
        <time>2013-02-14T15:38:41.000Z</time>
      </trkpt>
      <trkpt lat="43.58572" lon="5.4729">
        <ele>325.60000610352</ele>
        <time>2013-02-14T15:38:51.000Z</time>
      </trkpt>
      <trkpt lat="43.58529" lon="5.47139">
        <ele>324.39999389648</ele>
        <time>2013-02-14T15:39:02.000Z</time>
      </trkpt>
      <trkpt lat="43.5852" lon="5.47118">
        <ele>324.39999389648</ele>
        <time>2013-02-14T15:39:04.000Z</time>
      </trkpt>
      <trkpt lat="43.58515" lon="5.47109">
        <ele>324.39999389648</ele>
        <time>2013-02-14T15:39:05.000Z</time>
      </trkpt>
      <trkpt lat="43.58508" lon="5.47101">
        <ele>324.20001220703</ele>
        <time>2013-02-14T15:39:06.000Z</time>
      </trkpt>
      <trkpt lat="43.58501" lon="5.47093">
        <ele>324</ele>
        <time>2013-02-14T15:39:07.000Z</time>
      </trkpt>
      <trkpt lat="43.58494" lon="5.47086">
        <ele>324</ele>
        <time>2013-02-14T15:39:08.000Z</time>
      </trkpt>
      <trkpt lat="43.58486" lon="5.4708">
        <ele>324</ele>
        <time>2013-02-14T15:39:09.000Z</time>
      </trkpt>
      <trkpt lat="43.5845" lon="5.47054">
        <ele>323.79998779297</ele>
        <time>2013-02-14T15:39:14.000Z</time>
      </trkpt>
      <trkpt lat="43.58445" lon="5.47046">
        <ele>323.60000610352</ele>
        <time>2013-02-14T15:39:15.000Z</time>
      </trkpt>
      <trkpt lat="43.58441" lon="5.47039">
        <ele>323.39999389648</ele>
        <time>2013-02-14T15:39:16.000Z</time>
      </trkpt>
      <trkpt lat="43.58433" lon="5.47026">
        <ele>323</ele>
        <time>2013-02-14T15:39:18.000Z</time>
      </trkpt>
      <trkpt lat="43.58429" lon="5.47023">
        <ele>322.79998779297</ele>
        <time>2013-02-14T15:39:19.000Z</time>
      </trkpt>
      <trkpt lat="43.58425" lon="5.47023">
        <ele>322.79998779297</ele>
        <time>2013-02-14T15:39:20.000Z</time>
      </trkpt>
      <trkpt lat="43.58422" lon="5.47024">
        <ele>322.60000610352</ele>
        <time>2013-02-14T15:39:21.000Z</time>
      </trkpt>
      <trkpt lat="43.5842" lon="5.47027">
        <ele>322.60000610352</ele>
        <time>2013-02-14T15:39:22.000Z</time>
      </trkpt>
      <trkpt lat="43.58413" lon="5.4703">
        <ele>322.60000610352</ele>
        <time>2013-02-14T15:39:24.000Z</time>
      </trkpt>
      <trkpt lat="43.5841" lon="5.47028">
        <ele>322.39999389648</ele>
        <time>2013-02-14T15:39:25.000Z</time>
      </trkpt>
      <trkpt lat="43.58406" lon="5.47024">
        <ele>322.20001220703</ele>
        <time>2013-02-14T15:39:26.000Z</time>
      </trkpt>
      <trkpt lat="43.58403" lon="5.47018">
        <ele>322</ele>
        <time>2013-02-14T15:39:27.000Z</time>
      </trkpt>
      <trkpt lat="43.584" lon="5.4701">
        <ele>321.79998779297</ele>
        <time>2013-02-14T15:39:28.000Z</time>
      </trkpt>
      <trkpt lat="43.58399" lon="5.47002">
        <ele>321.60000610352</ele>
        <time>2013-02-14T15:39:29.000Z</time>
      </trkpt>
      <trkpt lat="43.58378" lon="5.46915">
        <ele>321</ele>
        <time>2013-02-14T15:39:37.000Z</time>
      </trkpt>
      <trkpt lat="43.58375" lon="5.46903">
        <ele>320.79998779297</ele>
        <time>2013-02-14T15:39:38.000Z</time>
      </trkpt>
      <trkpt lat="43.58371" lon="5.46891">
        <ele>320.60000610352</ele>
        <time>2013-02-14T15:39:39.000Z</time>
      </trkpt>
      <trkpt lat="43.58366" lon="5.4688">
        <ele>320.39999389648</ele>
        <time>2013-02-14T15:39:40.000Z</time>
      </trkpt>
      <trkpt lat="43.58296" lon="5.46752">
        <ele>318.39999389648</ele>
        <time>2013-02-14T15:39:53.000Z</time>
      </trkpt>
      <trkpt lat="43.58237" lon="5.46661">
        <ele>317.79998779297</ele>
        <time>2013-02-14T15:40:03.000Z</time>
      </trkpt>
      <trkpt lat="43.5821" lon="5.46596">
        <ele>317.79998779297</ele>
        <time>2013-02-14T15:40:11.000Z</time>
      </trkpt>
      <trkpt lat="43.58206" lon="5.46585">
        <ele>317.79998779297</ele>
        <time>2013-02-14T15:40:13.000Z</time>
      </trkpt>
      <trkpt lat="43.58203" lon="5.46582">
        <ele>317.39999389648</ele>
        <time>2013-02-14T15:40:14.000Z</time>
      </trkpt>
      <trkpt lat="43.58198" lon="5.46583">
        <ele>317.20001220703</ele>
        <time>2013-02-14T15:40:15.000Z</time>
      </trkpt>
      <trkpt lat="43.58194" lon="5.46587">
        <ele>316.79998779297</ele>
        <time>2013-02-14T15:40:16.000Z</time>
      </trkpt>
      <trkpt lat="43.5819" lon="5.46591">
        <ele>316.60000610352</ele>
        <time>2013-02-14T15:40:17.000Z</time>
      </trkpt>
      <trkpt lat="43.58186" lon="5.46595">
        <ele>316.39999389648</ele>
        <time>2013-02-14T15:40:18.000Z</time>
      </trkpt>
      <trkpt lat="43.58182" lon="5.46598">
        <ele>316</ele>
        <time>2013-02-14T15:40:19.000Z</time>
      </trkpt>
      <trkpt lat="43.58177" lon="5.46602">
        <ele>315.79998779297</ele>
        <time>2013-02-14T15:40:20.000Z</time>
      </trkpt>
      <trkpt lat="43.58172" lon="5.46606">
        <ele>315.39999389648</ele>
        <time>2013-02-14T15:40:21.000Z</time>
      </trkpt>
      <trkpt lat="43.58167" lon="5.46611">
        <ele>315.20001220703</ele>
        <time>2013-02-14T15:40:22.000Z</time>
      </trkpt>
      <trkpt lat="43.58097" lon="5.46674">
        <ele>315.20001220703</ele>
        <time>2013-02-14T15:40:35.000Z</time>
      </trkpt>
      <trkpt lat="43.58093" lon="5.4668">
        <ele>315.20001220703</ele>
        <time>2013-02-14T15:40:36.000Z</time>
      </trkpt>
      <trkpt lat="43.5809" lon="5.46688">
        <ele>315.20001220703</ele>
        <time>2013-02-14T15:40:37.000Z</time>
      </trkpt>
      <trkpt lat="43.58087" lon="5.46695">
        <ele>315.20001220703</ele>
        <time>2013-02-14T15:40:38.000Z</time>
      </trkpt>
      <trkpt lat="43.58084" lon="5.46703">
        <ele>315.39999389648</ele>
        <time>2013-02-14T15:40:39.000Z</time>
      </trkpt>
      <trkpt lat="43.58082" lon="5.46711">
        <ele>315.39999389648</ele>
        <time>2013-02-14T15:40:40.000Z</time>
      </trkpt>
      <trkpt lat="43.58078" lon="5.46727">
        <ele>315.79998779297</ele>
        <time>2013-02-14T15:40:42.000Z</time>
      </trkpt>
      <trkpt lat="43.58077" lon="5.46735">
        <ele>315.79998779297</ele>
        <time>2013-02-14T15:40:43.000Z</time>
      </trkpt>
      <trkpt lat="43.58076" lon="5.46742">
        <ele>316</ele>
        <time>2013-02-14T15:40:44.000Z</time>
      </trkpt>
      <trkpt lat="43.58069" lon="5.46773">
        <ele>316.39999389648</ele>
        <time>2013-02-14T15:40:48.000Z</time>
      </trkpt>
      <trkpt lat="43.58066" lon="5.4678">
        <ele>316.60000610352</ele>
        <time>2013-02-14T15:40:49.000Z</time>
      </trkpt>
      <trkpt lat="43.58061" lon="5.46785">
        <ele>316.79998779297</ele>
        <time>2013-02-14T15:40:50.000Z</time>
      </trkpt>
      <trkpt lat="43.58056" lon="5.46787">
        <ele>316.79998779297</ele>
        <time>2013-02-14T15:40:51.000Z</time>
      </trkpt>
      <trkpt lat="43.5805" lon="5.46786">
        <ele>317</ele>
        <time>2013-02-14T15:40:52.000Z</time>
      </trkpt>
      <trkpt lat="43.58045" lon="5.46783">
        <ele>317</ele>
        <time>2013-02-14T15:40:53.000Z</time>
      </trkpt>
      <trkpt lat="43.57998" lon="5.46764">
        <ele>318</ele>
        <time>2013-02-14T15:41:03.000Z</time>
      </trkpt>
      <trkpt lat="43.57993" lon="5.46761">
        <ele>318</ele>
        <time>2013-02-14T15:41:06.000Z</time>
      </trkpt>
      <trkpt lat="43.57992" lon="5.46761">
        <ele>318</ele>
        <time>2013-02-14T15:41:07.000Z</time>
      </trkpt>
      <trkpt lat="43.57991" lon="5.46758">
        <ele>318</ele>
        <time>2013-02-14T15:41:09.000Z</time>
      </trkpt>
      <trkpt lat="43.57992" lon="5.46756">
        <ele>318</ele>
        <time>2013-02-14T15:41:18.000Z</time>
      </trkpt>
    </trkseg>
  </trk>
</gpx>